GFSCGP_prec_precacc24_015.txt.gz
Total_Precipitation_Accumulation
0.00 0.00 0.00 0.00 0.00 0.00 0.00 0.00 0.00 0.00 0.00 0.00 0.00 0.00 0.00 0.00 0.00 0.04 0.04 0.14 0.05 0.00 0.02 0.03 0.02 0.02 0.01 0.06 0.02 0.05 0.03 0.01 0.00 0.00 0.00 0.00 0.00 0.00 0.00 0.00 0.00 0.00 0.00 0.00
0.00 0.00 0.00 0.00 0.00 0.00 0.00 0.00 0.00 0.00 0.00 0.00 0.00 0.00 0.00 0.00 0.00 0.00 0.01 0.14 0.03 0.00 0.01 0.01 0.00 0.00 0.01 0.04 0.03 0.00 0.00 0.00 0.01 0.01 0.00 0.00 0.00 0.00 0.00 0.00 0.00 0.00 0.00 0.00
0.00 0.00 0.00 0.00 0.00 0.00 0.00 0.00 0.00 0.00 0.00 0.00 0.00 0.00 0.00 0.00 0.00 0.00 0.00 0.00 0.00 0.00 0.00 0.00 0.00 0.00 0.01 0.01 0.01 0.01 0.01 0.00 0.00 0.00 0.00 0.00 0.00 0.00 0.00 0.00 0.00 0.00 0.00 0.00
0.00 0.00 0.00 0.00 0.00 0.00 0.00 0.00 0.00 0.00 0.00 0.00 0.00 0.01 0.08 0.01 0.00 0.00 0.00 0.00 0.00 0.00 0.00 0.00 0.01 0.01 0.02 0.03 0.02 0.02 0.00 0.00 0.00 0.00 0.00 0.00 0.00 0.00 0.00 0.00 0.00 0.00 0.00 0.00
0.00 0.00 0.00 0.00 0.00 0.00 0.01 0.00 0.00 0.00 0.00 0.01 0.01 0.00 0.08 0.01 0.00 0.00 0.00 0.00 0.00 0.00 0.00 0.00 0.00 0.01 0.02 0.02 0.02 0.01 0.00 0.00 0.00 0.00 0.00 0.00 0.00 0.00 0.00 0.00 0.00 0.00 0.00 0.00
0.00 0.00 0.00 0.00 0.00 0.00 0.00 0.00 0.00 0.00 0.00 0.01 0.02 0.02 0.04 0.01 0.00 0.01 0.01 0.00 0.00 0.00 0.00 0.00 0.00 0.01 0.02 0.02 0.01 0.00 0.00 0.00 0.00 0.00 0.00 0.00 0.00 0.00 0.00 0.00 0.00 0.00 0.00 0.00
0.00 0.00 0.00 0.00 0.00 0.00 0.00 0.00 0.00 0.01 0.00 0.00 0.00 0.01 0.02 0.02 0.05 0.12 0.10 0.00 0.00 0.00 0.00 0.00 0.00 0.00 0.00 0.01 0.00 0.00 0.00 0.00 0.00 0.00 0.00 0.00 0.00 0.00 0.00 0.00 0.00 0.00 0.00 0.00
0.00 0.00 0.00 0.00 0.00 0.00 0.00 0.00 0.00 0.05 0.04 0.01 0.01 0.00 0.00 0.00 0.00 0.00 0.00 0.00 0.00 0.00 0.00 0.00 0.01 0.00 0.00 0.00 0.00 0.00 0.00 0.00 0.00 0.00 0.00 0.00 0.00 0.00 0.00 0.00 0.00 0.00 0.00 0.00
0.02 0.00 0.00 0.00 0.00 0.00 0.00 0.00 0.00 0.01 0.01 0.01 0.00 0.00 0.00 0.00 0.00 0.00 0.00 0.00 0.00 0.01 0.04 0.05 0.02 0.00 0.00 0.00 0.00 0.00 0.00 0.00 0.00 0.00 0.00 0.00 0.00 0.00 0.00 0.00 0.00 0.00 0.00 0.00
0.04 0.07 0.01 0.00 0.00 0.00 0.00 0.00 0.00 0.00 0.00 0.00 0.00 0.00 0.00 0.01 0.00 0.00 0.00 0.00 0.00 0.00 0.00 0.00 0.00 0.00 0.00 0.00 0.00 0.00 0.00 0.00 0.00 0.00 0.00 0.00 0.00 0.00 0.00 0.00 0.00 0.00 0.00 0.00
0.00 0.03 0.04 0.00 0.00 0.00 0.00 0.00 0.00 0.00 0.00 0.00 0.00 0.00 0.00 0.00 0.00 0.00 0.00 0.00 0.00 0.00 0.00 0.00 0.00 0.00 0.00 0.00 0.00 0.00 0.00 0.00 0.00 0.00 0.00 0.00 0.00 0.00 0.00 0.00 0.00 0.00 0.00 0.00
0.00 0.00 0.00 0.00 0.00 0.00 0.00 0.00 0.00 0.00 0.00 0.00 0.00 0.00 0.00 0.00 0.00 0.00 0.00 0.00 0.00 0.00 0.00 0.00 0.00 0.00 0.00 0.00 0.00 0.00 0.00 0.00 0.00 0.00 0.00 0.00 0.00 0.00 0.00 0.00 0.00 0.00 0.00 0.00
0.00 0.00 0.00 0.00 0.00 0.00 0.00 0.00 0.00 0.00 0.00 0.00 0.00 0.00 0.00 0.00 0.00 0.00 0.00 0.00 0.00 0.00 0.00 0.00 0.00 0.00 0.00 0.00 0.00 0.00 0.00 0.00 0.00 0.00 0.00 0.00 0.00 0.00 0.00 0.00 0.00 0.00 0.00 0.00
0.00 0.00 0.00 0.00 0.00 0.00 0.00 0.00 0.00 0.00 0.00 0.00 0.00 0.00 0.00 0.00 0.00 0.00 0.00 0.00 0.00 0.00 0.00 0.00 0.00 0.00 0.00 0.00 0.00 0.00 0.00 0.00 0.00 0.00 0.00 0.00 0.00 0.00 0.00 0.00 0.00 0.00 0.00 0.00
0.00 0.00 0.00 0.00 0.00 0.00 0.00 0.00 0.00 0.00 0.00 0.00 0.00 0.00 0.00 0.00 0.00 0.00 0.00 0.00 0.00 0.00 0.00 0.00 0.00 0.00 0.00 0.00 0.00 0.00 0.00 0.00 0.00 0.00 0.00 0.00 0.00 0.00 0.00 0.00 0.00 0.00 0.00 0.00
0.00 0.00 0.00 0.00 0.00 0.00 0.00 0.00 0.00 0.00 0.00 0.00 0.00 0.00 0.00 0.00 0.00 0.00 0.00 0.00 0.00 0.00 0.00 0.00 0.00 0.01 0.00 0.00 0.00 0.00 0.00 0.00 0.00 0.00 0.00 0.00 0.00 0.00 0.00 0.00 0.00 0.00 0.00 0.00
0.00 0.00 0.00 0.00 0.00 0.00 0.00 0.00 0.00 0.00 0.00 0.00 0.00 0.00 0.00 0.00 0.00 0.00 0.00 0.00 0.00 0.00 0.00 0.00 0.00 0.00 0.00 0.01 0.00 0.00 0.00 0.00 0.00 0.00 0.00 0.00 0.00 0.00 0.00 0.00 0.00 0.00 0.00 0.00
0.02 0.01 0.00 0.00 0.00 0.00 0.00 0.00 0.00 0.00 0.00 0.00 0.00 0.00 0.00 0.00 0.00 0.00 0.00 0.00 0.00 0.00 0.00 0.00 0.00 0.00 0.00 0.00 0.00 0.00 0.00 0.00 0.00 0.00 0.00 0.00 0.00 0.00 0.00 0.00 0.00 0.00 0.00 0.00
0.04 0.00 0.00 0.00 0.00 0.00 0.00 0.00 0.00 0.00 0.00 0.00 0.00 0.00 0.00 0.00 0.00 0.00 0.00 0.00 0.00 0.00 0.00 0.00 0.00 0.00 0.00 0.00 0.00 0.00 0.00 0.00 0.00 0.00 0.00 0.00 0.00 0.00 0.00 0.00 0.00 0.00 0.00 0.00
0.00 0.00 0.00 0.00 0.00 0.00 0.00 0.00 0.00 0.00 0.00 0.00 0.00 0.00 0.00 0.00 0.00 0.00 0.00 0.00 0.00 0.00 0.00 0.00 0.00 0.00 0.00 0.00 0.00 0.00 0.00 0.00 0.00 0.00 0.00 0.00 0.00 0.01 0.00 0.00 0.00 0.00 0.00 0.00
0.00 0.00 0.00 0.00 0.00 0.00 0.00 0.00 0.00 0.00 0.00 0.00 0.00 0.00 0.00 0.00 0.00 0.00 0.00 0.00 0.00 0.00 0.00 0.00 0.00 0.00 0.00 0.00 0.00 0.00 0.00 0.00 0.00 0.00 0.00 0.02 0.02 0.01 0.01 0.00 0.00 0.00 0.00 0.00
0.00 0.00 0.00 0.00 0.00 0.00 0.00 0.00 0.00 0.00 0.00 0.00 0.00 0.00 0.00 0.00 0.00 0.00 0.00 0.00 0.00 0.00 0.00 0.00 0.00 0.00 0.00 0.00 0.00 0.00 0.00 0.00 0.00 0.03 0.04 0.03 0.02 0.00 0.00 0.00 0.00 0.00 0.00 0.00
0.00 0.00 0.00 0.00 0.00 0.00 0.00 0.00 0.00 0.00 0.00 0.00 0.00 0.00 0.00 0.00 0.00 0.00 0.00 0.00 0.00 0.00 0.00 0.00 0.00 0.00 0.00 0.00 0.00 0.01 0.02 0.04 0.04 0.05 0.03 0.01 0.00 0.00 0.00 0.00 0.00 0.00 0.00 0.00
0.00 0.00 0.00 0.00 0.00 0.00 0.00 0.00 0.00 0.00 0.00 0.00 0.00 0.00 0.00 0.00 0.00 0.00 0.00 0.00 0.00 0.00 0.00 0.00 0.00 0.00 0.02 0.04 0.05 0.05 0.04 0.03 0.02 0.01 0.01 0.00 0.00 0.00 0.00 0.00 0.00 0.00 0.00 0.00
0.00 0.00 0.00 0.00 0.00 0.00 0.00 0.00 0.00 0.00 0.00 0.00 0.00 0.00 0.00 0.00 0.00 0.00 0.00 0.00 0.00 0.01 0.03 0.02 0.03 0.05 0.05 0.02 0.01 0.01 0.02 0.01 0.01 0.00 0.00 0.00 0.00 0.00 0.00 0.00 0.00 0.00 0.00 0.00
0.00 0.00 0.00 0.00 0.00 0.00 0.00 0.00 0.00 0.00 0.00 0.00 0.00 0.00 0.00 0.00 0.00 0.00 0.00 0.00 0.03 0.05 0.02 0.03 0.03 0.02 0.02 0.01 0.01 0.00 0.00 0.00 0.00 0.00 0.00 0.00 0.00 0.00 0.00 0.00 0.00 0.00 0.00 0.00

GFSCGP_prec_precacc24_018.txt.gz
Total_Precipitation_Accumulation
0.00 0.00 0.00 0.00 0.00 0.00 0.00 0.00 0.00 0.00 0.00 0.00 0.00 0.00 0.00 0.00 0.01 0.04 0.04 0.14 0.05 0.01 0.02 0.03 0.02 0.02 0.01 0.06 0.02 0.05 0.03 0.01 0.00 0.00 0.00 0.00 0.00 0.00 0.00 0.00 0.00 0.00 0.00 0.00
0.00 0.00 0.00 0.00 0.00 0.00 0.00 0.00 0.00 0.00 0.00 0.00 0.00 0.00 0.00 0.01 0.00 0.01 0.01 0.14 0.03 0.01 0.01 0.01 0.00 0.00 0.01 0.04 0.03 0.00 0.00 0.00 0.01 0.01 0.00 0.00 0.00 0.00 0.00 0.00 0.00 0.00 0.00 0.00
0.00 0.00 0.00 0.00 0.00 0.00 0.00 0.00 0.00 0.00 0.00 0.00 0.00 0.00 0.00 0.01 0.01 0.02 0.01 0.00 0.00 0.00 0.00 0.00 0.00 0.00 0.01 0.01 0.01 0.01 0.01 0.00 0.00 0.00 0.00 0.00 0.00 0.00 0.00 0.00 0.00 0.00 0.00 0.00
0.00 0.00 0.00 0.00 0.00 0.00 0.00 0.00 0.00 0.00 0.00 0.00 0.00 0.01 0.08 0.01 0.00 0.01 0.01 0.00 0.00 0.00 0.00 0.00 0.01 0.01 0.02 0.03 0.03 0.04 0.03 0.02 0.00 0.00 0.00 0.00 0.00 0.00 0.00 0.00 0.00 0.00 0.00 0.00
0.00 0.00 0.00 0.00 0.00 0.00 0.01 0.00 0.00 0.00 0.00 0.01 0.01 0.00 0.08 0.01 0.00 0.00 0.00 0.00 0.00 0.00 0.00 0.00 0.01 0.01 0.02 0.04 0.03 0.01 0.01 0.02 0.00 0.00 0.00 0.00 0.00 0.00 0.00 0.00 0.00 0.00 0.00 0.00
0.00 0.00 0.00 0.00 0.00 0.00 0.00 0.00 0.00 0.00 0.00 0.01 0.02 0.02 0.04 0.01 0.00 0.01 0.01 0.00 0.00 0.00 0.01 0.04 0.02 0.01 0.03 0.05 0.03 0.03 0.00 0.00 0.00 0.00 0.00 0.00 0.00 0.00 0.00 0.00 0.00 0.00 0.00 0.00
0.00 0.00 0.00 0.00 0.00 0.00 0.00 0.00 0.00 0.01 0.00 0.00 0.00 0.01 0.02 0.02 0.05 0.12 0.10 0.00 0.00 0.00 0.00 0.01 0.00 0.00 0.00 0.05 0.02 0.00 0.00 0.00 0.00 0.00 0.00 0.00 0.00 0.00 0.00 0.00 0.00 0.00 0.00 0.00
0.00 0.00 0.00 0.00 0.00 0.00 0.00 0.00 0.00 0.05 0.04 0.01 0.01 0.01 0.00 0.00 0.00 0.00 0.00 0.00 0.00 0.00 0.00 0.00 0.01 0.01 0.00 0.01 0.01 0.00 0.00 0.00 0.01 0.01 0.01 0.00 0.00 0.00 0.00 0.00 0.00 0.00 0.00 0.00
0.02 0.00 0.00 0.00 0.00 0.00 0.00 0.00 0.00 0.01 0.01 0.01 0.00 0.00 0.00 0.00 0.00 0.00 0.00 0.00 0.00 0.01 0.04 0.05 0.02 0.00 0.00 0.00 0.00 0.02 0.02 0.01 0.01 0.01 0.01 0.00 0.00 0.00 0.00 0.00 0.00 0.00 0.00 0.00
0.04 0.07 0.01 0.00 0.00 0.00 0.00 0.00 0.00 0.00 0.00 0.00 0.00 0.00 0.00 0.01 0.00 0.00 0.00 0.00 0.00 0.00 0.00 0.00 0.00 0.00 0.00 0.00 0.00 0.00 0.00 0.01 0.02 0.01 0.00 0.00 0.00 0.00 0.00 0.00 0.00 0.00 0.00 0.00
0.00 0.03 0.04 0.00 0.00 0.00 0.00 0.00 0.00 0.00 0.00 0.00 0.00 0.00 0.00 0.00 0.00 0.00 0.00 0.00 0.00 0.00 0.00 0.00 0.00 0.00 0.00 0.00 0.00 0.00 0.00 0.01 0.01 0.01 0.00 0.00 0.00 0.00 0.00 0.00 0.00 0.00 0.00 0.00
0.00 0.00 0.00 0.00 0.00 0.00 0.00 0.00 0.00 0.00 0.00 0.00 0.00 0.00 0.00 0.00 0.00 0.00 0.00 0.00 0.00 0.00 0.00 0.00 0.00 0.00 0.00 0.00 0.00 0.00 0.00 0.00 0.00 0.00 0.00 0.00 0.00 0.00 0.00 0.00 0.00 0.00 0.00 0.00
0.00 0.00 0.00 0.00 0.00 0.00 0.00 0.00 0.00 0.00 0.00 0.00 0.00 0.00 0.00 0.00 0.00 0.00 0.00 0.00 0.00 0.00 0.00 0.00 0.00 0.00 0.00 0.00 0.00 0.00 0.00 0.00 0.00 0.00 0.00 0.00 0.00 0.00 0.00 0.00 0.00 0.00 0.00 0.00
0.01 0.00 0.00 0.00 0.00 0.00 0.00 0.00 0.00 0.00 0.00 0.00 0.00 0.00 0.00 0.00 0.00 0.00 0.00 0.00 0.00 0.00 0.00 0.00 0.00 0.00 0.00 0.00 0.00 0.00 0.00 0.00 0.00 0.00 0.00 0.00 0.00 0.00 0.00 0.00 0.00 0.00 0.00 0.00
0.00 0.00 0.00 0.00 0.00 0.00 0.00 0.00 0.00 0.00 0.00 0.00 0.00 0.00 0.00 0.00 0.00 0.00 0.00 0.00 0.00 0.00 0.00 0.00 0.00 0.00 0.00 0.00 0.00 0.00 0.00 0.00 0.00 0.00 0.00 0.00 0.00 0.00 0.00 0.00 0.00 0.00 0.00 0.00
0.00 0.00 0.00 0.00 0.00 0.00 0.00 0.00 0.00 0.00 0.00 0.00 0.00 0.00 0.00 0.00 0.00 0.00 0.00 0.00 0.00 0.00 0.00 0.00 0.00 0.01 0.00 0.01 0.00 0.01 0.01 0.00 0.00 0.00 0.00 0.00 0.00 0.00 0.00 0.00 0.00 0.00 0.00 0.00
0.00 0.00 0.00 0.00 0.00 0.00 0.00 0.00 0.00 0.00 0.00 0.00 0.00 0.00 0.00 0.00 0.00 0.00 0.00 0.00 0.00 0.00 0.00 0.00 0.00 0.00 0.00 0.01 0.00 0.01 0.00 0.00 0.00 0.00 0.00 0.00 0.00 0.00 0.00 0.00 0.00 0.00 0.00 0.00
0.02 0.01 0.00 0.00 0.00 0.00 0.00 0.00 0.00 0.00 0.00 0.00 0.00 0.00 0.00 0.00 0.00 0.00 0.00 0.00 0.00 0.00 0.00 0.00 0.00 0.00 0.00 0.00 0.00 0.00 0.00 0.00 0.00 0.00 0.00 0.00 0.00 0.00 0.00 0.00 0.01 0.01 0.00 0.00
0.08 0.02 0.00 0.00 0.00 0.00 0.00 0.00 0.00 0.00 0.00 0.00 0.00 0.00 0.00 0.00 0.00 0.00 0.00 0.00 0.00 0.00 0.00 0.00 0.00 0.00 0.00 0.00 0.00 0.00 0.00 0.00 0.00 0.00 0.00 0.00 0.00 0.00 0.01 0.02 0.03 0.01 0.00 0.00
0.01 0.03 0.00 0.00 0.00 0.00 0.00 0.00 0.00 0.00 0.00 0.00 0.00 0.00 0.00 0.00 0.00 0.00 0.00 0.00 0.00 0.00 0.00 0.00 0.00 0.00 0.00 0.00 0.00 0.00 0.00 0.00 0.00 0.00 0.00 0.00 0.00 0.01 0.03 0.04 0.03 0.01 0.00 0.00
0.00 0.00 0.00 0.00 0.00 0.00 0.00 0.00 0.00 0.00 0.00 0.00 0.00 0.00 0.00 0.00 0.00 0.00 0.00 0.00 0.00 0.00 0.00 0.00 0.00 0.00 0.00 0.00 0.00 0.00 0.00 0.00 0.00 0.00 0.01 0.03 0.05 0.08 0.07 0.03 0.00 0.00 0.00 0.00
0.00 0.00 0.00 0.00 0.00 0.00 0.00 0.00 0.00 0.00 0.00 0.00 0.00 0.00 0.00 0.00 0.00 0.00 0.00 0.00 0.00 0.00 0.00 0.00 0.00 0.00 0.00 0.00 0.00 0.01 0.00 0.00 0.00 0.03 0.06 0.09 0.09 0.04 0.01 0.00 0.00 0.00 0.00 0.00
0.00 0.00 0.00 0.00 0.00 0.00 0.00 0.00 0.00 0.00 0.00 0.00 0.00 0.00 0.00 0.00 0.00 0.00 0.00 0.00 0.00 0.00 0.00 0.00 0.00 0.00 0.00 0.00 0.00 0.01 0.02 0.04 0.04 0.06 0.07 0.06 0.02 0.00 0.00 0.00 0.00 0.00 0.00 0.00
0.00 0.00 0.00 0.00 0.00 0.00 0.00 0.00 0.00 0.00 0.00 0.00 0.00 0.00 0.00 0.00 0.00 0.00 0.00 0.00 0.00 0.00 0.00 0.00 0.00 0.00 0.02 0.04 0.05 0.05 0.04 0.03 0.02 0.02 0.01 0.00 0.00 0.00 0.00 0.00 0.00 0.00 0.00 0.00
0.00 0.00 0.00 0.00 0.00 0.00 0.00 0.00 0.00 0.00 0.00 0.00 0.00 0.00 0.00 0.00 0.00 0.00 0.00 0.00 0.00 0.01 0.03 0.02 0.03 0.05 0.05 0.02 0.01 0.01 0.02 0.01 0.01 0.00 0.00 0.00 0.00 0.00 0.00 0.00 0.00 0.00 0.00 0.00
0.00 0.00 0.00 0.00 0.00 0.00 0.00 0.00 0.00 0.00 0.00 0.00 0.00 0.00 0.00 0.00 0.00 0.00 0.00 0.00 0.03 0.05 0.02 0.03 0.03 0.02 0.02 0.01 0.01 0.00 0.00 0.00 0.00 0.00 0.00 0.00 0.00 0.00 0.00 0.00 0.00 0.00 0.00 0.00

GFSCGP_prec_precacc24_021.txt.gz
Total_Precipitation_Accumulation
0.00 0.00 0.00 0.00 0.00 0.00 0.00 0.00 0.00 0.00 0.00 0.00 0.00 0.00 0.00 0.01 0.03 0.05 0.04 0.14 0.05 0.01 0.02 0.03 0.02 0.02 0.01 0.06 0.02 0.05 0.03 0.01 0.00 0.00 0.00 0.00 0.00 0.00 0.00 0.00 0.00 0.00 0.00 0.00
0.00 0.00 0.00 0.00 0.00 0.00 0.00 0.00 0.00 0.00 0.00 0.00 0.00 0.00 0.00 0.03 0.01 0.01 0.01 0.14 0.03 0.01 0.01 0.01 0.00 0.00 0.01 0.04 0.03 0.00 0.00 0.00 0.01 0.01 0.00 0.00 0.00 0.00 0.00 0.00 0.00 0.00 0.00 0.00
0.00 0.00 0.00 0.00 0.00 0.00 0.00 0.00 0.00 0.00 0.00 0.00 0.00 0.00 0.02 0.01 0.01 0.02 0.01 0.00 0.00 0.00 0.00 0.00 0.00 0.00 0.01 0.01 0.01 0.01 0.01 0.01 0.00 0.00 0.00 0.00 0.00 0.00 0.00 0.00 0.00 0.00 0.00 0.00
0.00 0.00 0.00 0.00 0.00 0.00 0.00 0.00 0.00 0.00 0.00 0.00 0.00 0.01 0.09 0.02 0.00 0.01 0.01 0.00 0.00 0.00 0.00 0.00 0.01 0.01 0.02 0.03 0.03 0.05 0.03 0.03 0.00 0.00 0.00 0.00 0.03 0.00 0.00 0.00 0.00 0.00 0.00 0.00
0.00 0.00 0.00 0.00 0.00 0.00 0.01 0.00 0.00 0.00 0.00 0.01 0.01 0.00 0.08 0.01 0.00 0.00 0.00 0.00 0.00 0.01 0.00 0.00 0.01 0.01 0.02 0.04 0.03 0.02 0.02 0.04 0.02 0.00 0.00 0.02 0.03 0.01 0.00 0.00 0.00 0.00 0.00 0.00
0.00 0.00 0.00 0.00 0.00 0.00 0.00 0.00 0.00 0.00 0.00 0.01 0.02 0.02 0.04 0.01 0.00 0.01 0.01 0.00 0.00 0.00 0.02 0.04 0.05 0.02 0.03 0.05 0.05 0.05 0.02 0.03 0.02 0.01 0.01 0.01 0.03 0.01 0.00 0.00 0.00 0.00 0.00 0.00
0.00 0.00 0.00 0.00 0.00 0.00 0.00 0.00 0.00 0.01 0.00 0.00 0.00 0.01 0.02 0.02 0.05 0.12 0.10 0.00 0.00 0.00 0.00 0.01 0.02 0.02 0.02 0.06 0.04 0.01 0.03 0.07 0.02 0.01 0.01 0.01 0.01 0.02 0.01 0.00 0.00 0.00 0.00 0.00
0.00 0.00 0.00 0.00 0.00 0.00 0.00 0.00 0.00 0.05 0.04 0.01 0.01 0.01 0.00 0.00 0.00 0.00 0.00 0.00 0.00 0.00 0.00 0.01 0.03 0.05 0.05 0.04 0.03 0.01 0.06 0.08 0.03 0.02 0.02 0.01 0.01 0.00 0.00 0.00 0.00 0.00 0.00 0.00
0.02 0.00 0.00 0.00 0.00 0.00 0.00 0.00 0.00 0.01 0.01 0.01 0.00 0.00 0.00 0.00 0.00 0.00 0.00 0.00 0.00 0.01 0.04 0.05 0.02 0.02 0.05 0.03 0.04 0.09 0.10 0.05 0.04 0.05 0.04 0.02 0.01 0.01 0.00 0.00 0.00 0.00 0.00 0.00
0.04 0.07 0.01 0.00 0.00 0.00 0.00 0.00 0.00 0.00 0.00 0.00 0.00 0.00 0.00 0.01 0.00 0.00 0.00 0.00 0.00 0.00 0.00 0.00 0.00 0.00 0.01 0.00 0.00 0.01 0.02 0.04 0.04 0.03 0.03 0.04 0.02 0.00 0.00 0.00 0.00 0.00 0.00 0.00
0.00 0.03 0.04 0.00 0.00 0.00 0.00 0.00 0.00 0.00 0.00 0.00 0.00 0.00 0.00 0.00 0.00 0.00 0.00 0.00 0.00 0.00 0.00 0.00 0.00 0.00 0.00 0.00 0.00 0.00 0.01 0.01 0.02 0.03 0.03 0.02 0.01 0.00 0.00 0.00 0.00 0.00 0.00 0.00
0.00 0.00 0.00 0.00 0.00 0.00 0.00 0.00 0.00 0.00 0.00 0.00 0.00 0.00 0.00 0.00 0.00 0.00 0.00 0.00 0.00 0.00 0.00 0.00 0.00 0.00 0.00 0.00 0.00 0.00 0.01 0.02 0.02 0.02 0.02 0.01 0.01 0.00 0.00 0.00 0.00 0.00 0.00 0.00
0.00 0.00 0.00 0.00 0.00 0.00 0.00 0.00 0.00 0.00 0.00 0.00 0.00 0.00 0.00 0.00 0.00 0.00 0.00 0.00 0.00 0.00 0.00 0.00 0.00 0.00 0.00 0.00 0.00 0.00 0.02 0.03 0.03 0.05 0.05 0.01 0.00 0.00 0.00 0.00 0.00 0.00 0.00 0.00
0.01 0.00 0.00 0.00 0.00 0.00 0.00 0.00 0.00 0.00 0.00 0.00 0.00 0.00 0.00 0.00 0.00 0.00 0.00 0.00 0.00 0.00 0.00 0.00 0.00 0.00 0.00 0.00 0.01 0.03 0.02 0.03 0.05 0.05 0.03 0.01 0.00 0.00 0.00 0.00 0.00 0.00 0.00 0.00
0.01 0.00 0.00 0.00 0.00 0.00 0.00 0.00 0.00 0.00 0.00 0.00 0.00 0.00 0.00 0.00 0.00 0.00 0.00 0.00 0.00 0.00 0.00 0.00 0.01 0.01 0.00 0.01 0.03 0.02 0.04 0.04 0.04 0.03 0.01 0.00 0.00 0.00 0.00 0.00 0.00 0.00 0.00 0.00
0.00 0.00 0.00 0.00 0.00 0.00 0.00 0.00 0.00 0.00 0.00 0.00 0.00 0.00 0.00 0.00 0.00 0.00 0.00 0.00 0.00 0.00 0.00 0.00 0.00 0.01 0.00 0.01 0.01 0.01 0.02 0.02 0.01 0.00 0.00 0.00 0.00 0.00 0.00 0.00 0.00 0.00 0.00 0.00
0.00 0.00 0.00 0.00 0.00 0.00 0.00 0.00 0.00 0.00 0.00 0.00 0.00 0.00 0.00 0.00 0.00 0.00 0.00 0.00 0.00 0.00 0.00 0.00 0.00 0.00 0.00 0.01 0.00 0.01 0.00 0.00 0.00 0.00 0.00 0.00 0.00 0.00 0.00 0.00 0.00 0.00 0.00 0.01
0.02 0.01 0.00 0.00 0.00 0.00 0.00 0.00 0.00 0.00 0.00 0.00 0.00 0.00 0.00 0.00 0.00 0.00 0.00 0.00 0.00 0.00 0.00 0.00 0.00 0.00 0.00 0.00 0.00 0.00 0.00 0.00 0.00 0.00 0.00 0.00 0.00 0.00 0.00 0.00 0.01 0.02 0.03 0.03
0.08 0.02 0.00 0.00 0.00 0.00 0.00 0.00 0.00 0.00 0.00 0.00 0.00 0.00 0.00 0.00 0.00 0.00 0.00 0.00 0.00 0.00 0.00 0.00 0.00 0.00 0.00 0.00 0.00 0.00 0.00 0.00 0.00 0.00 0.00 0.00 0.00 0.00 0.01 0.03 0.05 0.08 0.06 0.02
0.01 0.03 0.01 0.00 0.00 0.00 0.00 0.00 0.00 0.00 0.00 0.00 0.00 0.00 0.00 0.00 0.00 0.00 0.00 0.00 0.00 0.00 0.00 0.00 0.00 0.00 0.00 0.00 0.00 0.00 0.00 0.00 0.00 0.00 0.00 0.00 0.01 0.03 0.08 0.14 0.12 0.05 0.01 0.00
0.00 0.00 0.00 0.00 0.00 0.00 0.00 0.00 0.00 0.00 0.00 0.00 0.00 0.00 0.00 0.00 0.00 0.00 0.00 0.00 0.00 0.00 0.00 0.00 0.00 0.00 0.00 0.00 0.00 0.00 0.00 0.00 0.00 0.00 0.01 0.03 0.08 0.13 0.13 0.09 0.03 0.01 0.00 0.00
0.00 0.00 0.00 0.00 0.00 0.00 0.00 0.00 0.00 0.00 0.00 0.00 0.00 0.00 0.00 0.00 0.00 0.00 0.00 0.00 0.00 0.00 0.00 0.00 0.00 0.00 0.00 0.00 0.00 0.01 0.00 0.00 0.00 0.03 0.07 0.12 0.14 0.10 0.05 0.01 0.00 0.00 0.00 0.00
0.00 0.00 0.00 0.00 0.00 0.00 0.00 0.00 0.00 0.00 0.00 0.00 0.00 0.00 0.00 0.00 0.00 0.00 0.00 0.00 0.00 0.00 0.00 0.00 0.00 0.00 0.00 0.00 0.00 0.01 0.02 0.04 0.04 0.06 0.08 0.08 0.04 0.01 0.00 0.00 0.00 0.00 0.00 0.00
0.00 0.00 0.00 0.00 0.00 0.00 0.00 0.00 0.00 0.00 0.00 0.00 0.00 0.00 0.00 0.00 0.00 0.00 0.00 0.00 0.00 0.00 0.00 0.00 0.00 0.00 0.02 0.04 0.05 0.05 0.04 0.03 0.02 0.02 0.01 0.00 0.00 0.00 0.00 0.00 0.00 0.00 0.00 0.00
0.00 0.00 0.00 0.00 0.00 0.00 0.00 0.00 0.00 0.00 0.00 0.00 0.00 0.00 0.00 0.00 0.00 0.00 0.00 0.00 0.00 0.01 0.03 0.02 0.03 0.05 0.05 0.02 0.01 0.01 0.02 0.01 0.01 0.00 0.00 0.00 0.00 0.00 0.00 0.00 0.00 0.00 0.00 0.00
0.00 0.00 0.00 0.00 0.00 0.00 0.00 0.00 0.00 0.00 0.00 0.00 0.00 0.00 0.00 0.00 0.00 0.00 0.00 0.00 0.03 0.05 0.02 0.03 0.03 0.02 0.02 0.01 0.01 0.00 0.00 0.00 0.00 0.00 0.00 0.00 0.00 0.00 0.00 0.00 0.00 0.00 0.00 0.00

GFSCGP_prec_precacc24_027.txt.gz
Total_Precipitation_Accumulation
0.00 0.00 0.00 0.00 0.00 0.00 0.00 0.00 0.00 0.00 0.00 0.00 0.00 0.00 0.00 0.01 0.03 0.05 0.04 0.14 0.05 0.00 0.01 0.01 0.00 0.00 0.01 0.05 0.02 0.02 0.01 0.00 0.00 0.00 0.01 0.04 0.03 0.03 0.03 0.01 0.00 0.00 0.00 0.00
0.00 0.00 0.00 0.00 0.00 0.00 0.00 0.00 0.00 0.00 0.00 0.00 0.00 0.00 0.01 0.03 0.01 0.01 0.01 0.14 0.03 0.01 0.00 0.00 0.00 0.00 0.00 0.02 0.02 0.00 0.00 0.00 0.01 0.01 0.00 0.01 0.02 0.04 0.05 0.02 0.00 0.00 0.00 0.00
0.00 0.00 0.00 0.00 0.00 0.00 0.00 0.00 0.00 0.00 0.00 0.00 0.00 0.00 0.02 0.01 0.01 0.02 0.01 0.00 0.00 0.00 0.00 0.00 0.00 0.00 0.00 0.01 0.01 0.01 0.01 0.01 0.00 0.00 0.00 0.00 0.07 0.04 0.01 0.01 0.00 0.00 0.00 0.00
0.00 0.00 0.00 0.00 0.00 0.00 0.00 0.00 0.00 0.00 0.00 0.00 0.00 0.01 0.09 0.02 0.00 0.01 0.01 0.00 0.00 0.00 0.00 0.00 0.01 0.01 0.02 0.03 0.03 0.05 0.03 0.03 0.00 0.00 0.00 0.00 0.05 0.02 0.00 0.00 0.00 0.00 0.00 0.00
0.00 0.00 0.00 0.00 0.00 0.00 0.01 0.00 0.00 0.00 0.00 0.01 0.01 0.00 0.08 0.01 0.00 0.00 0.00 0.00 0.00 0.01 0.00 0.00 0.01 0.01 0.02 0.04 0.04 0.02 0.02 0.04 0.02 0.01 0.01 0.02 0.05 0.04 0.01 0.00 0.00 0.00 0.00 0.00
0.00 0.00 0.00 0.00 0.00 0.00 0.00 0.00 0.00 0.00 0.00 0.01 0.02 0.02 0.04 0.01 0.00 0.01 0.01 0.00 0.00 0.00 0.02 0.04 0.05 0.02 0.03 0.05 0.05 0.06 0.04 0.04 0.07 0.08 0.07 0.04 0.05 0.04 0.02 0.01 0.01 0.00 0.00 0.00
0.00 0.00 0.00 0.00 0.00 0.00 0.00 0.00 0.00 0.01 0.00 0.00 0.00 0.01 0.02 0.02 0.05 0.12 0.10 0.00 0.00 0.00 0.00 0.01 0.02 0.02 0.02 0.06 0.04 0.03 0.06 0.14 0.12 0.09 0.08 0.08 0.05 0.05 0.05 0.04 0.03 0.02 0.02 0.01
0.00 0.00 0.00 0.00 0.00 0.00 0.00 0.00 0.00 0.05 0.04 0.01 0.01 0.01 0.00 0.00 0.00 0.00 0.00 0.00 0.00 0.00 0.00 0.01 0.03 0.05 0.06 0.04 0.03 0.02 0.08 0.19 0.21 0.16 0.13 0.13 0.14 0.12 0.09 0.06 0.03 0.02 0.02 0.01
0.02 0.00 0.00 0.00 0.00 0.00 0.00 0.00 0.00 0.01 0.01 0.01 0.00 0.00 0.00 0.00 0.00 0.00 0.00 0.00 0.00 0.01 0.04 0.05 0.02 0.03 0.06 0.05 0.05 0.09 0.10 0.09 0.14 0.16 0.15 0.16 0.16 0.15 0.13 0.10 0.07 0.05 0.02 0.01
0.04 0.07 0.01 0.00 0.00 0.00 0.00 0.00 0.00 0.00 0.00 0.00 0.00 0.00 0.00 0.01 0.00 0.00 0.00 0.00 0.00 0.00 0.00 0.00 0.00 0.00 0.01 0.00 0.04 0.06 0.03 0.04 0.05 0.07 0.14 0.21 0.22 0.19 0.15 0.08 0.05 0.03 0.01 0.01
0.00 0.03 0.04 0.00 0.00 0.00 0.00 0.00 0.00 0.00 0.00 0.00 0.00 0.00 0.00 0.00 0.00 0.00 0.00 0.00 0.00 0.00 0.00 0.00 0.00 0.00 0.00 0.00 0.00 0.04 0.02 0.02 0.06 0.14 0.23 0.21 0.20 0.13 0.09 0.07 0.04 0.02 0.01 0.01
0.00 0.00 0.00 0.00 0.00 0.00 0.00 0.00 0.00 0.00 0.00 0.00 0.00 0.00 0.00 0.00 0.00 0.00 0.00 0.00 0.00 0.00 0.00 0.00 0.00 0.00 0.00 0.00 0.00 0.01 0.03 0.06 0.15 0.10 0.12 0.16 0.15 0.10 0.08 0.06 0.04 0.02 0.01 0.00
0.00 0.00 0.00 0.00 0.00 0.00 0.00 0.00 0.00 0.00 0.00 0.00 0.00 0.00 0.00 0.00 0.00 0.00 0.00 0.00 0.00 0.00 0.00 0.00 0.00 0.00 0.00 0.00 0.04 0.09 0.10 0.10 0.08 0.13 0.13 0.10 0.09 0.09 0.07 0.04 0.02 0.00 0.00 0.00
0.01 0.00 0.00 0.00 0.00 0.00 0.00 0.00 0.00 0.00 0.00 0.00 0.00 0.00 0.00 0.00 0.00 0.00 0.00 0.00 0.00 0.00 0.00 0.00 0.00 0.00 0.00 0.05 0.10 0.09 0.07 0.05 0.09 0.13 0.10 0.09 0.07 0.05 0.02 0.01 0.00 0.00 0.00 0.00
0.01 0.00 0.00 0.00 0.00 0.00 0.00 0.00 0.00 0.00 0.00 0.00 0.00 0.00 0.00 0.00 0.00 0.00 0.00 0.00 0.00 0.00 0.00 0.00 0.01 0.01 0.01 0.05 0.06 0.04 0.05 0.05 0.06 0.06 0.04 0.03 0.02 0.01 0.00 0.00 0.00 0.00 0.00 0.00
0.00 0.00 0.00 0.00 0.00 0.00 0.00 0.00 0.00 0.00 0.00 0.00 0.00 0.00 0.00 0.00 0.00 0.00 0.00 0.00 0.00 0.00 0.00 0.00 0.00 0.01 0.01 0.01 0.01 0.01 0.02 0.02 0.01 0.01 0.01 0.00 0.00 0.00 0.00 0.00 0.00 0.00 0.00 0.00
0.00 0.00 0.00 0.00 0.00 0.00 0.00 0.00 0.00 0.00 0.00 0.00 0.00 0.00 0.00 0.00 0.00 0.00 0.00 0.00 0.00 0.00 0.00 0.00 0.00 0.00 0.00 0.01 0.00 0.01 0.00 0.00 0.00 0.00 0.00 0.00 0.00 0.00 0.00 0.00 0.00 0.00 0.00 0.01
0.02 0.01 0.00 0.00 0.00 0.00 0.00 0.00 0.00 0.00 0.00 0.00 0.00 0.00 0.00 0.00 0.00 0.00 0.00 0.00 0.00 0.00 0.00 0.00 0.00 0.00 0.00 0.00 0.00 0.00 0.00 0.00 0.00 0.00 0.00 0.00 0.00 0.00 0.01 0.01 0.01 0.02 0.05 0.11
0.08 0.02 0.00 0.00 0.00 0.00 0.00 0.00 0.00 0.00 0.00 0.00 0.00 0.00 0.00 0.00 0.00 0.00 0.00 0.00 0.00 0.00 0.00 0.00 0.00 0.00 0.00 0.00 0.00 0.00 0.00 0.00 0.00 0.00 0.00 0.00 0.01 0.01 0.01 0.03 0.09 0.16 0.21 0.18
0.01 0.03 0.01 0.00 0.00 0.00 0.00 0.00 0.00 0.00 0.00 0.00 0.00 0.00 0.00 0.00 0.00 0.00 0.00 0.00 0.00 0.00 0.00 0.00 0.00 0.00 0.00 0.00 0.00 0.00 0.00 0.00 0.00 0.00 0.00 0.00 0.01 0.03 0.09 0.18 0.21 0.15 0.07 0.03
0.00 0.00 0.00 0.00 0.00 0.00 0.00 0.00 0.00 0.00 0.00 0.00 0.00 0.00 0.00 0.00 0.00 0.00 0.00 0.00 0.00 0.00 0.00 0.00 0.00 0.00 0.00 0.00 0.00 0.00 0.00 0.00 0.00 0.00 0.01 0.03 0.08 0.14 0.16 0.13 0.06 0.03 0.02 0.02
0.00 0.00 0.00 0.00 0.00 0.00 0.00 0.00 0.00 0.00 0.00 0.00 0.00 0.00 0.00 0.00 0.00 0.00 0.00 0.00 0.00 0.00 0.00 0.00 0.00 0.00 0.00 0.00 0.00 0.01 0.00 0.00 0.00 0.03 0.07 0.12 0.15 0.12 0.07 0.02 0.00 0.00 0.00 0.00
0.00 0.00 0.00 0.00 0.00 0.00 0.00 0.00 0.00 0.00 0.00 0.00 0.00 0.00 0.00 0.00 0.00 0.00 0.00 0.00 0.00 0.00 0.00 0.00 0.00 0.00 0.00 0.00 0.00 0.01 0.02 0.04 0.04 0.06 0.08 0.08 0.04 0.01 0.00 0.00 0.00 0.00 0.00 0.00
0.00 0.00 0.00 0.00 0.00 0.00 0.00 0.00 0.00 0.00 0.00 0.00 0.00 0.00 0.00 0.00 0.00 0.00 0.00 0.00 0.00 0.00 0.00 0.00 0.00 0.00 0.02 0.04 0.05 0.05 0.04 0.03 0.02 0.02 0.01 0.00 0.00 0.00 0.00 0.00 0.00 0.00 0.00 0.00
0.00 0.00 0.00 0.00 0.00 0.00 0.00 0.00 0.00 0.00 0.00 0.00 0.00 0.00 0.00 0.00 0.00 0.00 0.00 0.00 0.00 0.00 0.01 0.02 0.03 0.05 0.05 0.02 0.01 0.01 0.02 0.01 0.01 0.00 0.00 0.00 0.00 0.00 0.00 0.00 0.00 0.00 0.00 0.00
0.00 0.00 0.00 0.00 0.00 0.00 0.00 0.00 0.00 0.00 0.00 0.00 0.00 0.00 0.00 0.00 0.00 0.00 0.00 0.00 0.00 0.00 0.02 0.03 0.03 0.02 0.02 0.01 0.01 0.00 0.00 0.00 0.00 0.00 0.00 0.00 0.00 0.00 0.00 0.00 0.00 0.00 0.00 0.00

GFSCGP_prec_precacc24_030.txt.gz
Total_Precipitation_Accumulation
0.00 0.00 0.00 0.00 0.00 0.00 0.00 0.00 0.00 0.00 0.00 0.00 0.00 0.00 0.00 0.01 0.03 0.05 0.04 0.14 0.05 0.00 0.01 0.01 0.00 0.00 0.01 0.05 0.01 0.00 0.00 0.00 0.00 0.00 0.01 0.04 0.03 0.03 0.04 0.03 0.00 0.00 0.00 0.00
0.00 0.00 0.00 0.00 0.00 0.00 0.00 0.00 0.00 0.00 0.00 0.00 0.00 0.00 0.01 0.03 0.01 0.01 0.01 0.14 0.03 0.01 0.00 0.00 0.00 0.00 0.00 0.02 0.01 0.00 0.00 0.00 0.01 0.01 0.00 0.01 0.02 0.04 0.07 0.05 0.02 0.01 0.00 0.00
0.00 0.00 0.00 0.00 0.00 0.00 0.00 0.00 0.00 0.00 0.00 0.00 0.00 0.00 0.02 0.01 0.01 0.02 0.01 0.00 0.00 0.00 0.00 0.00 0.00 0.00 0.00 0.01 0.01 0.01 0.01 0.01 0.00 0.00 0.00 0.00 0.07 0.05 0.06 0.11 0.06 0.01 0.00 0.00
0.00 0.00 0.00 0.00 0.00 0.00 0.00 0.00 0.00 0.00 0.00 0.00 0.00 0.01 0.09 0.02 0.00 0.01 0.01 0.00 0.00 0.00 0.00 0.00 0.01 0.01 0.02 0.03 0.03 0.05 0.03 0.03 0.00 0.00 0.00 0.00 0.05 0.05 0.09 0.09 0.03 0.00 0.00 0.00
0.00 0.00 0.00 0.00 0.00 0.00 0.01 0.00 0.00 0.00 0.00 0.01 0.01 0.00 0.08 0.01 0.00 0.00 0.00 0.00 0.00 0.01 0.00 0.00 0.01 0.01 0.02 0.04 0.04 0.02 0.02 0.04 0.02 0.01 0.01 0.02 0.05 0.07 0.05 0.02 0.01 0.00 0.00 0.00
0.00 0.00 0.00 0.00 0.00 0.00 0.00 0.00 0.00 0.00 0.00 0.01 0.02 0.02 0.04 0.01 0.00 0.01 0.01 0.00 0.00 0.00 0.02 0.04 0.05 0.02 0.03 0.05 0.05 0.06 0.04 0.04 0.07 0.08 0.07 0.04 0.06 0.06 0.03 0.02 0.02 0.01 0.01 0.01
0.00 0.00 0.00 0.00 0.00 0.00 0.00 0.00 0.00 0.01 0.00 0.00 0.00 0.01 0.02 0.02 0.05 0.12 0.10 0.00 0.00 0.00 0.00 0.01 0.02 0.02 0.02 0.06 0.04 0.03 0.06 0.14 0.12 0.09 0.08 0.09 0.07 0.06 0.06 0.07 0.07 0.05 0.03 0.03
0.00 0.00 0.00 0.00 0.00 0.00 0.00 0.00 0.00 0.05 0.04 0.01 0.01 0.01 0.00 0.00 0.00 0.00 0.00 0.00 0.00 0.00 0.00 0.01 0.03 0.05 0.06 0.04 0.03 0.02 0.08 0.19 0.21 0.16 0.13 0.16 0.18 0.20 0.17 0.16 0.12 0.08 0.06 0.04
0.02 0.00 0.00 0.00 0.00 0.00 0.00 0.00 0.00 0.01 0.01 0.01 0.00 0.00 0.00 0.00 0.00 0.00 0.00 0.00 0.00 0.01 0.04 0.05 0.02 0.03 0.06 0.05 0.05 0.09 0.10 0.09 0.14 0.16 0.16 0.20 0.21 0.20 0.21 0.16 0.11 0.07 0.04 0.02
0.04 0.07 0.01 0.00 0.00 0.00 0.00 0.00 0.00 0.00 0.00 0.00 0.00 0.00 0.00 0.01 0.00 0.00 0.00 0.00 0.00 0.00 0.00 0.00 0.00 0.00 0.01 0.00 0.04 0.06 0.03 0.04 0.05 0.07 0.14 0.23 0.28 0.29 0.24 0.15 0.10 0.05 0.03 0.01
0.00 0.03 0.04 0.00 0.00 0.00 0.00 0.00 0.00 0.00 0.00 0.00 0.00 0.00 0.00 0.00 0.00 0.00 0.00 0.00 0.00 0.00 0.00 0.00 0.00 0.00 0.00 0.00 0.00 0.04 0.02 0.02 0.06 0.14 0.24 0.24 0.29 0.25 0.18 0.15 0.11 0.06 0.02 0.02
0.00 0.00 0.00 0.00 0.00 0.00 0.00 0.00 0.00 0.00 0.00 0.00 0.00 0.00 0.00 0.00 0.00 0.00 0.00 0.00 0.00 0.00 0.00 0.00 0.00 0.00 0.00 0.00 0.00 0.01 0.03 0.06 0.15 0.10 0.13 0.18 0.19 0.17 0.14 0.12 0.09 0.06 0.04 0.04
0.00 0.00 0.00 0.00 0.00 0.00 0.00 0.00 0.00 0.00 0.00 0.00 0.00 0.00 0.00 0.00 0.00 0.00 0.00 0.00 0.00 0.00 0.00 0.00 0.00 0.00 0.00 0.00 0.04 0.09 0.10 0.10 0.08 0.14 0.13 0.11 0.11 0.11 0.09 0.07 0.04 0.02 0.02 0.02
0.01 0.00 0.00 0.00 0.00 0.00 0.00 0.00 0.00 0.00 0.00 0.00 0.00 0.00 0.00 0.00 0.00 0.00 0.00 0.00 0.00 0.00 0.00 0.00 0.00 0.00 0.00 0.05 0.10 0.09 0.07 0.06 0.10 0.14 0.12 0.11 0.11 0.07 0.06 0.03 0.01 0.00 0.00 0.00
0.01 0.00 0.00 0.00 0.00 0.00 0.00 0.00 0.00 0.00 0.00 0.00 0.00 0.00 0.00 0.00 0.00 0.00 0.00 0.00 0.00 0.00 0.00 0.00 0.01 0.01 0.01 0.05 0.06 0.04 0.06 0.06 0.08 0.06 0.04 0.03 0.02 0.01 0.00 0.00 0.00 0.00 0.00 0.00
0.00 0.00 0.00 0.00 0.00 0.00 0.00 0.00 0.00 0.00 0.00 0.00 0.00 0.00 0.00 0.00 0.00 0.00 0.00 0.00 0.00 0.00 0.00 0.00 0.00 0.01 0.01 0.01 0.01 0.02 0.02 0.02 0.01 0.01 0.01 0.00 0.00 0.00 0.00 0.00 0.00 0.00 0.00 0.00
0.00 0.00 0.00 0.00 0.00 0.00 0.00 0.00 0.00 0.00 0.00 0.00 0.00 0.00 0.00 0.00 0.00 0.00 0.00 0.00 0.00 0.00 0.00 0.00 0.00 0.00 0.00 0.01 0.00 0.01 0.00 0.00 0.00 0.00 0.00 0.00 0.00 0.00 0.00 0.00 0.00 0.00 0.00 0.01
0.02 0.01 0.00 0.00 0.00 0.00 0.00 0.00 0.00 0.00 0.00 0.00 0.00 0.00 0.00 0.00 0.00 0.00 0.00 0.00 0.00 0.00 0.00 0.00 0.00 0.00 0.00 0.00 0.00 0.00 0.00 0.00 0.00 0.00 0.00 0.00 0.00 0.00 0.01 0.01 0.01 0.02 0.05 0.11
0.08 0.02 0.00 0.00 0.00 0.00 0.00 0.00 0.00 0.00 0.00 0.00 0.00 0.00 0.00 0.00 0.00 0.00 0.00 0.00 0.00 0.00 0.00 0.00 0.00 0.00 0.00 0.00 0.00 0.00 0.00 0.00 0.00 0.00 0.00 0.00 0.01 0.01 0.01 0.03 0.09 0.17 0.21 0.18
0.01 0.03 0.01 0.00 0.00 0.00 0.00 0.00 0.00 0.00 0.00 0.00 0.00 0.00 0.00 0.00 0.00 0.00 0.00 0.00 0.00 0.00 0.00 0.00 0.00 0.00 0.00 0.00 0.00 0.00 0.00 0.00 0.00 0.00 0.00 0.00 0.01 0.03 0.09 0.18 0.21 0.15 0.07 0.03
0.00 0.00 0.00 0.00 0.00 0.00 0.00 0.00 0.00 0.00 0.00 0.00 0.00 0.00 0.00 0.00 0.00 0.00 0.00 0.00 0.00 0.00 0.00 0.00 0.00 0.00 0.00 0.00 0.00 0.00 0.00 0.00 0.00 0.00 0.01 0.03 0.08 0.14 0.16 0.13 0.06 0.03 0.02 0.02
0.00 0.00 0.00 0.00 0.00 0.00 0.00 0.00 0.00 0.00 0.00 0.00 0.00 0.00 0.00 0.00 0.00 0.00 0.00 0.00 0.00 0.00 0.00 0.00 0.00 0.00 0.00 0.00 0.00 0.01 0.00 0.00 0.00 0.03 0.07 0.12 0.15 0.12 0.07 0.02 0.00 0.00 0.00 0.00
0.00 0.00 0.00 0.00 0.00 0.00 0.00 0.00 0.00 0.00 0.00 0.00 0.00 0.00 0.00 0.00 0.00 0.00 0.00 0.00 0.00 0.00 0.00 0.00 0.00 0.00 0.00 0.00 0.00 0.01 0.02 0.04 0.04 0.06 0.08 0.08 0.04 0.01 0.00 0.00 0.00 0.00 0.00 0.00
0.00 0.00 0.00 0.00 0.00 0.00 0.00 0.00 0.00 0.00 0.00 0.00 0.00 0.00 0.00 0.00 0.00 0.00 0.00 0.00 0.00 0.00 0.00 0.00 0.00 0.00 0.01 0.03 0.05 0.05 0.04 0.03 0.02 0.02 0.01 0.00 0.00 0.00 0.00 0.00 0.00 0.00 0.00 0.00
0.00 0.00 0.00 0.00 0.00 0.00 0.00 0.00 0.00 0.00 0.00 0.00 0.00 0.00 0.00 0.00 0.00 0.00 0.00 0.00 0.00 0.00 0.00 0.00 0.01 0.03 0.04 0.02 0.01 0.01 0.02 0.01 0.01 0.00 0.00 0.00 0.00 0.00 0.00 0.00 0.00 0.00 0.00 0.00
0.00 0.00 0.00 0.00 0.00 0.00 0.00 0.00 0.00 0.00 0.00 0.00 0.00 0.00 0.00 0.00 0.00 0.00 0.00 0.00 0.00 0.00 0.00 0.01 0.02 0.01 0.01 0.01 0.01 0.00 0.00 0.00 0.00 0.00 0.00 0.00 0.00 0.00 0.00 0.00 0.00 0.00 0.00 0.00

GFSCGP_prec_precacc24_036.txt.gz
Total_Precipitation_Accumulation
0.00 0.00 0.00 0.00 0.00 0.00 0.00 0.00 0.00 0.00 0.00 0.00 0.00 0.01 0.10 0.15 0.03 0.05 0.04 0.14 0.05 0.00 0.01 0.01 0.00 0.00 0.01 0.05 0.01 0.00 0.00 0.00 0.03 0.04 0.01 0.04 0.03 0.03 0.08 0.17 0.05 0.20 0.07 0.02
0.00 0.00 0.00 0.00 0.00 0.00 0.00 0.00 0.00 0.00 0.00 0.00 0.00 0.00 0.02 0.06 0.01 0.01 0.01 0.14 0.03 0.01 0.00 0.00 0.00 0.00 0.00 0.02 0.01 0.00 0.00 0.00 0.01 0.01 0.00 0.01 0.02 0.04 0.10 0.14 0.09 0.16 0.11 0.00
0.00 0.00 0.00 0.00 0.00 0.00 0.00 0.00 0.00 0.00 0.00 0.00 0.00 0.00 0.02 0.01 0.01 0.02 0.01 0.00 0.00 0.00 0.00 0.00 0.00 0.00 0.00 0.00 0.00 0.00 0.00 0.01 0.00 0.00 0.00 0.00 0.07 0.05 0.07 0.12 0.09 0.06 0.05 0.01
0.00 0.00 0.00 0.00 0.00 0.00 0.00 0.00 0.00 0.00 0.00 0.00 0.00 0.00 0.01 0.02 0.00 0.01 0.01 0.00 0.00 0.00 0.00 0.00 0.01 0.00 0.00 0.01 0.03 0.04 0.03 0.03 0.00 0.00 0.00 0.00 0.05 0.05 0.09 0.10 0.04 0.00 0.01 0.01
0.00 0.00 0.00 0.00 0.00 0.00 0.00 0.00 0.00 0.00 0.00 0.00 0.00 0.00 0.00 0.00 0.00 0.00 0.00 0.00 0.00 0.01 0.00 0.00 0.01 0.00 0.01 0.03 0.04 0.02 0.02 0.04 0.02 0.01 0.01 0.02 0.05 0.07 0.05 0.02 0.01 0.00 0.00 0.00
0.00 0.00 0.00 0.00 0.00 0.00 0.00 0.00 0.00 0.00 0.00 0.00 0.00 0.00 0.00 0.00 0.00 0.00 0.01 0.00 0.00 0.00 0.02 0.04 0.05 0.02 0.03 0.05 0.05 0.06 0.04 0.04 0.07 0.08 0.07 0.04 0.06 0.06 0.03 0.03 0.04 0.01 0.01 0.03
0.00 0.00 0.00 0.00 0.00 0.00 0.00 0.00 0.00 0.01 0.00 0.00 0.00 0.01 0.00 0.01 0.00 0.00 0.03 0.01 0.02 0.00 0.00 0.01 0.02 0.02 0.02 0.06 0.04 0.03 0.06 0.14 0.12 0.09 0.08 0.09 0.07 0.06 0.06 0.09 0.15 0.09 0.07 0.05
0.00 0.00 0.00 0.00 0.00 0.00 0.00 0.00 0.00 0.02 0.03 0.04 0.02 0.01 0.00 0.00 0.00 0.00 0.00 0.00 0.00 0.00 0.00 0.01 0.03 0.05 0.06 0.04 0.03 0.02 0.08 0.19 0.21 0.16 0.13 0.16 0.18 0.20 0.22 0.25 0.29 0.23 0.19 0.18
0.00 0.00 0.00 0.00 0.00 0.00 0.00 0.00 0.00 0.00 0.01 0.04 0.05 0.00 0.00 0.00 0.00 0.00 0.00 0.00 0.00 0.01 0.04 0.05 0.02 0.03 0.06 0.05 0.05 0.09 0.10 0.09 0.14 0.16 0.16 0.21 0.28 0.31 0.42 0.39 0.25 0.21 0.09 0.03
0.00 0.03 0.01 0.00 0.00 0.00 0.00 0.00 0.00 0.00 0.02 0.04 0.00 0.00 0.00 0.01 0.00 0.00 0.00 0.00 0.00 0.00 0.00 0.00 0.00 0.00 0.01 0.00 0.04 0.06 0.03 0.04 0.05 0.07 0.15 0.27 0.41 0.41 0.37 0.28 0.32 0.20 0.09 0.03
0.00 0.03 0.04 0.00 0.00 0.00 0.00 0.00 0.00 0.00 0.00 0.01 0.01 0.00 0.00 0.00 0.00 0.00 0.00 0.00 0.00 0.00 0.00 0.00 0.00 0.00 0.00 0.00 0.00 0.04 0.02 0.02 0.06 0.15 0.29 0.31 0.40 0.50 0.38 0.26 0.25 0.19 0.10 0.07
0.00 0.00 0.00 0.00 0.00 0.00 0.00 0.00 0.00 0.00 0.00 0.00 0.00 0.00 0.00 0.00 0.00 0.00 0.00 0.00 0.00 0.00 0.00 0.00 0.00 0.00 0.00 0.00 0.00 0.01 0.03 0.06 0.15 0.11 0.25 0.45 0.31 0.41 0.34 0.34 0.18 0.14 0.09 0.07
0.00 0.00 0.00 0.00 0.00 0.00 0.00 0.00 0.00 0.00 0.00 0.00 0.03 0.00 0.00 0.00 0.00 0.00 0.00 0.00 0.00 0.00 0.00 0.00 0.00 0.00 0.00 0.00 0.04 0.09 0.10 0.11 0.09 0.15 0.23 0.27 0.16 0.39 0.22 0.18 0.14 0.09 0.04 0.02
0.01 0.00 0.00 0.00 0.00 0.00 0.00 0.00 0.00 0.00 0.00 0.00 0.00 0.00 0.00 0.00 0.00 0.00 0.00 0.00 0.00 0.00 0.00 0.00 0.00 0.00 0.00 0.05 0.10 0.09 0.07 0.07 0.11 0.17 0.20 0.14 0.18 0.19 0.11 0.06 0.03 0.01 0.00 0.00
0.01 0.00 0.00 0.00 0.00 0.00 0.00 0.00 0.00 0.00 0.00 0.00 0.00 0.00 0.00 0.00 0.00 0.00 0.00 0.00 0.00 0.00 0.00 0.00 0.01 0.01 0.01 0.05 0.06 0.04 0.06 0.08 0.14 0.13 0.09 0.06 0.10 0.03 0.01 0.01 0.00 0.00 0.00 0.00
0.00 0.00 0.00 0.00 0.00 0.00 0.00 0.00 0.00 0.00 0.00 0.00 0.00 0.00 0.00 0.00 0.00 0.00 0.00 0.00 0.00 0.00 0.00 0.00 0.00 0.01 0.01 0.01 0.01 0.02 0.03 0.05 0.04 0.03 0.02 0.01 0.01 0.00 0.00 0.00 0.00 0.00 0.00 0.00
0.00 0.00 0.00 0.00 0.00 0.00 0.00 0.00 0.00 0.00 0.00 0.00 0.00 0.00 0.00 0.00 0.00 0.00 0.00 0.00 0.00 0.00 0.00 0.00 0.00 0.00 0.00 0.01 0.00 0.01 0.01 0.01 0.01 0.01 0.00 0.00 0.00 0.00 0.00 0.00 0.00 0.00 0.00 0.01
0.02 0.01 0.00 0.00 0.00 0.00 0.00 0.00 0.00 0.00 0.00 0.00 0.00 0.00 0.00 0.00 0.00 0.00 0.00 0.00 0.00 0.00 0.00 0.00 0.00 0.00 0.00 0.00 0.00 0.00 0.00 0.00 0.00 0.00 0.00 0.00 0.00 0.00 0.01 0.01 0.01 0.02 0.05 0.11
0.08 0.05 0.02 0.02 0.01 0.00 0.00 0.00 0.00 0.00 0.00 0.00 0.00 0.00 0.00 0.00 0.00 0.00 0.00 0.00 0.00 0.00 0.00 0.00 0.00 0.00 0.00 0.00 0.00 0.00 0.00 0.00 0.00 0.00 0.00 0.00 0.01 0.01 0.01 0.03 0.09 0.17 0.21 0.18
0.02 0.06 0.09 0.02 0.01 0.00 0.00 0.00 0.00 0.00 0.00 0.00 0.00 0.00 0.00 0.00 0.00 0.00 0.00 0.00 0.00 0.00 0.00 0.00 0.00 0.00 0.00 0.00 0.00 0.00 0.00 0.00 0.00 0.00 0.00 0.00 0.00 0.03 0.09 0.18 0.21 0.15 0.07 0.03
0.07 0.02 0.04 0.04 0.02 0.00 0.00 0.00 0.00 0.00 0.00 0.00 0.00 0.00 0.00 0.00 0.00 0.00 0.00 0.00 0.00 0.00 0.00 0.00 0.00 0.00 0.00 0.00 0.00 0.00 0.00 0.00 0.00 0.00 0.00 0.02 0.07 0.14 0.16 0.13 0.06 0.03 0.02 0.02
0.13 0.10 0.04 0.05 0.04 0.00 0.00 0.00 0.00 0.00 0.00 0.00 0.00 0.00 0.00 0.00 0.00 0.00 0.00 0.00 0.00 0.00 0.00 0.00 0.00 0.00 0.00 0.00 0.00 0.00 0.00 0.00 0.00 0.01 0.04 0.11 0.15 0.12 0.07 0.02 0.00 0.00 0.00 0.00
0.04 0.12 0.09 0.02 0.00 0.00 0.00 0.00 0.00 0.00 0.00 0.00 0.00 0.00 0.00 0.00 0.00 0.00 0.00 0.00 0.00 0.00 0.00 0.00 0.00 0.00 0.00 0.00 0.00 0.00 0.00 0.00 0.01 0.05 0.08 0.08 0.04 0.01 0.00 0.00 0.00 0.00 0.00 0.00
0.00 0.01 0.03 0.04 0.01 0.01 0.00 0.00 0.00 0.00 0.00 0.00 0.00 0.00 0.00 0.00 0.00 0.00 0.00 0.00 0.00 0.00 0.00 0.00 0.00 0.00 0.00 0.00 0.00 0.00 0.00 0.01 0.01 0.01 0.01 0.00 0.00 0.00 0.00 0.00 0.00 0.00 0.00 0.00
0.00 0.03 0.00 0.00 0.00 0.02 0.01 0.01 0.00 0.00 0.00 0.00 0.00 0.00 0.00 0.00 0.00 0.00 0.00 0.00 0.00 0.00 0.00 0.00 0.00 0.00 0.00 0.00 0.00 0.00 0.00 0.00 0.00 0.00 0.00 0.00 0.00 0.00 0.00 0.00 0.00 0.00 0.00 0.00
0.00 0.00 0.00 0.00 0.00 0.00 0.00 0.01 0.01 0.01 0.01 0.00 0.00 0.00 0.00 0.00 0.00 0.00 0.00 0.00 0.00 0.00 0.00 0.00 0.00 0.00 0.00 0.00 0.00 0.00 0.00 0.00 0.00 0.00 0.00 0.00 0.00 0.00 0.00 0.00 0.00 0.00 0.00 0.00

GFSCGP_prec_precacc24_039.txt.gz
Total_Precipitation_Accumulation
0.00 0.00 0.00 0.00 0.00 0.00 0.00 0.00 0.00 0.00 0.00 0.00 0.00 0.02 0.10 0.15 0.03 0.02 0.00 0.00 0.00 0.00 0.00 0.00 0.00 0.00 0.00 0.00 0.00 0.00 0.00 0.00 0.02 0.04 0.01 0.04 0.03 0.03 0.08 0.17 0.06 0.23 0.10 0.10
0.00 0.00 0.00 0.00 0.00 0.00 0.00 0.00 0.00 0.00 0.00 0.00 0.00 0.00 0.02 0.07 0.01 0.01 0.00 0.00 0.00 0.00 0.00 0.00 0.00 0.00 0.00 0.00 0.00 0.00 0.00 0.00 0.00 0.00 0.00 0.01 0.02 0.04 0.10 0.14 0.13 0.21 0.19 0.06
0.00 0.00 0.00 0.00 0.00 0.00 0.00 0.00 0.00 0.00 0.00 0.00 0.00 0.00 0.02 0.02 0.02 0.05 0.01 0.00 0.00 0.00 0.00 0.00 0.00 0.00 0.00 0.00 0.00 0.00 0.00 0.01 0.00 0.00 0.00 0.00 0.07 0.05 0.07 0.12 0.11 0.11 0.10 0.04
0.00 0.00 0.00 0.00 0.00 0.00 0.00 0.00 0.00 0.00 0.00 0.00 0.00 0.00 0.01 0.01 0.01 0.04 0.02 0.00 0.01 0.00 0.00 0.00 0.00 0.00 0.00 0.00 0.01 0.02 0.03 0.03 0.00 0.00 0.00 0.00 0.05 0.05 0.09 0.10 0.05 0.03 0.01 0.06
0.00 0.00 0.00 0.00 0.00 0.00 0.00 0.00 0.00 0.00 0.00 0.00 0.00 0.00 0.00 0.00 0.01 0.01 0.01 0.00 0.01 0.01 0.00 0.00 0.01 0.00 0.00 0.01 0.01 0.02 0.02 0.04 0.02 0.01 0.01 0.02 0.05 0.07 0.05 0.02 0.01 0.01 0.03 0.03
0.00 0.00 0.00 0.00 0.00 0.00 0.00 0.00 0.00 0.00 0.00 0.00 0.00 0.00 0.00 0.00 0.00 0.01 0.01 0.00 0.01 0.02 0.03 0.04 0.05 0.01 0.01 0.03 0.03 0.06 0.04 0.04 0.07 0.08 0.07 0.04 0.09 0.07 0.03 0.03 0.04 0.04 0.03 0.16
0.00 0.00 0.00 0.00 0.00 0.00 0.00 0.00 0.00 0.01 0.00 0.00 0.00 0.00 0.00 0.00 0.00 0.00 0.00 0.01 0.02 0.00 0.00 0.01 0.02 0.01 0.02 0.06 0.04 0.03 0.06 0.14 0.12 0.09 0.08 0.09 0.08 0.07 0.06 0.09 0.20 0.21 0.18 0.21
0.00 0.00 0.00 0.00 0.00 0.00 0.00 0.00 0.00 0.02 0.03 0.03 0.03 0.00 0.00 0.00 0.00 0.00 0.00 0.00 0.00 0.00 0.00 0.01 0.02 0.05 0.06 0.04 0.03 0.02 0.08 0.19 0.21 0.16 0.13 0.16 0.19 0.20 0.22 0.27 0.40 0.43 0.33 0.28
0.00 0.00 0.00 0.00 0.00 0.00 0.00 0.00 0.00 0.00 0.01 0.04 0.05 0.00 0.00 0.00 0.00 0.00 0.00 0.00 0.00 0.00 0.00 0.00 0.01 0.03 0.06 0.05 0.05 0.09 0.10 0.09 0.14 0.16 0.16 0.21 0.28 0.31 0.43 0.43 0.32 0.33 0.22 0.13
0.00 0.00 0.00 0.00 0.00 0.00 0.00 0.00 0.00 0.00 0.02 0.04 0.00 0.00 0.00 0.00 0.00 0.00 0.00 0.00 0.00 0.00 0.00 0.00 0.01 0.00 0.01 0.00 0.04 0.06 0.03 0.05 0.09 0.13 0.15 0.27 0.41 0.42 0.38 0.31 0.39 0.31 0.26 0.23
0.00 0.00 0.00 0.00 0.00 0.00 0.00 0.00 0.00 0.00 0.00 0.01 0.01 0.00 0.00 0.00 0.00 0.00 0.00 0.00 0.00 0.00 0.00 0.00 0.01 0.01 0.01 0.00 0.01 0.04 0.08 0.31 0.27 0.29 0.34 0.35 0.43 0.58 0.59 0.46 0.39 0.37 0.19 0.16
0.00 0.00 0.00 0.00 0.00 0.00 0.00 0.00 0.00 0.00 0.00 0.00 0.01 0.00 0.00 0.00 0.00 0.00 0.00 0.00 0.00 0.00 0.00 0.00 0.00 0.00 0.00 0.01 0.01 0.02 0.04 0.16 0.31 0.23 0.46 0.69 0.61 0.84 0.96 0.83 0.49 0.45 0.19 0.17
0.00 0.00 0.00 0.00 0.00 0.00 0.00 0.00 0.00 0.00 0.00 0.00 0.03 0.00 0.00 0.00 0.00 0.00 0.00 0.00 0.00 0.00 0.00 0.00 0.00 0.00 0.00 0.00 0.04 0.10 0.14 0.26 0.33 0.48 0.59 0.57 0.40 0.68 0.49 0.45 0.31 0.15 0.09 0.05
0.01 0.00 0.00 0.00 0.00 0.00 0.00 0.00 0.00 0.00 0.00 0.00 0.00 0.00 0.00 0.01 0.00 0.00 0.00 0.00 0.00 0.00 0.00 0.00 0.00 0.00 0.00 0.05 0.10 0.09 0.09 0.19 0.31 0.28 0.28 0.21 0.19 0.25 0.19 0.12 0.07 0.06 0.03 0.03
0.01 0.00 0.00 0.00 0.00 0.00 0.00 0.00 0.00 0.00 0.00 0.01 0.00 0.00 0.00 0.00 0.00 0.00 0.00 0.00 0.00 0.00 0.00 0.00 0.01 0.01 0.01 0.05 0.06 0.04 0.06 0.10 0.16 0.14 0.09 0.07 0.14 0.04 0.04 0.04 0.02 0.00 0.02 0.01
0.00 0.00 0.00 0.00 0.00 0.00 0.00 0.00 0.00 0.00 0.00 0.00 0.00 0.00 0.00 0.00 0.00 0.00 0.00 0.00 0.00 0.00 0.00 0.00 0.00 0.00 0.00 0.01 0.00 0.01 0.03 0.06 0.05 0.03 0.02 0.01 0.02 0.01 0.01 0.01 0.00 0.00 0.00 0.00
0.02 0.00 0.00 0.00 0.00 0.00 0.00 0.00 0.00 0.00 0.00 0.00 0.00 0.00 0.00 0.00 0.00 0.00 0.00 0.00 0.00 0.00 0.00 0.00 0.00 0.00 0.01 0.00 0.00 0.01 0.01 0.01 0.01 0.01 0.00 0.00 0.00 0.00 0.00 0.00 0.00 0.00 0.00 0.01
0.15 0.02 0.00 0.00 0.01 0.01 0.00 0.00 0.00 0.00 0.00 0.00 0.00 0.00 0.00 0.00 0.00 0.00 0.00 0.00 0.00 0.00 0.00 0.00 0.00 0.00 0.00 0.00 0.00 0.00 0.00 0.00 0.00 0.00 0.00 0.00 0.00 0.00 0.00 0.00 0.01 0.02 0.05 0.11
0.17 0.13 0.04 0.02 0.01 0.00 0.00 0.00 0.00 0.00 0.00 0.00 0.00 0.00 0.00 0.00 0.00 0.00 0.00 0.00 0.00 0.00 0.00 0.00 0.00 0.00 0.00 0.00 0.00 0.00 0.00 0.00 0.00 0.00 0.00 0.00 0.00 0.00 0.00 0.03 0.09 0.16 0.21 0.18
0.26 0.16 0.12 0.04 0.01 0.00 0.00 0.00 0.00 0.00 0.00 0.00 0.00 0.00 0.00 0.00 0.00 0.00 0.00 0.00 0.00 0.00 0.00 0.00 0.00 0.00 0.00 0.00 0.00 0.00 0.00 0.00 0.00 0.00 0.00 0.00 0.00 0.02 0.08 0.18 0.21 0.15 0.07 0.03
0.17 0.19 0.14 0.06 0.03 0.00 0.00 0.00 0.00 0.00 0.00 0.00 0.00 0.00 0.00 0.00 0.00 0.00 0.00 0.00 0.00 0.00 0.00 0.00 0.00 0.00 0.00 0.00 0.00 0.00 0.00 0.00 0.00 0.00 0.00 0.01 0.06 0.12 0.16 0.13 0.06 0.03 0.02 0.02
0.15 0.19 0.16 0.14 0.05 0.00 0.00 0.00 0.00 0.00 0.00 0.00 0.00 0.00 0.00 0.00 0.00 0.00 0.00 0.00 0.00 0.00 0.00 0.00 0.00 0.00 0.00 0.00 0.00 0.00 0.00 0.00 0.00 0.00 0.02 0.08 0.13 0.11 0.07 0.02 0.00 0.00 0.00 0.00
0.04 0.12 0.12 0.08 0.02 0.00 0.00 0.00 0.00 0.00 0.00 0.00 0.00 0.00 0.00 0.00 0.00 0.00 0.00 0.00 0.00 0.00 0.00 0.00 0.00 0.00 0.00 0.00 0.00 0.00 0.00 0.00 0.00 0.01 0.05 0.07 0.04 0.01 0.00 0.00 0.00 0.00 0.00 0.00
0.00 0.01 0.03 0.04 0.02 0.03 0.02 0.02 0.00 0.00 0.00 0.00 0.00 0.00 0.00 0.00 0.00 0.00 0.00 0.00 0.00 0.00 0.00 0.00 0.00 0.00 0.00 0.00 0.00 0.00 0.00 0.00 0.00 0.01 0.00 0.00 0.00 0.00 0.00 0.00 0.00 0.00 0.00 0.00
0.00 0.03 0.03 0.02 0.01 0.02 0.03 0.12 0.09 0.04 0.02 0.01 0.01 0.02 0.00 0.00 0.00 0.00 0.00 0.00 0.00 0.00 0.00 0.00 0.00 0.00 0.00 0.00 0.00 0.00 0.00 0.00 0.00 0.00 0.00 0.00 0.00 0.00 0.00 0.00 0.00 0.00 0.00 0.00
0.00 0.00 0.00 0.01 0.00 0.00 0.00 0.02 0.03 0.08 0.09 0.04 0.02 0.02 0.01 0.00 0.00 0.00 0.00 0.00 0.00 0.00 0.00 0.00 0.00 0.00 0.00 0.00 0.00 0.00 0.00 0.00 0.00 0.00 0.00 0.00 0.00 0.00 0.00 0.00 0.00 0.00 0.00 0.00

GFSCGP_prec_precacc24_042.txt.gz
Total_Precipitation_Accumulation
0.00 0.00 0.00 0.00 0.00 0.00 0.00 0.00 0.00 0.00 0.00 0.00 0.00 0.02 0.10 0.15 0.03 0.01 0.00 0.00 0.00 0.00 0.00 0.00 0.00 0.00 0.00 0.00 0.00 0.00 0.00 0.00 0.02 0.04 0.01 0.04 0.03 0.03 0.08 0.17 0.06 0.23 0.10 0.10
0.00 0.00 0.00 0.00 0.00 0.00 0.00 0.00 0.00 0.00 0.00 0.00 0.00 0.00 0.02 0.06 0.00 0.00 0.00 0.00 0.00 0.00 0.00 0.00 0.00 0.00 0.00 0.00 0.00 0.00 0.00 0.00 0.00 0.00 0.00 0.01 0.02 0.04 0.10 0.14 0.13 0.21 0.19 0.06
0.00 0.00 0.00 0.00 0.00 0.00 0.00 0.00 0.00 0.00 0.00 0.00 0.00 0.00 0.02 0.01 0.01 0.03 0.00 0.00 0.00 0.00 0.00 0.00 0.00 0.00 0.00 0.00 0.00 0.00 0.00 0.01 0.00 0.00 0.00 0.00 0.07 0.05 0.07 0.12 0.11 0.11 0.10 0.04
0.00 0.00 0.00 0.00 0.00 0.00 0.00 0.00 0.00 0.00 0.00 0.00 0.00 0.00 0.01 0.01 0.01 0.02 0.01 0.00 0.01 0.00 0.00 0.00 0.00 0.00 0.00 0.00 0.00 0.00 0.00 0.00 0.00 0.00 0.00 0.00 0.05 0.05 0.09 0.10 0.05 0.03 0.01 0.06
0.00 0.00 0.00 0.00 0.00 0.00 0.00 0.00 0.00 0.00 0.00 0.00 0.00 0.00 0.00 0.00 0.01 0.01 0.01 0.00 0.01 0.01 0.00 0.00 0.00 0.00 0.00 0.00 0.00 0.01 0.01 0.02 0.01 0.01 0.01 0.02 0.05 0.07 0.05 0.02 0.01 0.01 0.03 0.03
0.00 0.00 0.00 0.00 0.00 0.00 0.00 0.00 0.00 0.00 0.00 0.00 0.00 0.00 0.00 0.00 0.00 0.01 0.01 0.01 0.01 0.02 0.01 0.00 0.02 0.01 0.00 0.00 0.02 0.02 0.03 0.04 0.07 0.08 0.07 0.04 0.09 0.07 0.03 0.03 0.04 0.04 0.03 0.17
0.00 0.00 0.00 0.00 0.00 0.00 0.00 0.00 0.00 0.01 0.00 0.00 0.00 0.00 0.00 0.00 0.00 0.00 0.00 0.01 0.02 0.00 0.00 0.00 0.02 0.01 0.01 0.01 0.02 0.02 0.06 0.14 0.12 0.09 0.08 0.09 0.08 0.07 0.06 0.09 0.20 0.21 0.18 0.30
0.00 0.00 0.00 0.00 0.00 0.00 0.00 0.00 0.00 0.02 0.03 0.03 0.03 0.00 0.00 0.01 0.01 0.00 0.00 0.00 0.00 0.00 0.00 0.01 0.02 0.04 0.06 0.03 0.02 0.02 0.08 0.19 0.20 0.15 0.13 0.15 0.19 0.20 0.22 0.27 0.42 0.44 0.34 0.31
0.00 0.00 0.00 0.00 0.00 0.00 0.00 0.00 0.00 0.00 0.01 0.04 0.05 0.00 0.00 0.00 0.00 0.00 0.00 0.00 0.00 0.00 0.00 0.00 0.01 0.02 0.06 0.05 0.04 0.07 0.07 0.09 0.13 0.14 0.16 0.21 0.28 0.31 0.43 0.46 0.37 0.35 0.23 0.14
0.00 0.00 0.00 0.00 0.00 0.00 0.00 0.00 0.00 0.00 0.02 0.04 0.00 0.00 0.00 0.00 0.00 0.00 0.00 0.00 0.00 0.00 0.00 0.00 0.01 0.00 0.01 0.01 0.05 0.06 0.03 0.05 0.10 0.14 0.15 0.27 0.41 0.42 0.41 0.33 0.42 0.37 0.32 0.33
0.00 0.00 0.00 0.00 0.00 0.00 0.00 0.00 0.00 0.00 0.00 0.01 0.01 0.00 0.00 0.01 0.00 0.00 0.00 0.00 0.00 0.00 0.00 0.00 0.01 0.01 0.01 0.00 0.01 0.06 0.11 0.33 0.28 0.34 0.38 0.37 0.46 0.61 0.67 0.60 0.56 0.53 0.48 0.45
0.00 0.00 0.00 0.00 0.00 0.00 0.00 0.00 0.00 0.00 0.00 0.00 0.01 0.00 0.00 0.00 0.00 0.00 0.00 0.00 0.00 0.00 0.00 0.00 0.00 0.00 0.01 0.01 0.01 0.02 0.07 0.18 0.34 0.31 0.51 0.73 0.66 0.98 1.49 1.50 1.15 1.24 1.11 0.63
0.00 0.00 0.00 0.00 0.00 0.00 0.00 0.00 0.00 0.00 0.00 0.00 0.03 0.00 0.00 0.00 0.00 0.00 0.00 0.00 0.00 0.00 0.00 0.00 0.00 0.00 0.00 0.00 0.04 0.10 0.15 0.27 0.42 0.63 0.76 0.76 0.62 0.99 0.94 0.65 0.47 0.39 0.45 0.26
0.01 0.00 0.00 0.00 0.00 0.00 0.00 0.00 0.00 0.00 0.00 0.00 0.00 0.00 0.00 0.01 0.00 0.00 0.00 0.00 0.00 0.00 0.00 0.00 0.00 0.00 0.00 0.05 0.10 0.09 0.09 0.23 0.34 0.37 0.47 0.37 0.30 0.34 0.31 0.23 0.17 0.12 0.08 0.10
0.05 0.05 0.00 0.00 0.00 0.00 0.00 0.00 0.00 0.00 0.00 0.01 0.00 0.00 0.00 0.00 0.00 0.00 0.00 0.00 0.00 0.00 0.00 0.00 0.01 0.01 0.01 0.05 0.06 0.04 0.06 0.12 0.16 0.14 0.17 0.13 0.21 0.13 0.12 0.07 0.06 0.04 0.05 0.06
0.03 0.08 0.00 0.00 0.00 0.00 0.00 0.00 0.00 0.00 0.00 0.00 0.00 0.00 0.00 0.00 0.00 0.00 0.00 0.00 0.00 0.00 0.00 0.00 0.00 0.00 0.00 0.01 0.00 0.01 0.02 0.06 0.05 0.05 0.08 0.06 0.08 0.07 0.06 0.04 0.02 0.02 0.03 0.02
0.10 0.13 0.05 0.01 0.00 0.00 0.00 0.00 0.00 0.00 0.00 0.00 0.00 0.00 0.00 0.00 0.00 0.00 0.00 0.00 0.00 0.00 0.00 0.00 0.00 0.00 0.01 0.00 0.00 0.00 0.01 0.01 0.02 0.05 0.04 0.04 0.04 0.05 0.04 0.04 0.02 0.01 0.00 0.01
0.24 0.16 0.11 0.04 0.01 0.02 0.01 0.00 0.00 0.00 0.00 0.00 0.00 0.00 0.00 0.00 0.00 0.00 0.00 0.00 0.00 0.00 0.00 0.00 0.00 0.00 0.00 0.00 0.00 0.00 0.00 0.00 0.01 0.02 0.03 0.03 0.03 0.03 0.03 0.02 0.00 0.01 0.04 0.11
0.15 0.20 0.19 0.12 0.07 0.02 0.00 0.00 0.00 0.00 0.00 0.00 0.00 0.00 0.00 0.00 0.00 0.00 0.00 0.00 0.00 0.00 0.00 0.00 0.00 0.00 0.00 0.00 0.00 0.00 0.00 0.01 0.01 0.02 0.02 0.02 0.02 0.02 0.01 0.01 0.06 0.16 0.21 0.18
0.26 0.23 0.29 0.15 0.15 0.08 0.00 0.00 0.00 0.00 0.00 0.00 0.00 0.00 0.00 0.00 0.00 0.00 0.00 0.00 0.00 0.00 0.00 0.00 0.00 0.00 0.00 0.00 0.00 0.01 0.00 0.00 0.00 0.00 0.00 0.00 0.00 0.02 0.06 0.14 0.18 0.14 0.07 0.03
0.18 0.21 0.23 0.15 0.16 0.05 0.00 0.00 0.00 0.00 0.00 0.00 0.00 0.00 0.00 0.00 0.00 0.00 0.00 0.00 0.00 0.00 0.00 0.00 0.00 0.00 0.00 0.00 0.00 0.00 0.00 0.00 0.00 0.00 0.00 0.01 0.03 0.06 0.09 0.10 0.06 0.03 0.02 0.02
0.15 0.19 0.19 0.21 0.16 0.05 0.01 0.00 0.00 0.00 0.00 0.00 0.00 0.00 0.00 0.00 0.00 0.00 0.00 0.00 0.00 0.00 0.00 0.00 0.00 0.00 0.00 0.00 0.00 0.00 0.00 0.00 0.00 0.00 0.00 0.02 0.06 0.08 0.06 0.02 0.00 0.00 0.00 0.00
0.05 0.12 0.13 0.10 0.06 0.02 0.02 0.01 0.00 0.00 0.00 0.01 0.01 0.00 0.00 0.00 0.00 0.00 0.00 0.00 0.00 0.00 0.00 0.00 0.00 0.00 0.00 0.00 0.00 0.00 0.00 0.00 0.00 0.00 0.01 0.02 0.02 0.01 0.00 0.00 0.00 0.00 0.00 0.00
0.01 0.01 0.03 0.04 0.02 0.03 0.03 0.02 0.01 0.00 0.00 0.01 0.00 0.00 0.00 0.00 0.00 0.00 0.00 0.00 0.00 0.00 0.00 0.00 0.00 0.00 0.00 0.00 0.00 0.00 0.00 0.00 0.00 0.00 0.00 0.00 0.00 0.00 0.00 0.00 0.00 0.00 0.00 0.00
0.02 0.05 0.04 0.02 0.01 0.02 0.03 0.12 0.09 0.04 0.02 0.01 0.01 0.02 0.02 0.01 0.01 0.01 0.00 0.00 0.00 0.00 0.00 0.00 0.00 0.00 0.00 0.00 0.00 0.00 0.00 0.00 0.00 0.00 0.00 0.00 0.00 0.00 0.00 0.00 0.00 0.00 0.00 0.00
0.01 0.02 0.02 0.02 0.00 0.00 0.00 0.02 0.03 0.08 0.09 0.04 0.03 0.03 0.02 0.00 0.00 0.00 0.00 0.00 0.00 0.00 0.00 0.00 0.00 0.00 0.00 0.00 0.00 0.00 0.00 0.00 0.00 0.00 0.00 0.00 0.00 0.00 0.00 0.00 0.00 0.00 0.00 0.00

GFSCGP_prec_precacc24_045.txt.gz
Total_Precipitation_Accumulation
0.00 0.00 0.00 0.00 0.00 0.00 0.00 0.00 0.00 0.00 0.00 0.00 0.00 0.02 0.10 0.14 0.01 0.01 0.00 0.00 0.00 0.00 0.00 0.00 0.00 0.00 0.00 0.00 0.00 0.00 0.00 0.01 0.04 0.04 0.01 0.05 0.03 0.03 0.08 0.17 0.06 0.23 0.10 0.10
0.00 0.00 0.00 0.00 0.00 0.00 0.00 0.00 0.00 0.00 0.00 0.00 0.00 0.00 0.01 0.04 0.00 0.00 0.00 0.00 0.00 0.00 0.00 0.00 0.00 0.00 0.00 0.00 0.00 0.00 0.00 0.00 0.00 0.00 0.00 0.01 0.02 0.04 0.10 0.14 0.13 0.21 0.19 0.06
0.00 0.00 0.00 0.00 0.00 0.00 0.00 0.00 0.00 0.00 0.00 0.00 0.00 0.00 0.00 0.01 0.01 0.03 0.00 0.00 0.00 0.00 0.00 0.00 0.00 0.00 0.00 0.00 0.00 0.00 0.00 0.00 0.00 0.00 0.00 0.00 0.07 0.05 0.07 0.12 0.11 0.11 0.10 0.04
0.00 0.00 0.00 0.00 0.00 0.00 0.00 0.00 0.00 0.00 0.00 0.00 0.00 0.00 0.00 0.00 0.01 0.02 0.01 0.00 0.00 0.00 0.00 0.00 0.00 0.00 0.00 0.00 0.00 0.00 0.00 0.00 0.00 0.00 0.00 0.00 0.02 0.04 0.09 0.10 0.05 0.03 0.01 0.06
0.00 0.00 0.00 0.00 0.00 0.00 0.00 0.00 0.00 0.00 0.00 0.00 0.00 0.00 0.00 0.00 0.01 0.01 0.01 0.00 0.01 0.01 0.00 0.00 0.00 0.00 0.00 0.00 0.00 0.01 0.00 0.00 0.00 0.01 0.01 0.00 0.02 0.06 0.05 0.02 0.01 0.01 0.03 0.03
0.00 0.00 0.00 0.00 0.00 0.00 0.00 0.00 0.00 0.00 0.00 0.00 0.00 0.00 0.00 0.00 0.00 0.01 0.01 0.01 0.01 0.01 0.00 0.00 0.00 0.00 0.00 0.00 0.00 0.01 0.01 0.00 0.05 0.07 0.07 0.03 0.06 0.05 0.03 0.03 0.04 0.04 0.03 0.17
0.00 0.00 0.00 0.00 0.00 0.00 0.00 0.00 0.00 0.01 0.00 0.00 0.00 0.00 0.00 0.00 0.00 0.00 0.00 0.01 0.02 0.00 0.00 0.00 0.00 0.00 0.00 0.00 0.00 0.01 0.02 0.07 0.10 0.08 0.06 0.08 0.06 0.06 0.05 0.09 0.20 0.21 0.18 0.30
0.00 0.00 0.00 0.00 0.00 0.00 0.00 0.00 0.00 0.02 0.03 0.03 0.03 0.00 0.00 0.01 0.01 0.00 0.00 0.00 0.00 0.00 0.00 0.00 0.00 0.00 0.01 0.00 0.00 0.01 0.02 0.11 0.18 0.14 0.11 0.14 0.18 0.20 0.22 0.27 0.42 0.44 0.34 0.31
0.00 0.00 0.00 0.00 0.00 0.00 0.00 0.00 0.00 0.00 0.01 0.04 0.05 0.00 0.00 0.00 0.00 0.00 0.00 0.00 0.00 0.00 0.00 0.00 0.00 0.00 0.01 0.02 0.01 0.00 0.00 0.04 0.10 0.11 0.13 0.19 0.27 0.31 0.43 0.46 0.37 0.36 0.27 0.16
0.00 0.00 0.00 0.00 0.00 0.00 0.00 0.00 0.00 0.00 0.02 0.04 0.00 0.00 0.00 0.00 0.00 0.00 0.00 0.00 0.00 0.00 0.00 0.00 0.01 0.00 0.00 0.00 0.05 0.05 0.01 0.02 0.08 0.13 0.13 0.23 0.39 0.41 0.41 0.33 0.43 0.38 0.37 0.38
0.00 0.00 0.00 0.00 0.00 0.00 0.00 0.00 0.00 0.00 0.00 0.01 0.01 0.00 0.00 0.01 0.00 0.00 0.00 0.00 0.00 0.00 0.00 0.00 0.01 0.01 0.01 0.00 0.02 0.08 0.14 0.33 0.31 0.39 0.48 0.41 0.46 0.61 0.69 0.62 0.60 0.58 0.55 0.55
0.00 0.00 0.00 0.00 0.00 0.00 0.00 0.00 0.00 0.00 0.00 0.00 0.01 0.00 0.00 0.00 0.00 0.00 0.00 0.00 0.00 0.00 0.00 0.00 0.00 0.00 0.01 0.01 0.01 0.03 0.08 0.17 0.35 0.37 0.63 0.82 0.71 1.03 1.56 1.61 1.25 1.47 1.48 1.11
0.00 0.00 0.00 0.00 0.00 0.00 0.00 0.00 0.00 0.00 0.00 0.00 0.03 0.00 0.00 0.00 0.00 0.00 0.00 0.00 0.00 0.00 0.00 0.00 0.00 0.00 0.00 0.00 0.04 0.10 0.14 0.25 0.41 0.59 0.74 0.80 0.68 1.07 1.00 0.69 0.52 0.42 0.50 0.46
0.01 0.00 0.00 0.00 0.00 0.00 0.00 0.00 0.00 0.00 0.00 0.00 0.00 0.00 0.00 0.01 0.00 0.00 0.00 0.00 0.00 0.00 0.00 0.00 0.00 0.00 0.00 0.05 0.09 0.06 0.07 0.20 0.29 0.31 0.44 0.36 0.33 0.38 0.35 0.26 0.18 0.17 0.15 0.12
0.05 0.05 0.01 0.00 0.00 0.00 0.00 0.00 0.00 0.00 0.00 0.01 0.00 0.00 0.00 0.00 0.00 0.00 0.00 0.00 0.00 0.00 0.00 0.00 0.00 0.00 0.01 0.04 0.04 0.02 0.03 0.08 0.12 0.12 0.16 0.13 0.23 0.17 0.14 0.09 0.06 0.09 0.12 0.16
0.03 0.08 0.01 0.00 0.00 0.00 0.00 0.00 0.00 0.00 0.00 0.00 0.00 0.00 0.00 0.00 0.00 0.00 0.00 0.00 0.00 0.00 0.00 0.00 0.00 0.00 0.00 0.01 0.00 0.00 0.01 0.04 0.04 0.05 0.08 0.07 0.10 0.10 0.10 0.06 0.04 0.05 0.08 0.08
0.10 0.13 0.05 0.01 0.00 0.00 0.00 0.00 0.00 0.00 0.00 0.00 0.00 0.00 0.00 0.00 0.00 0.00 0.00 0.00 0.00 0.00 0.00 0.00 0.00 0.00 0.01 0.00 0.00 0.00 0.01 0.01 0.02 0.05 0.04 0.05 0.06 0.08 0.06 0.07 0.05 0.05 0.07 0.03
0.24 0.16 0.12 0.05 0.01 0.04 0.02 0.00 0.00 0.00 0.00 0.00 0.00 0.00 0.00 0.00 0.00 0.00 0.00 0.00 0.00 0.00 0.00 0.00 0.00 0.00 0.00 0.00 0.00 0.00 0.00 0.00 0.01 0.03 0.04 0.04 0.05 0.05 0.06 0.05 0.04 0.03 0.03 0.08
0.15 0.19 0.20 0.13 0.07 0.04 0.00 0.00 0.00 0.00 0.00 0.00 0.00 0.00 0.00 0.00 0.00 0.00 0.00 0.00 0.00 0.00 0.00 0.00 0.00 0.00 0.00 0.00 0.00 0.00 0.00 0.01 0.01 0.02 0.02 0.03 0.04 0.05 0.03 0.02 0.04 0.09 0.15 0.16
0.26 0.23 0.28 0.15 0.15 0.10 0.01 0.00 0.00 0.00 0.01 0.00 0.00 0.00 0.00 0.00 0.00 0.00 0.00 0.00 0.00 0.00 0.00 0.00 0.00 0.00 0.00 0.00 0.00 0.01 0.00 0.00 0.01 0.01 0.01 0.02 0.01 0.01 0.01 0.05 0.10 0.10 0.06 0.03
0.18 0.22 0.23 0.16 0.16 0.05 0.01 0.01 0.00 0.03 0.02 0.00 0.00 0.00 0.00 0.00 0.00 0.00 0.00 0.00 0.00 0.00 0.00 0.00 0.00 0.00 0.00 0.00 0.00 0.00 0.00 0.00 0.00 0.01 0.00 0.00 0.00 0.01 0.03 0.04 0.03 0.02 0.02 0.02
0.15 0.19 0.19 0.21 0.17 0.05 0.02 0.05 0.07 0.04 0.00 0.00 0.00 0.00 0.00 0.00 0.00 0.00 0.00 0.00 0.00 0.00 0.00 0.00 0.00 0.00 0.00 0.00 0.00 0.00 0.00 0.00 0.00 0.00 0.00 0.00 0.00 0.01 0.02 0.01 0.00 0.00 0.00 0.00
0.05 0.12 0.13 0.10 0.06 0.02 0.02 0.03 0.02 0.01 0.01 0.01 0.01 0.00 0.00 0.00 0.00 0.00 0.00 0.00 0.00 0.00 0.00 0.00 0.00 0.00 0.00 0.00 0.00 0.00 0.00 0.00 0.00 0.00 0.00 0.00 0.00 0.00 0.00 0.00 0.00 0.00 0.00 0.00
0.01 0.01 0.03 0.04 0.02 0.03 0.03 0.02 0.01 0.00 0.01 0.01 0.00 0.00 0.00 0.00 0.00 0.00 0.00 0.00 0.00 0.00 0.00 0.00 0.00 0.00 0.00 0.00 0.00 0.00 0.00 0.00 0.00 0.00 0.00 0.00 0.00 0.00 0.00 0.00 0.00 0.00 0.00 0.00
0.02 0.05 0.04 0.02 0.01 0.02 0.03 0.12 0.09 0.04 0.02 0.02 0.01 0.02 0.02 0.02 0.01 0.01 0.01 0.01 0.00 0.00 0.00 0.00 0.00 0.00 0.00 0.00 0.00 0.00 0.00 0.00 0.00 0.00 0.00 0.00 0.00 0.00 0.00 0.00 0.00 0.00 0.00 0.00
0.02 0.04 0.06 0.03 0.02 0.00 0.00 0.03 0.03 0.08 0.10 0.04 0.03 0.03 0.02 0.01 0.02 0.01 0.01 0.01 0.00 0.00 0.00 0.00 0.00 0.00 0.00 0.00 0.00 0.00 0.00 0.00 0.00 0.00 0.00 0.00 0.00 0.00 0.00 0.00 0.00 0.00 0.00 0.00

GFSCGP_prec_precacc24_048.txt.gz
Total_Precipitation_Accumulation
0.00 0.00 0.00 0.00 0.00 0.00 0.00 0.00 0.00 0.00 0.00 0.00 0.00 0.02 0.10 0.14 0.01 0.01 0.00 0.00 0.00 0.00 0.00 0.00 0.00 0.00 0.00 0.00 0.00 0.01 0.05 0.04 0.14 0.15 0.04 0.01 0.02 0.02 0.08 0.17 0.07 0.23 0.11 0.12
0.00 0.00 0.00 0.00 0.00 0.00 0.00 0.00 0.00 0.00 0.00 0.00 0.00 0.00 0.01 0.04 0.00 0.00 0.00 0.00 0.00 0.00 0.00 0.00 0.00 0.00 0.00 0.00 0.00 0.00 0.01 0.02 0.05 0.06 0.06 0.01 0.02 0.04 0.10 0.15 0.13 0.22 0.20 0.07
0.00 0.00 0.00 0.00 0.00 0.00 0.00 0.00 0.00 0.00 0.00 0.00 0.00 0.00 0.00 0.01 0.01 0.03 0.00 0.00 0.00 0.00 0.00 0.00 0.00 0.00 0.00 0.00 0.00 0.00 0.00 0.00 0.01 0.01 0.01 0.00 0.07 0.05 0.07 0.12 0.11 0.11 0.10 0.04
0.00 0.00 0.00 0.00 0.00 0.00 0.00 0.00 0.00 0.00 0.00 0.00 0.00 0.00 0.00 0.00 0.01 0.02 0.01 0.00 0.00 0.00 0.00 0.00 0.00 0.00 0.00 0.00 0.00 0.00 0.00 0.00 0.00 0.00 0.00 0.00 0.02 0.04 0.09 0.10 0.05 0.03 0.01 0.06
0.00 0.00 0.00 0.00 0.00 0.00 0.00 0.00 0.00 0.00 0.00 0.00 0.00 0.00 0.00 0.00 0.01 0.01 0.01 0.00 0.01 0.01 0.00 0.00 0.00 0.00 0.00 0.00 0.00 0.00 0.00 0.00 0.00 0.00 0.00 0.00 0.01 0.05 0.05 0.02 0.01 0.01 0.03 0.03
0.00 0.00 0.00 0.00 0.00 0.00 0.00 0.00 0.00 0.00 0.00 0.00 0.00 0.00 0.00 0.00 0.00 0.01 0.01 0.01 0.01 0.01 0.00 0.00 0.00 0.00 0.00 0.00 0.00 0.00 0.00 0.00 0.00 0.01 0.03 0.01 0.04 0.04 0.02 0.02 0.04 0.04 0.03 0.17
0.00 0.00 0.00 0.00 0.00 0.00 0.00 0.00 0.00 0.01 0.00 0.00 0.00 0.00 0.00 0.00 0.00 0.00 0.00 0.01 0.02 0.00 0.00 0.00 0.00 0.00 0.00 0.00 0.00 0.00 0.00 0.00 0.00 0.00 0.02 0.06 0.06 0.05 0.03 0.06 0.18 0.21 0.18 0.30
0.00 0.00 0.00 0.00 0.00 0.00 0.00 0.00 0.00 0.02 0.03 0.03 0.03 0.00 0.00 0.01 0.01 0.00 0.00 0.00 0.00 0.00 0.00 0.00 0.00 0.00 0.00 0.00 0.00 0.00 0.00 0.00 0.02 0.03 0.03 0.10 0.17 0.19 0.21 0.27 0.41 0.44 0.34 0.31
0.00 0.00 0.00 0.00 0.00 0.00 0.00 0.00 0.00 0.00 0.01 0.04 0.05 0.00 0.00 0.00 0.00 0.00 0.00 0.00 0.00 0.00 0.00 0.00 0.00 0.00 0.00 0.00 0.00 0.00 0.00 0.00 0.01 0.01 0.04 0.11 0.20 0.25 0.38 0.42 0.35 0.36 0.27 0.16
0.00 0.00 0.00 0.00 0.00 0.00 0.00 0.00 0.00 0.00 0.02 0.04 0.00 0.00 0.00 0.00 0.00 0.00 0.00 0.00 0.00 0.00 0.00 0.00 0.01 0.00 0.00 0.00 0.06 0.05 0.01 0.02 0.07 0.09 0.08 0.17 0.32 0.34 0.35 0.31 0.42 0.38 0.36 0.38
0.00 0.00 0.00 0.00 0.00 0.00 0.00 0.00 0.00 0.00 0.00 0.01 0.01 0.00 0.00 0.01 0.00 0.00 0.00 0.00 0.00 0.00 0.00 0.00 0.01 0.01 0.01 0.00 0.02 0.08 0.14 0.32 0.29 0.30 0.40 0.36 0.41 0.58 0.66 0.61 0.60 0.58 0.55 0.55
0.00 0.00 0.00 0.00 0.00 0.00 0.00 0.00 0.00 0.00 0.00 0.00 0.01 0.00 0.00 0.00 0.00 0.00 0.00 0.00 0.00 0.00 0.00 0.00 0.00 0.00 0.01 0.01 0.01 0.02 0.06 0.15 0.29 0.35 0.60 0.83 0.71 1.02 1.55 1.61 1.26 1.48 1.49 1.15
0.00 0.00 0.00 0.00 0.00 0.00 0.00 0.00 0.00 0.00 0.00 0.00 0.03 0.00 0.00 0.00 0.00 0.00 0.00 0.00 0.00 0.00 0.00 0.00 0.00 0.00 0.00 0.00 0.00 0.03 0.08 0.21 0.39 0.56 0.71 0.77 0.67 1.08 1.02 0.71 0.53 0.42 0.52 0.49
0.01 0.00 0.00 0.01 0.00 0.00 0.00 0.00 0.00 0.00 0.00 0.00 0.00 0.00 0.00 0.01 0.00 0.00 0.00 0.00 0.00 0.00 0.00 0.00 0.00 0.00 0.00 0.00 0.00 0.00 0.03 0.17 0.26 0.27 0.38 0.31 0.30 0.39 0.37 0.31 0.24 0.20 0.18 0.17
0.05 0.05 0.01 0.00 0.00 0.00 0.00 0.00 0.00 0.00 0.00 0.01 0.00 0.00 0.00 0.00 0.00 0.00 0.00 0.00 0.00 0.00 0.00 0.00 0.00 0.00 0.00 0.00 0.01 0.00 0.02 0.07 0.10 0.09 0.15 0.12 0.22 0.17 0.14 0.10 0.12 0.15 0.17 0.24
0.03 0.08 0.01 0.00 0.00 0.00 0.00 0.00 0.00 0.00 0.00 0.00 0.00 0.00 0.00 0.00 0.00 0.00 0.00 0.00 0.00 0.00 0.00 0.00 0.00 0.00 0.00 0.00 0.00 0.00 0.01 0.04 0.04 0.04 0.08 0.06 0.10 0.10 0.10 0.06 0.06 0.09 0.10 0.11
0.11 0.13 0.05 0.01 0.00 0.00 0.00 0.00 0.00 0.00 0.00 0.00 0.00 0.00 0.00 0.00 0.00 0.00 0.00 0.00 0.00 0.00 0.00 0.00 0.00 0.00 0.01 0.00 0.00 0.00 0.01 0.01 0.02 0.05 0.04 0.05 0.06 0.08 0.06 0.09 0.06 0.08 0.11 0.08
0.24 0.16 0.12 0.05 0.01 0.04 0.02 0.00 0.00 0.00 0.00 0.00 0.00 0.00 0.00 0.00 0.00 0.00 0.00 0.00 0.00 0.00 0.00 0.00 0.00 0.00 0.00 0.00 0.00 0.00 0.00 0.00 0.01 0.03 0.04 0.04 0.04 0.05 0.06 0.07 0.08 0.08 0.08 0.10
0.15 0.20 0.20 0.13 0.07 0.04 0.00 0.00 0.00 0.00 0.00 0.00 0.00 0.00 0.00 0.00 0.00 0.00 0.00 0.00 0.00 0.00 0.00 0.00 0.00 0.00 0.00 0.00 0.00 0.00 0.00 0.01 0.01 0.02 0.02 0.03 0.05 0.05 0.05 0.05 0.06 0.08 0.10 0.14
0.26 0.23 0.28 0.15 0.15 0.10 0.01 0.00 0.00 0.00 0.01 0.00 0.00 0.00 0.00 0.00 0.00 0.00 0.00 0.00 0.00 0.00 0.00 0.00 0.00 0.00 0.00 0.00 0.00 0.01 0.00 0.00 0.01 0.01 0.01 0.02 0.02 0.02 0.01 0.03 0.03 0.05 0.05 0.04
0.19 0.22 0.23 0.16 0.17 0.05 0.01 0.01 0.00 0.03 0.02 0.00 0.00 0.00 0.00 0.00 0.00 0.00 0.00 0.00 0.00 0.00 0.00 0.00 0.00 0.00 0.00 0.00 0.00 0.00 0.00 0.00 0.00 0.01 0.01 0.01 0.00 0.00 0.00 0.00 0.01 0.02 0.02 0.02
0.15 0.19 0.19 0.21 0.18 0.05 0.02 0.05 0.08 0.04 0.00 0.00 0.00 0.00 0.00 0.00 0.00 0.00 0.00 0.00 0.00 0.00 0.00 0.00 0.00 0.00 0.00 0.00 0.00 0.00 0.00 0.00 0.01 0.02 0.01 0.00 0.00 0.00 0.00 0.01 0.01 0.02 0.01 0.00
0.05 0.12 0.13 0.10 0.06 0.02 0.02 0.03 0.02 0.01 0.01 0.01 0.01 0.00 0.00 0.00 0.00 0.00 0.00 0.00 0.00 0.00 0.00 0.00 0.00 0.00 0.00 0.00 0.00 0.00 0.01 0.03 0.03 0.02 0.01 0.00 0.00 0.00 0.00 0.00 0.01 0.00 0.00 0.00
0.01 0.01 0.03 0.04 0.02 0.03 0.03 0.02 0.01 0.00 0.01 0.01 0.00 0.00 0.00 0.00 0.00 0.00 0.00 0.00 0.00 0.00 0.00 0.00 0.00 0.00 0.00 0.00 0.00 0.02 0.04 0.03 0.02 0.01 0.00 0.00 0.00 0.00 0.00 0.00 0.00 0.00 0.00 0.00
0.02 0.05 0.04 0.02 0.01 0.02 0.03 0.12 0.09 0.04 0.02 0.02 0.02 0.03 0.02 0.02 0.02 0.01 0.01 0.01 0.00 0.00 0.00 0.00 0.00 0.00 0.00 0.01 0.01 0.01 0.01 0.01 0.00 0.00 0.00 0.00 0.00 0.00 0.00 0.00 0.00 0.00 0.00 0.00
0.02 0.04 0.06 0.03 0.02 0.00 0.00 0.03 0.03 0.08 0.10 0.04 0.04 0.03 0.03 0.02 0.02 0.01 0.02 0.01 0.01 0.00 0.00 0.00 0.00 0.00 0.00 0.00 0.00 0.00 0.00 0.00 0.00 0.00 0.00 0.00 0.00 0.00 0.00 0.00 0.00 0.00 0.00 0.00

GFSCGP_prec_precacc24_051.txt.gz
Total_Precipitation_Accumulation
0.00 0.00 0.00 0.00 0.00 0.00 0.00 0.00 0.00 0.00 0.00 0.00 0.00 0.02 0.10 0.14 0.01 0.01 0.00 0.00 0.00 0.00 0.00 0.00 0.00 0.00 0.00 0.00 0.00 0.03 0.10 0.11 0.29 0.27 0.09 0.03 0.02 0.01 0.05 0.16 0.07 0.23 0.11 0.12
0.00 0.00 0.00 0.00 0.00 0.00 0.00 0.00 0.00 0.00 0.00 0.00 0.00 0.00 0.01 0.04 0.00 0.00 0.00 0.00 0.00 0.00 0.00 0.00 0.00 0.00 0.00 0.00 0.00 0.00 0.02 0.04 0.10 0.15 0.17 0.04 0.01 0.00 0.05 0.13 0.15 0.22 0.20 0.07
0.00 0.00 0.00 0.00 0.00 0.00 0.00 0.00 0.00 0.00 0.00 0.00 0.00 0.00 0.00 0.01 0.01 0.03 0.00 0.00 0.00 0.00 0.00 0.00 0.00 0.00 0.00 0.00 0.00 0.00 0.00 0.01 0.03 0.05 0.16 0.04 0.01 0.01 0.05 0.12 0.12 0.11 0.11 0.05
0.00 0.00 0.00 0.00 0.00 0.00 0.00 0.00 0.00 0.00 0.00 0.00 0.00 0.00 0.00 0.00 0.01 0.02 0.01 0.00 0.00 0.00 0.00 0.00 0.00 0.00 0.00 0.00 0.00 0.00 0.00 0.00 0.00 0.01 0.03 0.01 0.00 0.02 0.09 0.10 0.05 0.03 0.01 0.07
0.00 0.00 0.00 0.00 0.00 0.00 0.00 0.00 0.00 0.00 0.00 0.00 0.00 0.00 0.00 0.00 0.01 0.01 0.01 0.00 0.01 0.01 0.00 0.00 0.00 0.00 0.00 0.00 0.00 0.00 0.00 0.00 0.00 0.00 0.00 0.00 0.01 0.03 0.04 0.01 0.01 0.01 0.03 0.03
0.00 0.00 0.00 0.00 0.00 0.00 0.00 0.00 0.00 0.00 0.00 0.00 0.00 0.00 0.00 0.00 0.00 0.01 0.01 0.01 0.01 0.01 0.00 0.00 0.00 0.00 0.00 0.00 0.00 0.00 0.00 0.00 0.00 0.00 0.00 0.00 0.03 0.03 0.02 0.02 0.03 0.04 0.03 0.17
0.00 0.00 0.00 0.00 0.00 0.00 0.00 0.00 0.00 0.01 0.00 0.00 0.00 0.00 0.00 0.00 0.00 0.00 0.00 0.01 0.02 0.00 0.00 0.00 0.00 0.00 0.00 0.00 0.00 0.00 0.00 0.00 0.00 0.00 0.00 0.01 0.02 0.02 0.01 0.05 0.17 0.19 0.16 0.29
0.00 0.00 0.00 0.00 0.00 0.00 0.00 0.00 0.00 0.02 0.03 0.03 0.03 0.00 0.00 0.01 0.01 0.00 0.00 0.00 0.00 0.00 0.00 0.00 0.00 0.00 0.00 0.00 0.00 0.00 0.00 0.00 0.00 0.00 0.00 0.02 0.05 0.08 0.14 0.22 0.38 0.42 0.32 0.30
0.00 0.00 0.00 0.00 0.00 0.00 0.00 0.00 0.00 0.00 0.01 0.04 0.05 0.00 0.00 0.00 0.00 0.00 0.00 0.00 0.00 0.00 0.00 0.00 0.00 0.00 0.00 0.00 0.00 0.00 0.00 0.00 0.00 0.00 0.01 0.06 0.12 0.16 0.30 0.36 0.30 0.31 0.25 0.15
0.00 0.00 0.00 0.00 0.00 0.00 0.00 0.00 0.00 0.00 0.02 0.04 0.00 0.00 0.00 0.00 0.00 0.00 0.00 0.00 0.00 0.00 0.00 0.00 0.01 0.00 0.00 0.00 0.02 0.01 0.00 0.02 0.07 0.09 0.02 0.06 0.19 0.23 0.26 0.25 0.38 0.35 0.35 0.38
0.00 0.00 0.00 0.00 0.00 0.00 0.00 0.00 0.00 0.00 0.00 0.01 0.01 0.00 0.00 0.01 0.00 0.00 0.00 0.00 0.00 0.00 0.00 0.00 0.01 0.01 0.01 0.00 0.01 0.05 0.12 0.32 0.28 0.29 0.30 0.23 0.27 0.49 0.60 0.56 0.56 0.56 0.54 0.54
0.00 0.00 0.00 0.00 0.00 0.00 0.00 0.00 0.00 0.00 0.00 0.00 0.01 0.00 0.00 0.00 0.00 0.00 0.00 0.00 0.00 0.00 0.00 0.00 0.00 0.00 0.01 0.01 0.01 0.02 0.06 0.14 0.23 0.33 0.55 0.76 0.62 0.94 1.48 1.55 1.23 1.46 1.47 1.14
0.00 0.00 0.00 0.00 0.00 0.00 0.00 0.00 0.00 0.00 0.00 0.00 0.03 0.00 0.00 0.00 0.00 0.00 0.00 0.00 0.00 0.00 0.00 0.00 0.00 0.00 0.00 0.00 0.00 0.01 0.06 0.17 0.36 0.53 0.68 0.74 0.65 1.03 0.96 0.67 0.51 0.42 0.52 0.49
0.01 0.00 0.00 0.01 0.00 0.00 0.00 0.00 0.00 0.00 0.00 0.00 0.00 0.00 0.00 0.01 0.00 0.00 0.00 0.00 0.00 0.00 0.00 0.00 0.00 0.00 0.00 0.00 0.00 0.00 0.02 0.17 0.26 0.25 0.37 0.29 0.26 0.35 0.35 0.30 0.24 0.20 0.17 0.17
0.05 0.05 0.01 0.00 0.00 0.00 0.00 0.00 0.00 0.00 0.00 0.01 0.00 0.00 0.00 0.00 0.00 0.00 0.00 0.00 0.00 0.00 0.00 0.00 0.00 0.00 0.00 0.00 0.00 0.00 0.02 0.07 0.10 0.09 0.14 0.11 0.21 0.16 0.14 0.10 0.11 0.15 0.18 0.25
0.03 0.08 0.01 0.00 0.00 0.00 0.00 0.00 0.00 0.00 0.00 0.00 0.00 0.00 0.00 0.00 0.00 0.00 0.00 0.00 0.00 0.00 0.00 0.00 0.00 0.00 0.00 0.00 0.00 0.00 0.01 0.04 0.04 0.04 0.08 0.06 0.10 0.10 0.10 0.06 0.05 0.09 0.11 0.13
0.11 0.13 0.05 0.01 0.00 0.00 0.00 0.00 0.00 0.00 0.00 0.00 0.00 0.00 0.00 0.00 0.00 0.00 0.00 0.00 0.00 0.00 0.00 0.00 0.00 0.00 0.01 0.00 0.00 0.00 0.01 0.01 0.02 0.05 0.04 0.05 0.06 0.08 0.06 0.08 0.06 0.08 0.11 0.09
0.24 0.16 0.12 0.05 0.01 0.04 0.02 0.00 0.00 0.00 0.00 0.00 0.00 0.00 0.00 0.00 0.00 0.00 0.00 0.00 0.00 0.00 0.00 0.00 0.00 0.00 0.00 0.00 0.00 0.00 0.00 0.00 0.01 0.03 0.04 0.04 0.04 0.05 0.06 0.06 0.08 0.08 0.07 0.09
0.15 0.20 0.20 0.13 0.07 0.04 0.00 0.00 0.00 0.00 0.00 0.00 0.00 0.00 0.00 0.00 0.00 0.00 0.00 0.00 0.00 0.00 0.00 0.00 0.00 0.00 0.00 0.00 0.00 0.00 0.00 0.01 0.01 0.02 0.02 0.03 0.05 0.05 0.05 0.05 0.04 0.05 0.07 0.10
0.26 0.23 0.30 0.17 0.16 0.10 0.01 0.00 0.00 0.00 0.01 0.00 0.00 0.00 0.00 0.00 0.00 0.00 0.00 0.00 0.00 0.00 0.00 0.00 0.00 0.00 0.00 0.00 0.00 0.01 0.00 0.00 0.01 0.01 0.01 0.02 0.02 0.02 0.01 0.03 0.02 0.04 0.06 0.06
0.19 0.22 0.25 0.19 0.18 0.05 0.01 0.01 0.00 0.03 0.02 0.00 0.00 0.00 0.00 0.00 0.00 0.00 0.00 0.00 0.00 0.00 0.00 0.00 0.00 0.00 0.00 0.00 0.00 0.00 0.00 0.00 0.00 0.01 0.01 0.03 0.03 0.03 0.02 0.01 0.01 0.02 0.02 0.02
0.15 0.20 0.20 0.22 0.18 0.05 0.02 0.05 0.08 0.04 0.00 0.00 0.00 0.00 0.00 0.00 0.00 0.00 0.00 0.00 0.00 0.00 0.00 0.00 0.00 0.00 0.00 0.00 0.00 0.00 0.00 0.00 0.01 0.03 0.04 0.05 0.05 0.04 0.02 0.01 0.02 0.02 0.02 0.02
0.05 0.12 0.13 0.10 0.06 0.02 0.02 0.03 0.02 0.01 0.01 0.01 0.01 0.00 0.00 0.00 0.00 0.00 0.00 0.00 0.00 0.00 0.00 0.00 0.00 0.00 0.00 0.00 0.00 0.00 0.01 0.03 0.05 0.06 0.07 0.08 0.05 0.02 0.01 0.01 0.01 0.02 0.03 0.03
0.01 0.01 0.03 0.04 0.02 0.03 0.03 0.02 0.01 0.00 0.01 0.01 0.00 0.00 0.00 0.00 0.00 0.01 0.01 0.01 0.00 0.00 0.00 0.00 0.00 0.00 0.00 0.00 0.00 0.02 0.05 0.04 0.04 0.03 0.03 0.01 0.00 0.00 0.00 0.01 0.01 0.01 0.02 0.02
0.02 0.05 0.04 0.02 0.01 0.02 0.03 0.12 0.09 0.04 0.02 0.02 0.02 0.03 0.02 0.03 0.03 0.04 0.03 0.02 0.01 0.00 0.00 0.00 0.00 0.00 0.00 0.01 0.01 0.02 0.02 0.01 0.01 0.01 0.00 0.00 0.00 0.00 0.00 0.00 0.00 0.01 0.00 0.00
0.02 0.04 0.06 0.03 0.02 0.00 0.00 0.03 0.03 0.08 0.10 0.04 0.04 0.04 0.08 0.12 0.06 0.04 0.05 0.03 0.03 0.02 0.00 0.00 0.00 0.00 0.02 0.02 0.03 0.01 0.01 0.00 0.00 0.00 0.00 0.00 0.00 0.00 0.00 0.00 0.00 0.00 0.01 0.01

GFSCGP_prec_precacc24_054.txt.gz
Total_Precipitation_Accumulation
0.00 0.00 0.00 0.00 0.00 0.00 0.00 0.00 0.00 0.00 0.00 0.00 0.00 0.02 0.10 0.14 0.01 0.01 0.00 0.00 0.00 0.00 0.00 0.00 0.00 0.00 0.00 0.00 0.01 0.04 0.20 0.19 0.33 0.31 0.15 0.10 0.07 0.03 0.06 0.15 0.07 0.23 0.11 0.12
0.00 0.00 0.00 0.00 0.00 0.00 0.00 0.00 0.00 0.00 0.00 0.00 0.00 0.00 0.01 0.04 0.00 0.00 0.00 0.00 0.00 0.00 0.00 0.00 0.00 0.00 0.00 0.00 0.00 0.00 0.03 0.07 0.16 0.21 0.22 0.07 0.03 0.01 0.03 0.10 0.13 0.22 0.20 0.07
0.00 0.00 0.00 0.00 0.00 0.00 0.00 0.00 0.00 0.00 0.00 0.00 0.00 0.00 0.00 0.01 0.01 0.03 0.00 0.00 0.00 0.00 0.00 0.00 0.00 0.00 0.00 0.00 0.00 0.00 0.00 0.02 0.04 0.11 0.21 0.14 0.09 0.05 0.02 0.02 0.06 0.10 0.11 0.05
0.00 0.00 0.00 0.00 0.00 0.00 0.00 0.00 0.00 0.00 0.00 0.00 0.00 0.00 0.00 0.00 0.01 0.02 0.01 0.00 0.00 0.00 0.00 0.00 0.00 0.00 0.00 0.00 0.00 0.00 0.00 0.00 0.01 0.02 0.05 0.04 0.04 0.02 0.01 0.01 0.02 0.03 0.01 0.07
0.00 0.00 0.00 0.00 0.00 0.00 0.00 0.00 0.00 0.00 0.00 0.00 0.00 0.00 0.00 0.00 0.01 0.01 0.01 0.00 0.01 0.01 0.00 0.00 0.00 0.00 0.00 0.00 0.00 0.00 0.00 0.00 0.00 0.00 0.01 0.01 0.01 0.00 0.00 0.00 0.00 0.00 0.02 0.03
0.00 0.00 0.00 0.00 0.00 0.00 0.00 0.00 0.00 0.00 0.00 0.00 0.00 0.00 0.00 0.00 0.00 0.01 0.01 0.01 0.01 0.01 0.00 0.00 0.00 0.00 0.00 0.00 0.00 0.00 0.00 0.00 0.00 0.00 0.00 0.00 0.03 0.01 0.00 0.01 0.02 0.03 0.02 0.16
0.00 0.00 0.00 0.00 0.00 0.00 0.00 0.00 0.00 0.01 0.00 0.00 0.00 0.00 0.00 0.00 0.00 0.00 0.00 0.01 0.02 0.00 0.00 0.00 0.00 0.00 0.00 0.00 0.00 0.00 0.00 0.00 0.00 0.00 0.00 0.00 0.01 0.01 0.00 0.02 0.13 0.16 0.14 0.27
0.00 0.01 0.00 0.00 0.00 0.00 0.00 0.00 0.00 0.02 0.03 0.03 0.03 0.00 0.00 0.01 0.01 0.00 0.00 0.00 0.00 0.00 0.00 0.00 0.00 0.00 0.00 0.00 0.00 0.00 0.00 0.00 0.00 0.00 0.00 0.00 0.01 0.01 0.05 0.12 0.30 0.36 0.28 0.27
0.00 0.00 0.00 0.00 0.00 0.00 0.00 0.00 0.00 0.00 0.01 0.04 0.05 0.00 0.00 0.00 0.00 0.00 0.00 0.00 0.00 0.00 0.00 0.00 0.00 0.00 0.00 0.00 0.00 0.00 0.00 0.00 0.00 0.00 0.00 0.01 0.06 0.12 0.22 0.29 0.26 0.30 0.23 0.14
0.00 0.00 0.00 0.00 0.00 0.00 0.00 0.00 0.00 0.00 0.02 0.04 0.00 0.00 0.00 0.00 0.00 0.00 0.00 0.00 0.00 0.00 0.00 0.00 0.01 0.00 0.00 0.00 0.02 0.01 0.00 0.02 0.07 0.09 0.02 0.04 0.13 0.13 0.17 0.18 0.32 0.32 0.34 0.37
0.00 0.00 0.00 0.00 0.00 0.00 0.00 0.00 0.00 0.00 0.00 0.01 0.01 0.00 0.00 0.01 0.00 0.00 0.00 0.00 0.00 0.00 0.00 0.00 0.01 0.01 0.01 0.00 0.01 0.05 0.12 0.32 0.28 0.29 0.29 0.21 0.18 0.37 0.50 0.47 0.49 0.52 0.53 0.53
0.00 0.00 0.00 0.00 0.00 0.00 0.00 0.00 0.00 0.00 0.00 0.00 0.01 0.00 0.00 0.00 0.00 0.00 0.00 0.00 0.00 0.00 0.00 0.00 0.00 0.00 0.01 0.01 0.01 0.02 0.06 0.14 0.23 0.33 0.54 0.74 0.58 0.87 1.42 1.49 1.17 1.42 1.44 1.11
0.00 0.00 0.00 0.00 0.00 0.00 0.00 0.00 0.00 0.00 0.00 0.00 0.03 0.00 0.00 0.00 0.00 0.00 0.00 0.00 0.00 0.00 0.00 0.00 0.00 0.00 0.00 0.00 0.00 0.01 0.06 0.17 0.36 0.53 0.68 0.74 0.63 1.02 0.94 0.64 0.48 0.40 0.49 0.47
0.01 0.01 0.00 0.01 0.00 0.00 0.00 0.00 0.00 0.00 0.00 0.00 0.00 0.00 0.00 0.01 0.00 0.00 0.00 0.00 0.00 0.00 0.00 0.00 0.00 0.00 0.00 0.00 0.00 0.00 0.02 0.17 0.25 0.24 0.35 0.27 0.23 0.33 0.34 0.30 0.23 0.20 0.17 0.17
0.05 0.05 0.01 0.00 0.00 0.00 0.00 0.00 0.00 0.00 0.00 0.01 0.00 0.00 0.00 0.00 0.00 0.00 0.00 0.00 0.00 0.00 0.00 0.00 0.00 0.00 0.00 0.00 0.00 0.00 0.01 0.05 0.09 0.08 0.14 0.11 0.21 0.16 0.15 0.10 0.12 0.15 0.18 0.25
0.03 0.08 0.01 0.00 0.00 0.00 0.00 0.00 0.00 0.00 0.00 0.00 0.00 0.00 0.00 0.00 0.00 0.00 0.00 0.00 0.00 0.00 0.00 0.00 0.00 0.00 0.00 0.00 0.00 0.00 0.01 0.04 0.04 0.04 0.08 0.06 0.10 0.10 0.10 0.06 0.05 0.09 0.11 0.13
0.11 0.13 0.05 0.01 0.00 0.00 0.00 0.00 0.00 0.00 0.00 0.00 0.00 0.00 0.00 0.00 0.00 0.00 0.00 0.00 0.00 0.00 0.00 0.00 0.00 0.00 0.01 0.00 0.00 0.00 0.01 0.01 0.02 0.05 0.04 0.05 0.06 0.08 0.06 0.08 0.06 0.08 0.11 0.09
0.24 0.16 0.13 0.06 0.01 0.04 0.02 0.00 0.00 0.00 0.00 0.00 0.00 0.00 0.00 0.00 0.00 0.00 0.00 0.00 0.00 0.00 0.00 0.00 0.00 0.00 0.00 0.00 0.00 0.00 0.00 0.00 0.01 0.03 0.04 0.04 0.04 0.05 0.06 0.06 0.08 0.08 0.08 0.09
0.15 0.20 0.21 0.14 0.08 0.04 0.00 0.00 0.00 0.00 0.00 0.00 0.00 0.00 0.00 0.00 0.00 0.00 0.00 0.00 0.00 0.00 0.00 0.00 0.00 0.00 0.00 0.00 0.00 0.00 0.00 0.01 0.01 0.02 0.02 0.03 0.05 0.05 0.05 0.05 0.04 0.05 0.07 0.10
0.26 0.23 0.31 0.18 0.16 0.10 0.01 0.00 0.00 0.00 0.01 0.00 0.00 0.00 0.00 0.00 0.00 0.00 0.00 0.00 0.00 0.00 0.00 0.00 0.00 0.00 0.00 0.00 0.00 0.01 0.00 0.00 0.01 0.01 0.01 0.02 0.02 0.02 0.01 0.03 0.02 0.04 0.06 0.06
0.20 0.23 0.25 0.21 0.19 0.05 0.01 0.01 0.00 0.03 0.02 0.00 0.00 0.00 0.00 0.00 0.00 0.00 0.00 0.00 0.00 0.00 0.00 0.00 0.00 0.00 0.00 0.00 0.00 0.00 0.00 0.00 0.00 0.01 0.01 0.03 0.03 0.04 0.04 0.01 0.02 0.02 0.02 0.02
0.16 0.20 0.20 0.23 0.19 0.05 0.02 0.06 0.08 0.04 0.00 0.00 0.00 0.00 0.00 0.00 0.00 0.00 0.00 0.00 0.00 0.00 0.00 0.00 0.00 0.00 0.00 0.00 0.00 0.00 0.00 0.00 0.01 0.03 0.04 0.05 0.06 0.08 0.06 0.05 0.06 0.05 0.03 0.03
0.06 0.12 0.13 0.10 0.06 0.02 0.02 0.04 0.03 0.01 0.01 0.01 0.01 0.00 0.00 0.00 0.00 0.00 0.00 0.00 0.00 0.00 0.00 0.00 0.00 0.00 0.00 0.00 0.00 0.00 0.01 0.03 0.05 0.06 0.07 0.09 0.09 0.06 0.05 0.04 0.04 0.03 0.03 0.04
0.01 0.01 0.03 0.04 0.02 0.03 0.03 0.02 0.01 0.00 0.01 0.01 0.00 0.00 0.00 0.00 0.00 0.01 0.02 0.01 0.01 0.01 0.01 0.00 0.00 0.00 0.00 0.00 0.00 0.02 0.05 0.04 0.04 0.03 0.07 0.06 0.05 0.06 0.03 0.02 0.02 0.02 0.03 0.04
0.02 0.05 0.04 0.02 0.01 0.02 0.03 0.12 0.09 0.04 0.02 0.02 0.02 0.03 0.02 0.03 0.03 0.04 0.06 0.07 0.06 0.04 0.02 0.01 0.01 0.02 0.02 0.03 0.03 0.04 0.04 0.06 0.07 0.05 0.04 0.02 0.02 0.01 0.00 0.00 0.02 0.02 0.02 0.04
0.02 0.04 0.06 0.03 0.02 0.00 0.00 0.03 0.03 0.08 0.10 0.04 0.04 0.04 0.08 0.12 0.07 0.05 0.05 0.08 0.12 0.16 0.16 0.05 0.02 0.02 0.03 0.07 0.10 0.08 0.07 0.06 0.05 0.02 0.01 0.02 0.00 0.00 0.00 0.01 0.03 0.05 0.05 0.04

GFSCGP_prec_precacc24_057.txt.gz
Total_Precipitation_Accumulation
0.00 0.00 0.00 0.00 0.00 0.00 0.00 0.00 0.00 0.00 0.00 0.00 0.00 0.01 0.10 0.14 0.01 0.01 0.00 0.00 0.00 0.00 0.00 0.00 0.00 0.00 0.00 0.00 0.01 0.05 0.21 0.19 0.32 0.30 0.17 0.15 0.15 0.10 0.05 0.07 0.06 0.23 0.11 0.12
0.00 0.00 0.00 0.00 0.00 0.00 0.00 0.00 0.00 0.00 0.00 0.00 0.00 0.00 0.01 0.04 0.00 0.00 0.00 0.00 0.00 0.00 0.00 0.00 0.00 0.00 0.00 0.00 0.01 0.01 0.03 0.08 0.16 0.22 0.23 0.08 0.04 0.04 0.01 0.02 0.10 0.21 0.21 0.07
0.00 0.00 0.00 0.00 0.00 0.00 0.00 0.00 0.00 0.00 0.00 0.00 0.00 0.00 0.00 0.01 0.01 0.03 0.00 0.00 0.00 0.00 0.00 0.00 0.00 0.00 0.00 0.00 0.00 0.01 0.00 0.02 0.04 0.13 0.23 0.15 0.11 0.06 0.04 0.02 0.05 0.08 0.13 0.04
0.00 0.00 0.00 0.00 0.00 0.00 0.00 0.00 0.00 0.00 0.00 0.00 0.00 0.00 0.00 0.00 0.01 0.02 0.01 0.00 0.00 0.00 0.00 0.00 0.00 0.00 0.00 0.00 0.00 0.01 0.00 0.00 0.01 0.02 0.05 0.05 0.07 0.04 0.01 0.00 0.01 0.03 0.03 0.09
0.00 0.00 0.00 0.00 0.00 0.00 0.00 0.00 0.00 0.00 0.00 0.00 0.00 0.00 0.00 0.00 0.01 0.01 0.01 0.00 0.01 0.01 0.00 0.00 0.00 0.00 0.00 0.00 0.00 0.00 0.01 0.00 0.00 0.00 0.01 0.01 0.01 0.01 0.01 0.01 0.01 0.01 0.04 0.07
0.00 0.00 0.00 0.00 0.00 0.00 0.00 0.00 0.00 0.00 0.00 0.00 0.00 0.00 0.00 0.00 0.00 0.01 0.01 0.01 0.01 0.01 0.00 0.00 0.00 0.00 0.00 0.00 0.00 0.00 0.01 0.01 0.00 0.00 0.00 0.00 0.03 0.01 0.00 0.01 0.02 0.03 0.03 0.18
0.00 0.00 0.00 0.00 0.00 0.00 0.00 0.00 0.00 0.00 0.00 0.00 0.00 0.00 0.00 0.00 0.00 0.00 0.00 0.01 0.02 0.00 0.00 0.00 0.00 0.00 0.00 0.00 0.00 0.00 0.00 0.00 0.01 0.00 0.00 0.00 0.01 0.01 0.00 0.01 0.12 0.15 0.13 0.26
0.00 0.01 0.00 0.00 0.00 0.00 0.00 0.00 0.00 0.00 0.02 0.03 0.02 0.00 0.00 0.01 0.01 0.00 0.00 0.00 0.00 0.00 0.00 0.00 0.00 0.00 0.00 0.00 0.00 0.00 0.00 0.00 0.00 0.00 0.00 0.00 0.01 0.01 0.04 0.08 0.24 0.32 0.22 0.14
0.00 0.00 0.00 0.00 0.00 0.00 0.00 0.00 0.00 0.00 0.01 0.04 0.05 0.00 0.00 0.00 0.00 0.00 0.00 0.00 0.00 0.00 0.00 0.00 0.00 0.00 0.00 0.00 0.00 0.00 0.00 0.00 0.00 0.00 0.00 0.01 0.07 0.12 0.20 0.23 0.21 0.27 0.22 0.13
0.00 0.00 0.00 0.00 0.00 0.00 0.00 0.00 0.00 0.00 0.01 0.03 0.00 0.00 0.00 0.00 0.00 0.00 0.00 0.00 0.00 0.00 0.00 0.00 0.01 0.00 0.00 0.00 0.02 0.01 0.00 0.02 0.07 0.09 0.02 0.03 0.13 0.12 0.13 0.13 0.30 0.31 0.33 0.37
0.00 0.00 0.00 0.00 0.00 0.00 0.00 0.00 0.00 0.00 0.00 0.01 0.01 0.00 0.00 0.01 0.00 0.00 0.00 0.00 0.00 0.00 0.00 0.00 0.01 0.01 0.01 0.00 0.01 0.05 0.12 0.32 0.28 0.29 0.29 0.20 0.18 0.31 0.43 0.44 0.48 0.50 0.51 0.52
0.00 0.00 0.00 0.00 0.00 0.00 0.00 0.00 0.00 0.00 0.00 0.00 0.01 0.00 0.00 0.00 0.00 0.00 0.00 0.00 0.00 0.00 0.00 0.00 0.00 0.00 0.01 0.01 0.01 0.02 0.06 0.14 0.23 0.33 0.54 0.73 0.55 0.83 1.36 1.43 1.14 1.39 1.43 1.10
0.01 0.00 0.00 0.00 0.00 0.00 0.00 0.00 0.00 0.00 0.00 0.01 0.03 0.00 0.00 0.00 0.00 0.00 0.00 0.00 0.00 0.00 0.00 0.00 0.00 0.00 0.00 0.00 0.00 0.01 0.06 0.17 0.36 0.53 0.68 0.74 0.62 1.00 0.92 0.61 0.44 0.37 0.49 0.47
0.01 0.01 0.00 0.01 0.00 0.00 0.00 0.00 0.00 0.00 0.00 0.00 0.01 0.00 0.00 0.01 0.00 0.00 0.00 0.00 0.00 0.00 0.00 0.00 0.00 0.00 0.00 0.00 0.00 0.00 0.02 0.17 0.25 0.23 0.33 0.26 0.20 0.32 0.33 0.29 0.23 0.19 0.17 0.17
0.06 0.06 0.01 0.00 0.00 0.00 0.00 0.00 0.00 0.00 0.00 0.01 0.00 0.00 0.00 0.00 0.00 0.00 0.00 0.00 0.00 0.00 0.00 0.00 0.00 0.00 0.00 0.00 0.00 0.00 0.01 0.05 0.07 0.05 0.10 0.09 0.20 0.16 0.15 0.10 0.13 0.15 0.18 0.25
0.03 0.09 0.01 0.00 0.00 0.00 0.00 0.00 0.00 0.00 0.00 0.00 0.00 0.00 0.00 0.00 0.00 0.00 0.00 0.00 0.00 0.00 0.00 0.00 0.00 0.00 0.00 0.00 0.00 0.00 0.00 0.02 0.03 0.03 0.07 0.06 0.10 0.10 0.10 0.06 0.05 0.09 0.11 0.13
0.11 0.14 0.06 0.01 0.00 0.00 0.00 0.00 0.00 0.00 0.00 0.00 0.00 0.00 0.00 0.00 0.00 0.00 0.00 0.00 0.00 0.00 0.00 0.00 0.00 0.00 0.01 0.00 0.00 0.00 0.00 0.01 0.02 0.05 0.04 0.05 0.06 0.08 0.06 0.08 0.06 0.08 0.11 0.09
0.24 0.17 0.13 0.06 0.01 0.04 0.02 0.00 0.00 0.00 0.00 0.00 0.00 0.00 0.00 0.00 0.00 0.00 0.00 0.00 0.00 0.00 0.00 0.00 0.00 0.00 0.00 0.00 0.00 0.00 0.00 0.00 0.01 0.03 0.04 0.04 0.04 0.05 0.06 0.06 0.08 0.08 0.08 0.09
0.15 0.20 0.22 0.14 0.08 0.04 0.00 0.00 0.00 0.00 0.00 0.00 0.00 0.00 0.00 0.00 0.00 0.00 0.00 0.00 0.00 0.00 0.00 0.00 0.00 0.00 0.00 0.00 0.00 0.00 0.00 0.01 0.01 0.02 0.02 0.03 0.05 0.05 0.05 0.05 0.04 0.05 0.07 0.10
0.26 0.23 0.31 0.18 0.16 0.10 0.01 0.00 0.00 0.00 0.01 0.00 0.00 0.00 0.00 0.00 0.00 0.00 0.00 0.00 0.00 0.00 0.00 0.00 0.00 0.00 0.00 0.00 0.00 0.01 0.00 0.00 0.01 0.01 0.01 0.02 0.02 0.02 0.01 0.03 0.02 0.04 0.06 0.06
0.21 0.24 0.25 0.19 0.20 0.06 0.01 0.01 0.00 0.03 0.04 0.00 0.00 0.00 0.00 0.00 0.00 0.00 0.00 0.00 0.00 0.00 0.00 0.00 0.00 0.00 0.00 0.00 0.00 0.00 0.00 0.00 0.00 0.01 0.01 0.03 0.03 0.04 0.04 0.01 0.02 0.02 0.03 0.02
0.14 0.19 0.20 0.23 0.20 0.06 0.02 0.06 0.09 0.08 0.01 0.00 0.00 0.00 0.00 0.00 0.00 0.00 0.00 0.00 0.00 0.00 0.00 0.00 0.00 0.00 0.00 0.00 0.00 0.00 0.00 0.00 0.01 0.03 0.04 0.05 0.06 0.08 0.06 0.05 0.06 0.06 0.04 0.04
0.06 0.09 0.10 0.10 0.06 0.02 0.02 0.06 0.04 0.01 0.01 0.01 0.01 0.00 0.00 0.00 0.00 0.00 0.00 0.00 0.00 0.00 0.00 0.00 0.00 0.00 0.00 0.00 0.00 0.00 0.01 0.03 0.05 0.06 0.07 0.09 0.09 0.06 0.05 0.05 0.06 0.06 0.06 0.07
0.02 0.02 0.05 0.07 0.02 0.03 0.03 0.02 0.01 0.00 0.01 0.01 0.00 0.00 0.00 0.00 0.00 0.01 0.02 0.01 0.01 0.01 0.01 0.00 0.00 0.00 0.00 0.00 0.00 0.02 0.05 0.04 0.04 0.03 0.07 0.06 0.05 0.08 0.05 0.05 0.05 0.06 0.06 0.07
0.02 0.05 0.05 0.03 0.01 0.02 0.03 0.12 0.09 0.04 0.02 0.02 0.02 0.03 0.02 0.03 0.03 0.04 0.06 0.07 0.06 0.04 0.03 0.02 0.01 0.02 0.03 0.04 0.06 0.07 0.06 0.09 0.11 0.08 0.07 0.06 0.06 0.06 0.05 0.05 0.08 0.05 0.06 0.08
0.02 0.04 0.08 0.05 0.04 0.01 0.02 0.03 0.03 0.08 0.10 0.04 0.04 0.04 0.08 0.12 0.07 0.05 0.05 0.08 0.12 0.16 0.18 0.15 0.13 0.10 0.10 0.12 0.16 0.16 0.15 0.14 0.14 0.11 0.10 0.11 0.09 0.07 0.06 0.05 0.08 0.13 0.13 0.13

GFSCGP_prec_precacc24_060.txt.gz
Total_Precipitation_Accumulation
0.00 0.00 0.00 0.00 0.00 0.00 0.00 0.00 0.00 0.00 0.00 0.00 0.00 0.00 0.00 0.00 0.00 0.01 0.00 0.00 0.00 0.00 0.00 0.00 0.00 0.00 0.00 0.00 0.02 0.05 0.21 0.19 0.32 0.28 0.18 0.20 0.26 0.39 0.20 0.08 0.04 0.03 0.03 0.10
0.00 0.00 0.00 0.00 0.00 0.00 0.00 0.00 0.00 0.00 0.00 0.00 0.00 0.00 0.00 0.00 0.00 0.00 0.00 0.00 0.00 0.00 0.00 0.00 0.00 0.00 0.00 0.00 0.01 0.01 0.03 0.08 0.16 0.22 0.23 0.09 0.09 0.11 0.08 0.03 0.07 0.06 0.10 0.07
0.01 0.00 0.00 0.00 0.00 0.00 0.00 0.00 0.00 0.00 0.00 0.00 0.00 0.00 0.00 0.01 0.01 0.03 0.00 0.00 0.00 0.00 0.00 0.00 0.00 0.00 0.00 0.00 0.01 0.01 0.00 0.02 0.05 0.13 0.23 0.16 0.11 0.08 0.07 0.03 0.04 0.05 0.08 0.04
0.03 0.00 0.00 0.00 0.00 0.00 0.00 0.00 0.00 0.00 0.00 0.00 0.00 0.00 0.00 0.00 0.01 0.02 0.01 0.00 0.00 0.00 0.00 0.00 0.00 0.00 0.00 0.00 0.00 0.01 0.01 0.00 0.01 0.03 0.06 0.05 0.07 0.05 0.01 0.00 0.02 0.03 0.04 0.08
0.05 0.01 0.00 0.00 0.00 0.00 0.00 0.00 0.00 0.00 0.00 0.00 0.00 0.00 0.00 0.00 0.01 0.01 0.01 0.00 0.01 0.01 0.00 0.00 0.00 0.00 0.00 0.00 0.00 0.01 0.01 0.00 0.00 0.01 0.01 0.01 0.01 0.01 0.01 0.01 0.01 0.01 0.05 0.07
0.00 0.00 0.00 0.00 0.00 0.00 0.00 0.00 0.00 0.00 0.00 0.00 0.00 0.00 0.00 0.00 0.00 0.01 0.01 0.01 0.01 0.01 0.00 0.00 0.00 0.00 0.00 0.00 0.00 0.00 0.01 0.01 0.00 0.00 0.00 0.00 0.02 0.01 0.00 0.00 0.00 0.03 0.03 0.17
0.00 0.00 0.00 0.00 0.00 0.00 0.00 0.00 0.00 0.00 0.00 0.00 0.00 0.00 0.00 0.00 0.00 0.00 0.00 0.00 0.00 0.00 0.00 0.00 0.00 0.00 0.00 0.00 0.00 0.00 0.00 0.01 0.01 0.00 0.00 0.00 0.01 0.01 0.00 0.00 0.05 0.12 0.11 0.26
0.01 0.01 0.00 0.00 0.00 0.00 0.00 0.00 0.00 0.00 0.00 0.00 0.01 0.00 0.00 0.01 0.01 0.00 0.00 0.00 0.00 0.00 0.00 0.00 0.00 0.00 0.00 0.00 0.00 0.00 0.00 0.00 0.01 0.00 0.00 0.00 0.01 0.00 0.00 0.02 0.13 0.21 0.15 0.12
0.00 0.00 0.00 0.00 0.00 0.00 0.00 0.00 0.00 0.00 0.00 0.00 0.00 0.00 0.00 0.00 0.00 0.00 0.00 0.00 0.00 0.00 0.00 0.00 0.00 0.00 0.00 0.00 0.00 0.00 0.00 0.00 0.00 0.00 0.00 0.00 0.01 0.01 0.01 0.06 0.12 0.16 0.18 0.12
0.00 0.00 0.00 0.00 0.00 0.00 0.00 0.00 0.00 0.00 0.00 0.00 0.00 0.00 0.00 0.00 0.00 0.00 0.00 0.00 0.00 0.00 0.00 0.00 0.01 0.00 0.00 0.00 0.02 0.01 0.00 0.02 0.07 0.09 0.02 0.00 0.00 0.01 0.04 0.05 0.10 0.17 0.27 0.35
0.00 0.00 0.00 0.00 0.00 0.00 0.00 0.00 0.00 0.00 0.00 0.00 0.00 0.00 0.00 0.00 0.00 0.00 0.00 0.00 0.00 0.00 0.00 0.00 0.01 0.01 0.01 0.00 0.01 0.05 0.12 0.32 0.28 0.28 0.24 0.14 0.07 0.12 0.31 0.37 0.35 0.39 0.45 0.48
0.00 0.00 0.00 0.00 0.00 0.00 0.00 0.00 0.00 0.01 0.01 0.01 0.01 0.00 0.00 0.00 0.00 0.00 0.00 0.00 0.00 0.00 0.00 0.00 0.00 0.00 0.01 0.01 0.01 0.02 0.06 0.14 0.23 0.32 0.42 0.47 0.46 0.64 1.22 1.27 1.09 1.34 1.40 1.08
0.01 0.00 0.00 0.01 0.02 0.00 0.00 0.00 0.00 0.00 0.03 0.06 0.04 0.01 0.00 0.00 0.00 0.00 0.00 0.00 0.00 0.00 0.00 0.00 0.00 0.00 0.00 0.00 0.00 0.01 0.06 0.17 0.35 0.51 0.58 0.58 0.58 0.74 0.81 0.53 0.39 0.33 0.47 0.47
0.01 0.01 0.00 0.02 0.05 0.02 0.01 0.00 0.00 0.00 0.05 0.04 0.03 0.01 0.02 0.00 0.00 0.00 0.00 0.00 0.00 0.00 0.00 0.00 0.00 0.00 0.00 0.00 0.00 0.00 0.02 0.16 0.23 0.20 0.27 0.24 0.15 0.22 0.29 0.27 0.21 0.18 0.17 0.16
0.06 0.07 0.03 0.00 0.00 0.00 0.01 0.01 0.00 0.01 0.02 0.03 0.00 0.01 0.01 0.01 0.00 0.00 0.00 0.00 0.00 0.00 0.00 0.00 0.00 0.00 0.00 0.00 0.00 0.00 0.01 0.04 0.02 0.02 0.08 0.08 0.13 0.15 0.14 0.10 0.13 0.15 0.18 0.25
0.05 0.11 0.01 0.00 0.00 0.00 0.00 0.00 0.04 0.00 0.00 0.00 0.00 0.01 0.00 0.00 0.00 0.00 0.00 0.00 0.00 0.00 0.00 0.00 0.00 0.00 0.00 0.00 0.00 0.00 0.00 0.01 0.01 0.02 0.06 0.05 0.09 0.09 0.10 0.06 0.05 0.09 0.11 0.13
0.11 0.15 0.12 0.04 0.00 0.00 0.00 0.00 0.00 0.01 0.00 0.00 0.00 0.00 0.00 0.00 0.00 0.00 0.00 0.00 0.00 0.00 0.00 0.00 0.00 0.00 0.00 0.00 0.00 0.00 0.00 0.00 0.01 0.04 0.04 0.05 0.06 0.08 0.06 0.08 0.06 0.08 0.11 0.09
0.24 0.17 0.17 0.11 0.03 0.05 0.02 0.00 0.00 0.00 0.00 0.00 0.00 0.00 0.00 0.00 0.00 0.00 0.00 0.00 0.00 0.00 0.00 0.00 0.00 0.00 0.00 0.00 0.00 0.00 0.00 0.00 0.01 0.03 0.04 0.04 0.04 0.05 0.06 0.06 0.08 0.08 0.08 0.09
0.15 0.18 0.23 0.15 0.12 0.06 0.01 0.00 0.00 0.00 0.00 0.00 0.00 0.00 0.00 0.00 0.00 0.00 0.00 0.00 0.00 0.00 0.00 0.00 0.00 0.00 0.00 0.00 0.00 0.00 0.00 0.01 0.01 0.02 0.02 0.03 0.05 0.05 0.05 0.05 0.04 0.05 0.07 0.10
0.25 0.21 0.26 0.19 0.17 0.10 0.01 0.00 0.00 0.00 0.01 0.00 0.00 0.00 0.00 0.00 0.00 0.00 0.00 0.00 0.00 0.00 0.00 0.00 0.00 0.00 0.00 0.00 0.00 0.01 0.00 0.00 0.01 0.01 0.01 0.02 0.02 0.02 0.01 0.03 0.02 0.04 0.06 0.06
0.15 0.23 0.22 0.18 0.19 0.06 0.01 0.01 0.00 0.04 0.08 0.00 0.00 0.00 0.00 0.00 0.00 0.00 0.00 0.00 0.00 0.00 0.00 0.00 0.00 0.00 0.00 0.00 0.00 0.00 0.00 0.00 0.00 0.01 0.01 0.03 0.03 0.04 0.04 0.02 0.02 0.02 0.03 0.02
0.04 0.12 0.18 0.19 0.19 0.07 0.02 0.06 0.11 0.13 0.02 0.00 0.00 0.00 0.00 0.00 0.00 0.00 0.00 0.00 0.00 0.00 0.00 0.00 0.00 0.00 0.00 0.00 0.00 0.00 0.00 0.00 0.01 0.03 0.04 0.05 0.06 0.08 0.06 0.05 0.06 0.06 0.04 0.04
0.11 0.01 0.05 0.08 0.06 0.02 0.03 0.07 0.06 0.01 0.02 0.01 0.01 0.00 0.00 0.00 0.00 0.00 0.00 0.00 0.00 0.00 0.00 0.00 0.00 0.00 0.00 0.00 0.00 0.00 0.01 0.03 0.05 0.06 0.07 0.09 0.09 0.06 0.05 0.06 0.08 0.08 0.06 0.07
0.11 0.02 0.06 0.09 0.03 0.04 0.04 0.04 0.01 0.00 0.01 0.01 0.00 0.00 0.00 0.00 0.00 0.01 0.02 0.01 0.01 0.01 0.01 0.00 0.00 0.00 0.00 0.00 0.00 0.02 0.05 0.04 0.04 0.04 0.08 0.06 0.06 0.08 0.05 0.08 0.09 0.08 0.08 0.10
0.10 0.16 0.09 0.09 0.05 0.08 0.19 0.18 0.09 0.04 0.02 0.02 0.02 0.03 0.02 0.03 0.03 0.04 0.06 0.07 0.06 0.04 0.03 0.02 0.01 0.02 0.03 0.04 0.06 0.07 0.07 0.10 0.12 0.10 0.11 0.10 0.09 0.09 0.08 0.09 0.13 0.11 0.13 0.19
0.03 0.11 0.13 0.12 0.11 0.08 0.22 0.05 0.02 0.07 0.09 0.04 0.04 0.04 0.08 0.12 0.07 0.05 0.05 0.08 0.12 0.16 0.19 0.15 0.13 0.10 0.10 0.12 0.18 0.18 0.17 0.16 0.17 0.16 0.17 0.20 0.15 0.14 0.13 0.11 0.16 0.28 0.29 0.27

GFSCGP_prec_precacc24_063.txt.gz
Total_Precipitation_Accumulation
0.00 0.00 0.00 0.00 0.00 0.00 0.00 0.00 0.00 0.00 0.00 0.00 0.00 0.00 0.00 0.00 0.00 0.00 0.00 0.00 0.00 0.00 0.00 0.00 0.00 0.00 0.00 0.00 0.02 0.05 0.21 0.20 0.32 0.28 0.18 0.21 0.29 0.46 0.25 0.18 0.06 0.01 0.00 0.02
0.00 0.00 0.00 0.00 0.00 0.00 0.00 0.00 0.00 0.00 0.00 0.00 0.00 0.00 0.00 0.00 0.00 0.00 0.00 0.00 0.00 0.00 0.00 0.00 0.00 0.00 0.00 0.00 0.01 0.02 0.03 0.08 0.17 0.22 0.23 0.09 0.09 0.14 0.13 0.09 0.09 0.02 0.02 0.01
0.02 0.00 0.00 0.00 0.00 0.00 0.00 0.00 0.00 0.00 0.00 0.00 0.00 0.00 0.00 0.00 0.00 0.00 0.00 0.00 0.00 0.00 0.00 0.00 0.00 0.00 0.00 0.00 0.01 0.01 0.00 0.02 0.05 0.13 0.24 0.16 0.12 0.10 0.11 0.05 0.03 0.00 0.04 0.00
0.07 0.00 0.00 0.00 0.00 0.00 0.00 0.00 0.00 0.00 0.00 0.00 0.00 0.00 0.00 0.00 0.00 0.00 0.00 0.00 0.00 0.00 0.00 0.00 0.00 0.00 0.00 0.00 0.00 0.01 0.01 0.00 0.01 0.03 0.06 0.05 0.07 0.06 0.02 0.00 0.01 0.01 0.03 0.03
0.06 0.02 0.02 0.00 0.00 0.00 0.00 0.00 0.00 0.00 0.00 0.00 0.00 0.00 0.00 0.00 0.00 0.00 0.00 0.00 0.00 0.00 0.00 0.00 0.00 0.00 0.00 0.00 0.00 0.01 0.01 0.01 0.00 0.01 0.01 0.01 0.01 0.01 0.01 0.01 0.00 0.01 0.03 0.05
0.00 0.01 0.01 0.00 0.00 0.00 0.00 0.00 0.00 0.00 0.00 0.00 0.00 0.00 0.00 0.00 0.00 0.00 0.00 0.00 0.00 0.00 0.00 0.00 0.00 0.00 0.00 0.00 0.00 0.00 0.01 0.01 0.00 0.00 0.00 0.00 0.00 0.00 0.00 0.00 0.00 0.00 0.01 0.06
0.00 0.00 0.00 0.00 0.00 0.00 0.00 0.01 0.00 0.00 0.00 0.00 0.00 0.00 0.00 0.00 0.00 0.00 0.00 0.00 0.00 0.00 0.00 0.00 0.00 0.00 0.00 0.00 0.00 0.00 0.00 0.01 0.01 0.00 0.00 0.00 0.00 0.00 0.00 0.00 0.00 0.00 0.00 0.10
0.01 0.02 0.00 0.00 0.00 0.00 0.00 0.00 0.00 0.00 0.00 0.00 0.00 0.00 0.00 0.00 0.00 0.00 0.00 0.00 0.00 0.00 0.00 0.00 0.00 0.00 0.00 0.00 0.00 0.00 0.00 0.00 0.01 0.01 0.00 0.00 0.00 0.00 0.00 0.00 0.01 0.01 0.01 0.02
0.00 0.00 0.00 0.00 0.00 0.00 0.01 0.00 0.00 0.01 0.02 0.00 0.00 0.00 0.00 0.00 0.00 0.00 0.00 0.00 0.00 0.00 0.00 0.00 0.00 0.00 0.00 0.00 0.00 0.00 0.00 0.00 0.00 0.01 0.00 0.00 0.00 0.00 0.00 0.03 0.04 0.04 0.05 0.03
0.00 0.00 0.00 0.00 0.00 0.00 0.00 0.00 0.05 0.07 0.01 0.00 0.00 0.00 0.00 0.00 0.00 0.00 0.00 0.00 0.00 0.00 0.00 0.00 0.00 0.00 0.00 0.00 0.02 0.01 0.00 0.01 0.03 0.03 0.02 0.00 0.00 0.00 0.03 0.02 0.03 0.06 0.10 0.16
0.00 0.00 0.00 0.00 0.00 0.00 0.00 0.01 0.08 0.04 0.00 0.00 0.00 0.00 0.00 0.00 0.00 0.00 0.00 0.00 0.00 0.00 0.00 0.00 0.00 0.00 0.00 0.00 0.01 0.05 0.06 0.03 0.08 0.14 0.19 0.10 0.04 0.04 0.10 0.17 0.21 0.21 0.36 0.39
0.00 0.00 0.00 0.00 0.00 0.00 0.00 0.00 0.01 0.05 0.03 0.01 0.01 0.02 0.00 0.00 0.00 0.00 0.00 0.00 0.00 0.00 0.00 0.00 0.00 0.01 0.01 0.00 0.00 0.01 0.05 0.05 0.07 0.20 0.22 0.22 0.16 0.21 0.60 0.78 0.77 1.03 1.30 0.97
0.01 0.00 0.00 0.01 0.02 0.00 0.00 0.00 0.00 0.00 0.06 0.13 0.04 0.01 0.01 0.01 0.00 0.00 0.00 0.00 0.00 0.00 0.00 0.00 0.00 0.00 0.01 0.04 0.02 0.00 0.02 0.04 0.13 0.18 0.22 0.28 0.34 0.45 0.54 0.26 0.22 0.27 0.43 0.44
0.01 0.01 0.00 0.02 0.06 0.08 0.03 0.00 0.00 0.01 0.12 0.09 0.10 0.03 0.08 0.01 0.00 0.00 0.00 0.00 0.00 0.00 0.00 0.00 0.00 0.00 0.00 0.03 0.05 0.05 0.03 0.07 0.08 0.11 0.19 0.17 0.14 0.16 0.21 0.22 0.17 0.14 0.15 0.14
0.06 0.07 0.03 0.00 0.00 0.03 0.04 0.01 0.01 0.02 0.03 0.08 0.03 0.09 0.12 0.10 0.00 0.00 0.00 0.00 0.00 0.00 0.00 0.00 0.00 0.00 0.00 0.00 0.01 0.02 0.04 0.06 0.06 0.09 0.10 0.07 0.09 0.13 0.11 0.07 0.11 0.15 0.16 0.24
0.06 0.11 0.01 0.00 0.00 0.00 0.00 0.01 0.06 0.03 0.01 0.03 0.04 0.08 0.06 0.10 0.05 0.00 0.00 0.00 0.00 0.00 0.00 0.00 0.00 0.00 0.00 0.00 0.00 0.00 0.00 0.02 0.03 0.03 0.09 0.09 0.08 0.09 0.10 0.05 0.06 0.09 0.11 0.13
0.10 0.16 0.13 0.06 0.00 0.00 0.00 0.00 0.01 0.06 0.03 0.02 0.05 0.01 0.01 0.01 0.01 0.00 0.00 0.00 0.00 0.00 0.00 0.00 0.00 0.00 0.00 0.00 0.00 0.00 0.00 0.00 0.01 0.04 0.04 0.05 0.06 0.08 0.06 0.09 0.06 0.08 0.11 0.09
0.10 0.15 0.19 0.12 0.04 0.06 0.01 0.00 0.00 0.00 0.02 0.00 0.00 0.00 0.00 0.00 0.00 0.00 0.00 0.00 0.00 0.00 0.00 0.00 0.00 0.00 0.00 0.00 0.00 0.00 0.00 0.00 0.01 0.03 0.03 0.04 0.04 0.06 0.08 0.09 0.08 0.08 0.08 0.09
0.02 0.10 0.22 0.16 0.16 0.07 0.01 0.00 0.00 0.00 0.00 0.00 0.00 0.00 0.00 0.00 0.00 0.00 0.00 0.00 0.00 0.00 0.00 0.00 0.00 0.00 0.00 0.00 0.00 0.00 0.00 0.01 0.01 0.02 0.02 0.03 0.05 0.06 0.05 0.06 0.05 0.05 0.07 0.10
0.02 0.11 0.23 0.19 0.19 0.11 0.02 0.00 0.00 0.00 0.02 0.00 0.00 0.00 0.00 0.00 0.00 0.00 0.00 0.00 0.00 0.00 0.00 0.00 0.00 0.00 0.00 0.00 0.00 0.01 0.00 0.00 0.01 0.01 0.01 0.02 0.02 0.02 0.01 0.03 0.03 0.04 0.06 0.06
0.04 0.07 0.13 0.16 0.20 0.07 0.01 0.01 0.00 0.04 0.09 0.00 0.00 0.00 0.00 0.00 0.00 0.00 0.00 0.00 0.00 0.00 0.00 0.00 0.00 0.00 0.00 0.00 0.00 0.00 0.00 0.00 0.00 0.01 0.01 0.03 0.03 0.04 0.04 0.02 0.02 0.03 0.03 0.03
0.06 0.04 0.07 0.13 0.19 0.07 0.02 0.06 0.12 0.14 0.03 0.00 0.00 0.00 0.00 0.00 0.00 0.00 0.00 0.00 0.00 0.00 0.00 0.00 0.00 0.00 0.00 0.00 0.00 0.00 0.00 0.00 0.01 0.03 0.04 0.05 0.06 0.08 0.06 0.06 0.08 0.09 0.07 0.08
0.20 0.04 0.03 0.03 0.05 0.04 0.05 0.09 0.08 0.03 0.02 0.01 0.01 0.00 0.00 0.00 0.00 0.00 0.00 0.00 0.00 0.00 0.00 0.00 0.00 0.00 0.00 0.00 0.00 0.00 0.01 0.03 0.05 0.06 0.07 0.09 0.09 0.06 0.05 0.08 0.11 0.12 0.11 0.12
0.15 0.06 0.08 0.11 0.09 0.08 0.17 0.13 0.02 0.01 0.01 0.01 0.00 0.00 0.00 0.00 0.00 0.01 0.02 0.01 0.01 0.01 0.01 0.00 0.00 0.00 0.00 0.00 0.00 0.02 0.05 0.04 0.04 0.04 0.08 0.07 0.06 0.09 0.05 0.09 0.11 0.11 0.11 0.14
0.16 0.39 0.16 0.16 0.20 0.16 0.27 0.36 0.10 0.02 0.00 0.01 0.01 0.01 0.02 0.03 0.03 0.04 0.06 0.07 0.06 0.04 0.03 0.02 0.01 0.02 0.03 0.04 0.06 0.07 0.07 0.10 0.12 0.10 0.11 0.11 0.11 0.12 0.11 0.12 0.19 0.17 0.23 0.33
0.11 0.58 0.36 0.24 0.47 0.33 0.48 0.22 0.14 0.06 0.01 0.01 0.01 0.02 0.07 0.12 0.07 0.05 0.05 0.08 0.12 0.16 0.19 0.15 0.13 0.11 0.11 0.13 0.18 0.19 0.18 0.16 0.17 0.16 0.18 0.22 0.17 0.17 0.17 0.16 0.24 0.40 0.44 0.43

GFSCGP_prec_precacc24_066.txt.gz
Total_Precipitation_Accumulation
0.00 0.00 0.00 0.00 0.00 0.00 0.00 0.00 0.00 0.00 0.00 0.00 0.00 0.00 0.00 0.00 0.00 0.00 0.00 0.00 0.00 0.00 0.00 0.00 0.00 0.00 0.00 0.00 0.02 0.05 0.22 0.21 0.33 0.28 0.19 0.21 0.30 0.48 0.27 0.21 0.08 0.02 0.01 0.02
0.00 0.00 0.00 0.00 0.00 0.00 0.00 0.00 0.00 0.00 0.00 0.00 0.00 0.00 0.00 0.00 0.00 0.00 0.00 0.00 0.00 0.00 0.00 0.00 0.00 0.00 0.00 0.00 0.01 0.02 0.03 0.09 0.17 0.22 0.23 0.10 0.09 0.15 0.16 0.16 0.18 0.08 0.03 0.01
0.02 0.00 0.00 0.00 0.00 0.00 0.00 0.00 0.00 0.00 0.00 0.00 0.00 0.00 0.00 0.00 0.00 0.00 0.00 0.00 0.00 0.00 0.00 0.00 0.00 0.00 0.00 0.00 0.01 0.01 0.01 0.03 0.05 0.14 0.24 0.16 0.12 0.11 0.14 0.16 0.25 0.16 0.06 0.00
0.07 0.00 0.00 0.00 0.00 0.00 0.00 0.00 0.00 0.00 0.00 0.00 0.00 0.00 0.00 0.00 0.00 0.00 0.00 0.00 0.00 0.00 0.00 0.00 0.00 0.00 0.00 0.00 0.00 0.01 0.01 0.00 0.02 0.03 0.06 0.06 0.07 0.06 0.02 0.02 0.09 0.15 0.07 0.04
0.06 0.03 0.02 0.00 0.00 0.00 0.00 0.00 0.00 0.00 0.00 0.00 0.00 0.00 0.00 0.00 0.00 0.00 0.00 0.00 0.00 0.00 0.00 0.00 0.00 0.00 0.00 0.00 0.00 0.01 0.01 0.01 0.01 0.01 0.02 0.02 0.01 0.01 0.01 0.01 0.02 0.07 0.08 0.06
0.00 0.01 0.01 0.01 0.00 0.00 0.00 0.00 0.00 0.00 0.00 0.00 0.00 0.00 0.00 0.00 0.00 0.00 0.00 0.00 0.00 0.00 0.00 0.00 0.00 0.00 0.00 0.00 0.00 0.00 0.01 0.01 0.01 0.00 0.01 0.00 0.00 0.00 0.00 0.00 0.00 0.03 0.02 0.04
0.00 0.00 0.00 0.00 0.00 0.00 0.00 0.03 0.02 0.01 0.00 0.00 0.00 0.00 0.00 0.00 0.00 0.00 0.00 0.00 0.00 0.00 0.00 0.00 0.00 0.00 0.00 0.00 0.00 0.00 0.00 0.01 0.01 0.00 0.00 0.01 0.00 0.00 0.00 0.00 0.00 0.00 0.00 0.01
0.01 0.02 0.00 0.00 0.00 0.00 0.00 0.02 0.02 0.02 0.00 0.00 0.00 0.00 0.00 0.00 0.00 0.00 0.00 0.00 0.00 0.00 0.00 0.00 0.00 0.00 0.00 0.00 0.00 0.00 0.00 0.00 0.01 0.01 0.00 0.00 0.00 0.00 0.00 0.00 0.00 0.00 0.00 0.00
0.00 0.00 0.00 0.00 0.00 0.01 0.03 0.04 0.01 0.04 0.03 0.00 0.00 0.00 0.00 0.00 0.00 0.00 0.00 0.00 0.00 0.00 0.00 0.00 0.00 0.00 0.00 0.00 0.00 0.00 0.00 0.00 0.00 0.01 0.01 0.00 0.00 0.00 0.00 0.00 0.00 0.02 0.04 0.01
0.00 0.00 0.00 0.00 0.00 0.00 0.00 0.02 0.16 0.16 0.05 0.02 0.00 0.00 0.01 0.00 0.00 0.00 0.00 0.00 0.00 0.00 0.00 0.00 0.00 0.00 0.00 0.00 0.01 0.01 0.00 0.00 0.00 0.01 0.01 0.00 0.00 0.00 0.00 0.00 0.00 0.01 0.04 0.06
0.00 0.00 0.00 0.00 0.00 0.00 0.01 0.11 0.17 0.10 0.01 0.01 0.01 0.01 0.00 0.00 0.00 0.00 0.00 0.00 0.00 0.00 0.00 0.00 0.00 0.00 0.00 0.00 0.00 0.02 0.03 0.01 0.05 0.07 0.14 0.08 0.01 0.01 0.02 0.03 0.04 0.05 0.07 0.10
0.00 0.00 0.00 0.00 0.00 0.00 0.01 0.01 0.02 0.12 0.06 0.01 0.01 0.07 0.04 0.00 0.00 0.00 0.00 0.00 0.00 0.00 0.00 0.00 0.00 0.01 0.00 0.00 0.00 0.00 0.03 0.02 0.04 0.12 0.16 0.19 0.12 0.06 0.07 0.12 0.12 0.24 0.37 0.51
0.01 0.00 0.01 0.01 0.02 0.01 0.00 0.00 0.01 0.03 0.12 0.15 0.05 0.03 0.07 0.02 0.01 0.00 0.00 0.00 0.00 0.00 0.00 0.00 0.00 0.01 0.02 0.07 0.08 0.07 0.05 0.04 0.05 0.05 0.05 0.08 0.12 0.14 0.09 0.06 0.06 0.03 0.06 0.23
0.00 0.01 0.01 0.03 0.07 0.09 0.04 0.01 0.01 0.04 0.20 0.11 0.11 0.03 0.14 0.16 0.08 0.00 0.00 0.00 0.00 0.00 0.00 0.00 0.00 0.00 0.00 0.04 0.09 0.14 0.15 0.12 0.08 0.05 0.02 0.01 0.03 0.06 0.09 0.10 0.07 0.08 0.10 0.07
0.02 0.03 0.03 0.00 0.00 0.03 0.07 0.06 0.03 0.04 0.04 0.09 0.04 0.10 0.17 0.27 0.27 0.03 0.00 0.00 0.00 0.00 0.00 0.00 0.00 0.00 0.00 0.00 0.01 0.03 0.04 0.05 0.09 0.10 0.05 0.08 0.07 0.08 0.05 0.04 0.08 0.11 0.13 0.19
0.03 0.04 0.01 0.00 0.00 0.00 0.01 0.01 0.10 0.07 0.03 0.04 0.05 0.11 0.14 0.27 0.23 0.03 0.00 0.00 0.00 0.00 0.00 0.00 0.00 0.00 0.00 0.00 0.00 0.00 0.00 0.02 0.02 0.02 0.07 0.11 0.05 0.09 0.10 0.09 0.10 0.10 0.08 0.11
0.03 0.04 0.08 0.05 0.00 0.00 0.00 0.00 0.03 0.08 0.07 0.11 0.15 0.05 0.09 0.15 0.25 0.06 0.00 0.00 0.00 0.00 0.00 0.00 0.00 0.00 0.00 0.00 0.00 0.00 0.00 0.00 0.00 0.00 0.01 0.03 0.03 0.04 0.05 0.11 0.10 0.10 0.12 0.13
0.01 0.02 0.08 0.08 0.04 0.05 0.01 0.00 0.00 0.02 0.05 0.05 0.08 0.09 0.08 0.03 0.04 0.04 0.00 0.00 0.00 0.00 0.00 0.00 0.00 0.00 0.00 0.00 0.00 0.00 0.00 0.00 0.00 0.00 0.00 0.01 0.01 0.03 0.05 0.08 0.09 0.10 0.12 0.13
0.00 0.01 0.07 0.06 0.10 0.06 0.01 0.00 0.00 0.02 0.03 0.04 0.05 0.06 0.02 0.01 0.00 0.00 0.00 0.00 0.00 0.00 0.00 0.00 0.00 0.00 0.00 0.00 0.00 0.00 0.00 0.00 0.00 0.00 0.00 0.01 0.03 0.04 0.04 0.05 0.05 0.07 0.09 0.12
0.01 0.01 0.06 0.08 0.06 0.04 0.01 0.00 0.00 0.01 0.05 0.01 0.01 0.01 0.00 0.00 0.00 0.00 0.00 0.00 0.00 0.00 0.00 0.00 0.00 0.00 0.00 0.00 0.00 0.00 0.00 0.00 0.00 0.01 0.01 0.02 0.02 0.02 0.01 0.03 0.03 0.05 0.08 0.08
0.04 0.05 0.04 0.07 0.07 0.02 0.00 0.01 0.01 0.04 0.13 0.01 0.00 0.00 0.00 0.00 0.00 0.00 0.00 0.00 0.00 0.00 0.00 0.00 0.00 0.00 0.00 0.00 0.00 0.00 0.00 0.00 0.00 0.01 0.01 0.03 0.03 0.04 0.04 0.02 0.02 0.03 0.04 0.04
0.09 0.05 0.05 0.06 0.08 0.02 0.00 0.06 0.13 0.15 0.03 0.01 0.00 0.00 0.00 0.00 0.00 0.00 0.00 0.00 0.00 0.00 0.00 0.00 0.00 0.00 0.00 0.00 0.00 0.00 0.00 0.00 0.01 0.03 0.04 0.05 0.06 0.08 0.06 0.06 0.08 0.09 0.07 0.08
0.36 0.12 0.04 0.01 0.01 0.05 0.07 0.10 0.09 0.04 0.04 0.02 0.02 0.01 0.00 0.00 0.00 0.00 0.00 0.00 0.00 0.00 0.00 0.00 0.00 0.00 0.00 0.00 0.00 0.00 0.01 0.03 0.05 0.06 0.07 0.09 0.09 0.06 0.05 0.08 0.11 0.12 0.11 0.12
0.19 0.10 0.13 0.14 0.11 0.10 0.20 0.18 0.02 0.01 0.01 0.01 0.00 0.00 0.00 0.00 0.00 0.01 0.02 0.01 0.01 0.01 0.01 0.00 0.00 0.00 0.00 0.00 0.00 0.02 0.05 0.04 0.04 0.04 0.08 0.07 0.06 0.09 0.05 0.09 0.11 0.11 0.11 0.15
0.17 0.38 0.23 0.25 0.30 0.22 0.28 0.48 0.21 0.04 0.01 0.01 0.01 0.00 0.00 0.01 0.02 0.04 0.06 0.07 0.06 0.04 0.03 0.02 0.01 0.02 0.03 0.04 0.06 0.07 0.07 0.10 0.12 0.10 0.11 0.11 0.11 0.12 0.11 0.14 0.22 0.19 0.28 0.38
0.13 0.70 0.67 0.38 0.58 0.69 0.55 0.27 0.25 0.16 0.03 0.00 0.01 0.01 0.06 0.11 0.07 0.05 0.05 0.08 0.12 0.16 0.19 0.15 0.13 0.11 0.11 0.13 0.18 0.19 0.18 0.16 0.17 0.16 0.18 0.22 0.17 0.18 0.18 0.18 0.27 0.46 0.51 0.50

GFSCGP_prec_precacc24_069.txt.gz
Total_Precipitation_Accumulation
0.00 0.00 0.00 0.00 0.00 0.00 0.00 0.00 0.00 0.00 0.00 0.00 0.00 0.00 0.00 0.00 0.00 0.00 0.00 0.00 0.00 0.00 0.00 0.00 0.00 0.00 0.00 0.00 0.02 0.05 0.22 0.20 0.31 0.28 0.19 0.22 0.30 0.48 0.27 0.21 0.08 0.03 0.04 0.04
0.00 0.00 0.00 0.00 0.00 0.00 0.00 0.00 0.00 0.00 0.00 0.00 0.00 0.00 0.00 0.00 0.00 0.00 0.00 0.00 0.00 0.00 0.00 0.00 0.00 0.00 0.00 0.00 0.01 0.02 0.03 0.09 0.17 0.23 0.23 0.10 0.10 0.15 0.17 0.18 0.22 0.09 0.05 0.03
0.02 0.00 0.00 0.00 0.00 0.00 0.00 0.00 0.00 0.00 0.00 0.00 0.00 0.00 0.00 0.00 0.00 0.00 0.00 0.00 0.00 0.00 0.00 0.00 0.00 0.00 0.00 0.00 0.01 0.01 0.01 0.03 0.06 0.14 0.24 0.16 0.13 0.12 0.15 0.23 0.44 0.20 0.08 0.05
0.07 0.00 0.00 0.00 0.00 0.00 0.00 0.00 0.00 0.00 0.00 0.00 0.00 0.00 0.00 0.00 0.00 0.00 0.00 0.00 0.00 0.00 0.00 0.00 0.00 0.00 0.00 0.00 0.00 0.01 0.01 0.00 0.02 0.03 0.07 0.06 0.07 0.07 0.03 0.03 0.20 0.32 0.14 0.07
0.06 0.03 0.02 0.00 0.00 0.00 0.00 0.00 0.00 0.00 0.00 0.00 0.00 0.00 0.00 0.00 0.00 0.00 0.00 0.00 0.00 0.00 0.00 0.00 0.00 0.00 0.00 0.00 0.00 0.01 0.01 0.01 0.01 0.01 0.02 0.02 0.01 0.01 0.01 0.01 0.04 0.22 0.22 0.12
0.00 0.01 0.01 0.01 0.00 0.01 0.00 0.01 0.00 0.00 0.00 0.00 0.00 0.00 0.00 0.00 0.00 0.00 0.00 0.00 0.00 0.00 0.00 0.00 0.00 0.00 0.00 0.00 0.00 0.00 0.01 0.01 0.01 0.00 0.01 0.00 0.00 0.00 0.00 0.00 0.00 0.04 0.12 0.12
0.00 0.00 0.00 0.00 0.00 0.01 0.02 0.05 0.03 0.02 0.00 0.00 0.00 0.00 0.00 0.00 0.00 0.00 0.00 0.00 0.00 0.00 0.00 0.00 0.00 0.00 0.00 0.00 0.00 0.00 0.00 0.01 0.01 0.00 0.00 0.01 0.00 0.00 0.00 0.00 0.00 0.00 0.01 0.06
0.01 0.02 0.00 0.00 0.00 0.01 0.01 0.04 0.05 0.03 0.01 0.00 0.00 0.00 0.00 0.00 0.00 0.00 0.00 0.00 0.00 0.00 0.00 0.00 0.00 0.00 0.00 0.00 0.00 0.00 0.00 0.00 0.01 0.01 0.00 0.00 0.00 0.00 0.00 0.00 0.00 0.00 0.00 0.00
0.00 0.00 0.00 0.00 0.00 0.02 0.06 0.07 0.04 0.07 0.05 0.00 0.00 0.00 0.00 0.00 0.00 0.00 0.00 0.00 0.00 0.00 0.00 0.00 0.00 0.00 0.00 0.00 0.00 0.00 0.00 0.00 0.00 0.01 0.01 0.00 0.00 0.00 0.00 0.00 0.00 0.00 0.00 0.00
0.00 0.00 0.00 0.00 0.00 0.00 0.05 0.11 0.24 0.21 0.13 0.03 0.00 0.01 0.01 0.00 0.00 0.00 0.00 0.00 0.00 0.00 0.00 0.00 0.00 0.00 0.00 0.00 0.00 0.00 0.00 0.00 0.00 0.00 0.01 0.00 0.00 0.00 0.00 0.00 0.00 0.00 0.00 0.00
0.00 0.00 0.00 0.00 0.00 0.01 0.05 0.18 0.26 0.15 0.02 0.01 0.02 0.05 0.00 0.00 0.00 0.00 0.00 0.00 0.00 0.00 0.00 0.00 0.00 0.00 0.00 0.00 0.00 0.00 0.00 0.01 0.01 0.00 0.02 0.02 0.00 0.00 0.00 0.00 0.00 0.00 0.00 0.00
0.00 0.00 0.00 0.00 0.00 0.00 0.01 0.03 0.07 0.18 0.10 0.02 0.03 0.14 0.05 0.00 0.00 0.00 0.00 0.00 0.00 0.00 0.00 0.00 0.00 0.01 0.01 0.01 0.01 0.01 0.01 0.02 0.01 0.04 0.03 0.08 0.06 0.02 0.00 0.01 0.01 0.01 0.01 0.03
0.01 0.00 0.01 0.01 0.02 0.01 0.00 0.02 0.03 0.07 0.17 0.16 0.09 0.09 0.15 0.03 0.01 0.00 0.00 0.00 0.00 0.00 0.00 0.00 0.01 0.02 0.04 0.13 0.15 0.15 0.11 0.07 0.06 0.05 0.04 0.03 0.06 0.06 0.03 0.01 0.01 0.00 0.01 0.03
0.00 0.01 0.01 0.03 0.08 0.10 0.06 0.04 0.03 0.10 0.28 0.14 0.11 0.06 0.36 0.41 0.13 0.00 0.00 0.00 0.00 0.01 0.02 0.03 0.03 0.04 0.07 0.12 0.16 0.20 0.17 0.15 0.09 0.07 0.03 0.03 0.03 0.04 0.06 0.07 0.06 0.03 0.03 0.05
0.01 0.02 0.03 0.00 0.00 0.03 0.08 0.08 0.06 0.07 0.05 0.11 0.04 0.10 0.23 0.50 0.57 0.15 0.00 0.00 0.00 0.00 0.00 0.01 0.01 0.01 0.01 0.02 0.03 0.05 0.05 0.06 0.09 0.10 0.05 0.07 0.06 0.06 0.06 0.04 0.08 0.07 0.06 0.09
0.03 0.04 0.01 0.00 0.00 0.00 0.01 0.01 0.11 0.12 0.06 0.06 0.05 0.12 0.18 0.36 0.44 0.27 0.16 0.03 0.00 0.00 0.00 0.00 0.00 0.00 0.00 0.00 0.00 0.00 0.00 0.02 0.02 0.02 0.06 0.10 0.03 0.06 0.08 0.10 0.16 0.11 0.05 0.08
0.04 0.05 0.08 0.05 0.00 0.00 0.00 0.00 0.03 0.10 0.13 0.22 0.22 0.07 0.11 0.16 0.35 0.18 0.21 0.14 0.06 0.01 0.00 0.00 0.00 0.00 0.00 0.00 0.00 0.00 0.00 0.00 0.00 0.00 0.01 0.01 0.01 0.01 0.03 0.09 0.09 0.07 0.09 0.16
0.01 0.02 0.07 0.07 0.04 0.03 0.00 0.00 0.00 0.02 0.06 0.08 0.12 0.14 0.18 0.06 0.12 0.21 0.05 0.17 0.11 0.04 0.01 0.00 0.00 0.00 0.00 0.00 0.00 0.00 0.00 0.00 0.00 0.00 0.00 0.00 0.00 0.01 0.02 0.04 0.05 0.08 0.12 0.14
0.00 0.01 0.06 0.06 0.10 0.04 0.01 0.00 0.00 0.03 0.03 0.04 0.06 0.10 0.09 0.08 0.04 0.10 0.02 0.03 0.06 0.03 0.01 0.00 0.00 0.00 0.00 0.00 0.00 0.00 0.00 0.00 0.00 0.00 0.00 0.00 0.01 0.01 0.02 0.04 0.05 0.07 0.09 0.12
0.00 0.01 0.06 0.08 0.06 0.02 0.00 0.00 0.00 0.00 0.04 0.01 0.01 0.06 0.10 0.01 0.01 0.05 0.06 0.06 0.04 0.01 0.00 0.00 0.00 0.00 0.00 0.00 0.00 0.00 0.00 0.00 0.00 0.00 0.00 0.01 0.01 0.01 0.01 0.03 0.02 0.05 0.08 0.08
0.04 0.05 0.04 0.07 0.07 0.02 0.00 0.00 0.00 0.05 0.12 0.01 0.00 0.01 0.03 0.01 0.00 0.00 0.01 0.02 0.02 0.00 0.00 0.00 0.00 0.00 0.00 0.00 0.00 0.00 0.00 0.00 0.00 0.00 0.00 0.03 0.03 0.03 0.04 0.02 0.02 0.03 0.04 0.04
0.09 0.05 0.05 0.05 0.08 0.02 0.00 0.01 0.06 0.16 0.05 0.02 0.01 0.01 0.01 0.02 0.00 0.00 0.00 0.00 0.00 0.00 0.00 0.00 0.00 0.00 0.00 0.00 0.00 0.00 0.00 0.00 0.01 0.02 0.04 0.05 0.06 0.08 0.06 0.06 0.08 0.09 0.07 0.08
0.43 0.17 0.06 0.01 0.01 0.05 0.07 0.08 0.07 0.03 0.10 0.06 0.18 0.14 0.10 0.10 0.08 0.03 0.01 0.00 0.00 0.00 0.00 0.00 0.00 0.00 0.00 0.00 0.00 0.00 0.01 0.03 0.05 0.06 0.07 0.09 0.09 0.06 0.05 0.08 0.11 0.12 0.11 0.13
0.23 0.19 0.28 0.20 0.14 0.10 0.20 0.19 0.03 0.00 0.01 0.01 0.05 0.20 0.12 0.10 0.05 0.03 0.02 0.01 0.01 0.01 0.01 0.00 0.00 0.00 0.00 0.00 0.00 0.02 0.05 0.04 0.04 0.04 0.08 0.07 0.06 0.09 0.05 0.09 0.11 0.11 0.12 0.16
0.24 0.40 0.23 0.35 0.35 0.23 0.30 0.49 0.24 0.06 0.02 0.02 0.01 0.00 0.00 0.01 0.02 0.03 0.05 0.07 0.06 0.04 0.03 0.02 0.01 0.02 0.03 0.05 0.07 0.07 0.07 0.10 0.12 0.10 0.11 0.11 0.11 0.12 0.11 0.14 0.23 0.20 0.31 0.40
0.15 0.70 0.66 0.45 0.72 0.79 0.75 0.34 0.29 0.34 0.13 0.03 0.01 0.01 0.06 0.11 0.05 0.04 0.04 0.07 0.12 0.16 0.19 0.15 0.13 0.11 0.11 0.13 0.18 0.19 0.18 0.16 0.17 0.16 0.18 0.22 0.17 0.18 0.18 0.18 0.27 0.46 0.52 0.51

GFSCGP_prec_precacc24_072.txt.gz
Total_Precipitation_Accumulation
0.00 0.00 0.00 0.00 0.00 0.00 0.00 0.00 0.00 0.00 0.00 0.00 0.00 0.00 0.00 0.00 0.00 0.00 0.00 0.00 0.00 0.00 0.00 0.00 0.00 0.00 0.00 0.00 0.01 0.04 0.18 0.17 0.22 0.18 0.15 0.21 0.28 0.48 0.28 0.22 0.30 0.49 0.32 0.21
0.00 0.00 0.00 0.00 0.00 0.00 0.00 0.00 0.00 0.00 0.00 0.00 0.00 0.00 0.00 0.00 0.00 0.00 0.00 0.00 0.00 0.00 0.00 0.00 0.00 0.00 0.00 0.00 0.01 0.02 0.02 0.08 0.13 0.16 0.18 0.09 0.09 0.16 0.17 0.18 0.25 0.18 0.21 0.18
0.02 0.00 0.00 0.00 0.00 0.00 0.00 0.00 0.00 0.00 0.00 0.00 0.00 0.00 0.00 0.00 0.00 0.00 0.00 0.00 0.00 0.00 0.00 0.00 0.00 0.00 0.00 0.00 0.01 0.01 0.01 0.03 0.05 0.13 0.23 0.16 0.13 0.12 0.15 0.24 0.45 0.22 0.10 0.11
0.07 0.00 0.00 0.00 0.00 0.00 0.00 0.00 0.00 0.00 0.00 0.00 0.00 0.00 0.00 0.00 0.00 0.00 0.00 0.00 0.00 0.00 0.00 0.00 0.00 0.00 0.00 0.00 0.00 0.01 0.01 0.01 0.02 0.04 0.07 0.06 0.07 0.07 0.03 0.03 0.21 0.37 0.16 0.09
0.06 0.03 0.02 0.00 0.00 0.00 0.00 0.00 0.00 0.00 0.00 0.00 0.00 0.00 0.00 0.00 0.00 0.00 0.00 0.00 0.00 0.00 0.00 0.00 0.00 0.00 0.00 0.00 0.00 0.01 0.01 0.01 0.01 0.02 0.02 0.02 0.01 0.02 0.01 0.01 0.04 0.25 0.32 0.14
0.00 0.01 0.01 0.01 0.00 0.01 0.00 0.01 0.00 0.00 0.00 0.00 0.00 0.00 0.00 0.00 0.00 0.00 0.00 0.00 0.00 0.00 0.00 0.00 0.00 0.00 0.00 0.00 0.00 0.00 0.01 0.01 0.01 0.01 0.01 0.01 0.00 0.00 0.00 0.01 0.01 0.06 0.18 0.21
0.00 0.00 0.00 0.00 0.00 0.01 0.02 0.06 0.05 0.03 0.01 0.01 0.00 0.00 0.00 0.00 0.00 0.00 0.00 0.00 0.00 0.00 0.00 0.00 0.00 0.00 0.00 0.00 0.00 0.00 0.00 0.01 0.01 0.00 0.01 0.01 0.00 0.00 0.01 0.01 0.00 0.01 0.03 0.10
0.01 0.02 0.00 0.00 0.00 0.01 0.01 0.05 0.08 0.05 0.01 0.00 0.00 0.00 0.00 0.00 0.00 0.00 0.00 0.00 0.00 0.00 0.00 0.00 0.00 0.00 0.00 0.00 0.00 0.00 0.00 0.00 0.01 0.01 0.00 0.00 0.00 0.00 0.00 0.01 0.01 0.01 0.00 0.00
0.00 0.00 0.00 0.00 0.00 0.02 0.07 0.09 0.06 0.12 0.07 0.01 0.00 0.00 0.00 0.00 0.00 0.00 0.00 0.00 0.00 0.00 0.00 0.00 0.00 0.00 0.00 0.00 0.00 0.00 0.00 0.00 0.00 0.01 0.01 0.00 0.00 0.00 0.00 0.00 0.00 0.00 0.00 0.00
0.00 0.00 0.00 0.00 0.00 0.00 0.06 0.15 0.29 0.31 0.21 0.05 0.00 0.01 0.01 0.00 0.00 0.00 0.00 0.00 0.00 0.00 0.00 0.00 0.00 0.00 0.00 0.00 0.00 0.00 0.00 0.00 0.00 0.00 0.01 0.00 0.00 0.00 0.00 0.00 0.00 0.00 0.00 0.00
0.00 0.00 0.00 0.00 0.00 0.01 0.06 0.24 0.37 0.23 0.05 0.04 0.05 0.08 0.02 0.00 0.00 0.00 0.00 0.00 0.00 0.00 0.00 0.00 0.00 0.00 0.00 0.01 0.02 0.00 0.00 0.00 0.00 0.00 0.00 0.00 0.00 0.00 0.00 0.00 0.00 0.00 0.00 0.00
0.01 0.01 0.00 0.00 0.00 0.00 0.02 0.04 0.14 0.36 0.19 0.03 0.06 0.18 0.06 0.00 0.00 0.00 0.00 0.00 0.00 0.00 0.00 0.00 0.00 0.01 0.01 0.04 0.03 0.01 0.01 0.01 0.01 0.02 0.01 0.01 0.01 0.01 0.00 0.00 0.00 0.00 0.00 0.00
0.01 0.01 0.01 0.01 0.03 0.01 0.01 0.03 0.07 0.19 0.31 0.21 0.12 0.11 0.17 0.04 0.01 0.00 0.00 0.00 0.00 0.00 0.00 0.00 0.02 0.03 0.06 0.15 0.17 0.17 0.15 0.12 0.07 0.06 0.03 0.02 0.04 0.02 0.01 0.00 0.00 0.00 0.00 0.00
0.00 0.01 0.01 0.02 0.08 0.10 0.06 0.04 0.08 0.30 0.45 0.16 0.12 0.08 0.48 0.53 0.16 0.01 0.00 0.00 0.01 0.02 0.03 0.04 0.06 0.08 0.13 0.20 0.26 0.28 0.23 0.19 0.12 0.08 0.03 0.04 0.02 0.02 0.04 0.02 0.00 0.00 0.00 0.00
0.01 0.02 0.03 0.00 0.00 0.03 0.08 0.08 0.07 0.16 0.21 0.26 0.06 0.11 0.28 0.63 0.69 0.25 0.02 0.00 0.00 0.00 0.01 0.03 0.04 0.05 0.06 0.07 0.09 0.08 0.08 0.08 0.10 0.10 0.05 0.08 0.06 0.06 0.05 0.03 0.03 0.02 0.01 0.02
0.04 0.04 0.01 0.00 0.00 0.00 0.01 0.01 0.11 0.13 0.08 0.09 0.05 0.12 0.21 0.40 0.52 0.39 0.29 0.07 0.01 0.00 0.00 0.00 0.00 0.00 0.01 0.01 0.00 0.00 0.02 0.02 0.03 0.02 0.06 0.10 0.04 0.07 0.08 0.11 0.15 0.09 0.04 0.08
0.04 0.05 0.08 0.05 0.00 0.00 0.00 0.00 0.03 0.10 0.14 0.22 0.23 0.08 0.11 0.17 0.37 0.27 0.28 0.24 0.11 0.02 0.00 0.00 0.00 0.00 0.00 0.00 0.00 0.00 0.00 0.00 0.00 0.00 0.01 0.01 0.01 0.01 0.03 0.08 0.09 0.07 0.07 0.14
0.01 0.02 0.07 0.07 0.04 0.03 0.00 0.00 0.00 0.02 0.07 0.08 0.12 0.16 0.23 0.15 0.25 0.30 0.09 0.22 0.20 0.13 0.05 0.02 0.02 0.01 0.00 0.00 0.00 0.00 0.00 0.00 0.00 0.00 0.00 0.00 0.00 0.01 0.02 0.03 0.01 0.03 0.07 0.09
0.00 0.01 0.06 0.06 0.10 0.04 0.01 0.00 0.00 0.03 0.03 0.04 0.06 0.11 0.12 0.09 0.13 0.19 0.08 0.10 0.14 0.09 0.08 0.04 0.01 0.00 0.00 0.00 0.00 0.00 0.00 0.00 0.00 0.00 0.00 0.00 0.00 0.00 0.01 0.01 0.01 0.02 0.03 0.06
0.00 0.00 0.06 0.08 0.06 0.02 0.00 0.00 0.00 0.00 0.04 0.01 0.01 0.07 0.13 0.04 0.04 0.16 0.20 0.22 0.18 0.09 0.05 0.01 0.00 0.00 0.00 0.00 0.00 0.00 0.00 0.00 0.00 0.00 0.00 0.00 0.00 0.00 0.01 0.01 0.01 0.02 0.04 0.05
0.03 0.04 0.04 0.06 0.06 0.02 0.00 0.00 0.00 0.05 0.12 0.01 0.00 0.01 0.08 0.22 0.12 0.18 0.17 0.22 0.19 0.04 0.00 0.00 0.00 0.00 0.00 0.00 0.00 0.00 0.00 0.00 0.00 0.00 0.00 0.02 0.02 0.03 0.04 0.02 0.01 0.02 0.02 0.03
0.09 0.05 0.05 0.05 0.08 0.03 0.00 0.01 0.06 0.16 0.05 0.02 0.01 0.01 0.02 0.10 0.04 0.06 0.01 0.02 0.03 0.01 0.00 0.00 0.00 0.00 0.00 0.00 0.00 0.00 0.00 0.00 0.00 0.01 0.03 0.05 0.06 0.08 0.06 0.05 0.07 0.07 0.06 0.08
0.44 0.18 0.07 0.01 0.01 0.05 0.07 0.08 0.07 0.03 0.10 0.09 0.26 0.24 0.18 0.13 0.18 0.20 0.12 0.07 0.04 0.00 0.00 0.00 0.00 0.00 0.00 0.00 0.00 0.00 0.00 0.00 0.01 0.03 0.06 0.08 0.09 0.06 0.04 0.07 0.10 0.12 0.11 0.13
0.25 0.29 0.47 0.32 0.19 0.10 0.21 0.19 0.04 0.00 0.01 0.02 0.10 0.56 0.72 0.56 0.45 0.40 0.26 0.09 0.01 0.00 0.01 0.00 0.00 0.00 0.00 0.00 0.00 0.00 0.01 0.02 0.02 0.03 0.08 0.07 0.06 0.09 0.05 0.09 0.11 0.11 0.12 0.16
0.30 0.47 0.26 0.37 0.44 0.29 0.33 0.50 0.25 0.09 0.06 0.03 0.01 0.02 0.12 0.11 0.08 0.06 0.07 0.07 0.06 0.05 0.03 0.02 0.01 0.02 0.03 0.04 0.05 0.05 0.06 0.09 0.12 0.10 0.11 0.11 0.11 0.12 0.12 0.15 0.23 0.21 0.32 0.40
0.27 0.72 0.66 0.48 0.79 0.90 0.85 0.42 0.34 0.40 0.22 0.06 0.01 0.00 0.05 0.10 0.07 0.05 0.05 0.07 0.11 0.16 0.19 0.15 0.14 0.11 0.11 0.13 0.18 0.19 0.18 0.16 0.17 0.16 0.18 0.22 0.17 0.18 0.18 0.18 0.28 0.47 0.52 0.51

GFSCGP_prec_precacc24_075.txt.gz
Total_Precipitation_Accumulation
0.00 0.00 0.00 0.00 0.00 0.00 0.00 0.00 0.00 0.00 0.00 0.00 0.00 0.00 0.00 0.00 0.00 0.00 0.00 0.00 0.00 0.00 0.00 0.00 0.00 0.00 0.00 0.00 0.01 0.02 0.13 0.11 0.07 0.06 0.11 0.20 0.28 0.48 0.28 0.23 0.36 0.65 0.69 0.56
0.00 0.00 0.00 0.00 0.00 0.00 0.00 0.00 0.00 0.00 0.00 0.00 0.00 0.00 0.00 0.00 0.00 0.00 0.00 0.00 0.00 0.00 0.00 0.00 0.00 0.00 0.00 0.00 0.01 0.01 0.01 0.05 0.08 0.08 0.07 0.07 0.09 0.16 0.17 0.18 0.28 0.32 0.50 0.62
0.02 0.00 0.00 0.00 0.00 0.00 0.00 0.00 0.00 0.00 0.00 0.00 0.00 0.00 0.00 0.00 0.00 0.00 0.00 0.00 0.00 0.00 0.00 0.00 0.00 0.00 0.00 0.00 0.01 0.01 0.01 0.02 0.03 0.09 0.09 0.13 0.12 0.12 0.15 0.25 0.47 0.31 0.26 0.48
0.07 0.00 0.00 0.00 0.00 0.00 0.00 0.00 0.00 0.00 0.00 0.00 0.00 0.00 0.00 0.00 0.00 0.00 0.00 0.00 0.00 0.00 0.00 0.00 0.00 0.00 0.00 0.00 0.00 0.01 0.01 0.01 0.02 0.03 0.04 0.06 0.08 0.07 0.04 0.03 0.22 0.43 0.20 0.19
0.06 0.03 0.02 0.00 0.00 0.00 0.00 0.00 0.00 0.00 0.00 0.00 0.00 0.00 0.00 0.00 0.00 0.00 0.00 0.00 0.00 0.00 0.00 0.00 0.00 0.00 0.00 0.00 0.00 0.01 0.01 0.01 0.01 0.02 0.02 0.02 0.01 0.02 0.01 0.02 0.04 0.27 0.41 0.23
0.00 0.01 0.01 0.01 0.00 0.01 0.00 0.01 0.00 0.00 0.00 0.01 0.00 0.00 0.00 0.00 0.00 0.00 0.00 0.00 0.00 0.00 0.00 0.00 0.00 0.00 0.00 0.00 0.00 0.00 0.01 0.02 0.01 0.01 0.01 0.01 0.01 0.00 0.00 0.01 0.01 0.06 0.25 0.42
0.00 0.00 0.00 0.00 0.00 0.01 0.02 0.07 0.05 0.03 0.02 0.01 0.00 0.00 0.00 0.00 0.00 0.00 0.00 0.00 0.00 0.00 0.00 0.00 0.00 0.00 0.00 0.00 0.00 0.00 0.00 0.01 0.02 0.01 0.01 0.01 0.01 0.01 0.01 0.01 0.00 0.01 0.04 0.17
0.01 0.02 0.00 0.00 0.00 0.01 0.01 0.05 0.08 0.06 0.01 0.00 0.00 0.00 0.00 0.00 0.00 0.00 0.00 0.00 0.00 0.00 0.00 0.00 0.00 0.00 0.00 0.00 0.00 0.00 0.00 0.00 0.02 0.01 0.00 0.00 0.01 0.00 0.00 0.01 0.01 0.01 0.00 0.01
0.00 0.00 0.00 0.00 0.00 0.02 0.07 0.09 0.07 0.15 0.08 0.03 0.00 0.00 0.00 0.00 0.00 0.00 0.00 0.00 0.00 0.00 0.00 0.00 0.00 0.00 0.00 0.00 0.00 0.00 0.00 0.00 0.01 0.01 0.01 0.00 0.00 0.00 0.00 0.00 0.00 0.01 0.01 0.00
0.00 0.00 0.00 0.00 0.00 0.00 0.06 0.17 0.35 0.33 0.23 0.07 0.00 0.01 0.01 0.00 0.00 0.00 0.00 0.00 0.00 0.00 0.00 0.00 0.00 0.00 0.00 0.00 0.00 0.00 0.00 0.01 0.00 0.00 0.01 0.00 0.00 0.00 0.00 0.00 0.00 0.00 0.01 0.01
0.00 0.00 0.00 0.00 0.00 0.01 0.06 0.24 0.43 0.30 0.05 0.08 0.08 0.14 0.05 0.00 0.00 0.00 0.00 0.00 0.00 0.00 0.00 0.00 0.00 0.00 0.00 0.01 0.03 0.01 0.00 0.00 0.00 0.00 0.00 0.00 0.00 0.00 0.00 0.00 0.00 0.00 0.00 0.01
0.01 0.01 0.00 0.00 0.00 0.00 0.02 0.05 0.15 0.40 0.24 0.09 0.07 0.30 0.30 0.02 0.00 0.00 0.00 0.01 0.01 0.01 0.01 0.01 0.01 0.02 0.02 0.05 0.04 0.02 0.02 0.02 0.01 0.02 0.01 0.00 0.00 0.00 0.00 0.00 0.00 0.00 0.00 0.00
0.02 0.07 0.06 0.03 0.04 0.02 0.02 0.07 0.14 0.25 0.35 0.28 0.18 0.13 0.27 0.10 0.01 0.00 0.00 0.01 0.02 0.03 0.02 0.01 0.04 0.06 0.10 0.17 0.19 0.18 0.16 0.17 0.14 0.09 0.03 0.02 0.01 0.01 0.00 0.00 0.00 0.00 0.00 0.00
0.01 0.02 0.03 0.04 0.09 0.10 0.06 0.04 0.10 0.38 0.58 0.31 0.18 0.10 0.60 0.72 0.27 0.03 0.00 0.02 0.04 0.06 0.07 0.06 0.06 0.10 0.16 0.24 0.30 0.30 0.31 0.29 0.18 0.10 0.05 0.06 0.03 0.02 0.04 0.02 0.00 0.00 0.00 0.00
0.04 0.04 0.03 0.00 0.00 0.03 0.08 0.08 0.07 0.16 0.23 0.31 0.10 0.12 0.30 0.78 0.83 0.41 0.05 0.00 0.01 0.02 0.03 0.08 0.09 0.08 0.10 0.13 0.16 0.15 0.13 0.11 0.12 0.11 0.06 0.09 0.07 0.07 0.07 0.04 0.03 0.02 0.01 0.00
0.11 0.05 0.01 0.00 0.00 0.00 0.01 0.01 0.11 0.13 0.08 0.09 0.06 0.12 0.21 0.41 0.55 0.49 0.34 0.09 0.01 0.00 0.00 0.01 0.01 0.02 0.03 0.05 0.03 0.02 0.03 0.04 0.03 0.02 0.06 0.11 0.04 0.08 0.09 0.13 0.16 0.10 0.04 0.08
0.10 0.08 0.09 0.05 0.00 0.00 0.00 0.00 0.03 0.10 0.14 0.23 0.23 0.08 0.12 0.18 0.38 0.29 0.32 0.25 0.13 0.03 0.00 0.00 0.00 0.00 0.00 0.00 0.00 0.00 0.00 0.01 0.03 0.03 0.01 0.01 0.01 0.01 0.03 0.08 0.09 0.08 0.08 0.13
0.04 0.04 0.07 0.07 0.04 0.03 0.00 0.00 0.00 0.03 0.07 0.08 0.12 0.16 0.27 0.24 0.40 0.37 0.11 0.22 0.22 0.21 0.13 0.07 0.03 0.01 0.00 0.00 0.00 0.00 0.00 0.00 0.00 0.00 0.00 0.00 0.00 0.01 0.02 0.03 0.01 0.03 0.06 0.06
0.01 0.02 0.06 0.06 0.10 0.04 0.01 0.00 0.00 0.03 0.03 0.04 0.06 0.12 0.12 0.11 0.19 0.31 0.22 0.13 0.17 0.19 0.23 0.18 0.06 0.03 0.01 0.00 0.00 0.00 0.00 0.00 0.00 0.00 0.00 0.00 0.00 0.00 0.01 0.01 0.01 0.02 0.02 0.03
0.00 0.01 0.04 0.06 0.05 0.02 0.00 0.00 0.00 0.00 0.04 0.01 0.01 0.07 0.13 0.05 0.07 0.20 0.33 0.35 0.33 0.19 0.08 0.04 0.03 0.02 0.01 0.00 0.00 0.00 0.00 0.00 0.00 0.00 0.00 0.00 0.00 0.00 0.00 0.00 0.00 0.01 0.02 0.02
0.04 0.03 0.02 0.03 0.05 0.02 0.00 0.00 0.00 0.05 0.12 0.01 0.00 0.01 0.08 0.24 0.22 0.40 0.38 0.49 0.49 0.16 0.02 0.00 0.00 0.01 0.01 0.00 0.00 0.00 0.00 0.00 0.00 0.00 0.00 0.00 0.00 0.00 0.01 0.01 0.01 0.01 0.01 0.02
0.09 0.04 0.04 0.05 0.07 0.03 0.00 0.01 0.06 0.16 0.05 0.02 0.01 0.01 0.02 0.13 0.11 0.29 0.20 0.24 0.19 0.11 0.00 0.00 0.00 0.00 0.00 0.00 0.00 0.00 0.00 0.00 0.00 0.00 0.00 0.00 0.01 0.03 0.04 0.05 0.07 0.07 0.05 0.06
0.44 0.18 0.07 0.01 0.01 0.05 0.07 0.08 0.08 0.04 0.11 0.10 0.27 0.30 0.28 0.25 0.34 0.36 0.33 0.29 0.30 0.08 0.00 0.00 0.00 0.00 0.00 0.00 0.00 0.00 0.00 0.00 0.00 0.00 0.00 0.01 0.04 0.04 0.04 0.07 0.09 0.10 0.09 0.09
0.26 0.30 0.55 0.52 0.32 0.11 0.21 0.19 0.05 0.02 0.03 0.03 0.10 0.57 0.87 0.91 0.80 0.73 0.63 0.38 0.20 0.06 0.01 0.00 0.00 0.00 0.01 0.00 0.00 0.00 0.00 0.00 0.00 0.01 0.05 0.05 0.06 0.09 0.05 0.08 0.10 0.10 0.10 0.14
0.31 0.50 0.37 0.55 0.56 0.33 0.36 0.52 0.28 0.13 0.10 0.11 0.08 0.06 0.18 0.26 0.27 0.14 0.12 0.14 0.10 0.06 0.03 0.02 0.01 0.02 0.04 0.04 0.05 0.05 0.05 0.08 0.11 0.09 0.11 0.11 0.11 0.12 0.12 0.16 0.23 0.21 0.33 0.40
0.32 0.82 0.72 0.54 0.84 0.94 0.92 0.49 0.41 0.44 0.28 0.16 0.06 0.04 0.04 0.07 0.10 0.09 0.07 0.08 0.10 0.15 0.18 0.15 0.14 0.11 0.10 0.11 0.16 0.18 0.17 0.16 0.17 0.16 0.18 0.22 0.17 0.18 0.18 0.18 0.28 0.47 0.52 0.51

GFSCGP_prec_precacc24_081.txt.gz
Total_Precipitation_Accumulation
0.00 0.00 0.00 0.00 0.00 0.00 0.00 0.00 0.00 0.00 0.00 0.00 0.00 0.00 0.00 0.00 0.00 0.00 0.00 0.00 0.00 0.00 0.00 0.00 0.00 0.00 0.00 0.00 0.00 0.00 0.02 0.02 0.02 0.02 0.04 0.10 0.17 0.40 0.23 0.22 0.36 0.68 0.86 1.56
0.00 0.00 0.00 0.00 0.00 0.00 0.00 0.00 0.00 0.00 0.00 0.00 0.00 0.00 0.00 0.00 0.00 0.00 0.00 0.00 0.00 0.00 0.00 0.00 0.00 0.00 0.00 0.00 0.00 0.01 0.01 0.02 0.02 0.01 0.01 0.04 0.06 0.14 0.17 0.20 0.29 0.36 0.53 0.93
0.02 0.00 0.00 0.00 0.00 0.00 0.00 0.00 0.00 0.00 0.00 0.00 0.00 0.00 0.00 0.00 0.00 0.00 0.00 0.00 0.00 0.00 0.00 0.00 0.00 0.00 0.00 0.00 0.00 0.00 0.00 0.01 0.02 0.02 0.02 0.03 0.03 0.07 0.14 0.27 0.49 0.33 0.33 0.69
0.07 0.00 0.00 0.00 0.00 0.00 0.00 0.00 0.00 0.00 0.00 0.00 0.00 0.00 0.00 0.00 0.00 0.00 0.00 0.00 0.00 0.00 0.00 0.00 0.00 0.00 0.00 0.00 0.00 0.00 0.00 0.01 0.01 0.02 0.02 0.02 0.02 0.04 0.03 0.04 0.23 0.44 0.23 0.37
0.06 0.03 0.02 0.00 0.00 0.00 0.00 0.00 0.00 0.00 0.00 0.00 0.00 0.00 0.00 0.00 0.00 0.00 0.00 0.00 0.00 0.00 0.00 0.00 0.00 0.00 0.00 0.00 0.00 0.00 0.00 0.00 0.01 0.02 0.01 0.02 0.01 0.01 0.02 0.02 0.06 0.30 0.42 0.23
0.00 0.01 0.01 0.01 0.00 0.01 0.00 0.01 0.00 0.00 0.00 0.01 0.00 0.00 0.00 0.00 0.00 0.00 0.00 0.00 0.00 0.00 0.00 0.00 0.00 0.00 0.00 0.00 0.00 0.00 0.00 0.01 0.01 0.01 0.01 0.01 0.01 0.01 0.02 0.02 0.03 0.08 0.27 0.50
0.00 0.00 0.00 0.00 0.00 0.01 0.02 0.07 0.05 0.04 0.02 0.01 0.00 0.00 0.00 0.00 0.00 0.00 0.00 0.00 0.00 0.00 0.00 0.00 0.00 0.00 0.00 0.00 0.00 0.00 0.00 0.01 0.01 0.01 0.01 0.01 0.02 0.01 0.02 0.02 0.01 0.03 0.06 0.21
0.00 0.01 0.00 0.00 0.00 0.01 0.01 0.05 0.08 0.06 0.02 0.01 0.00 0.00 0.00 0.00 0.00 0.00 0.00 0.00 0.00 0.00 0.00 0.00 0.00 0.00 0.00 0.00 0.00 0.00 0.00 0.00 0.01 0.01 0.00 0.00 0.01 0.01 0.01 0.02 0.02 0.03 0.02 0.02
0.00 0.00 0.00 0.00 0.00 0.02 0.09 0.10 0.07 0.17 0.09 0.04 0.00 0.00 0.00 0.00 0.00 0.00 0.00 0.00 0.00 0.00 0.00 0.00 0.00 0.00 0.00 0.00 0.00 0.00 0.00 0.00 0.01 0.02 0.00 0.01 0.01 0.01 0.01 0.00 0.01 0.03 0.03 0.03
0.00 0.00 0.00 0.00 0.00 0.00 0.08 0.19 0.39 0.39 0.26 0.09 0.01 0.03 0.06 0.01 0.00 0.00 0.00 0.00 0.00 0.00 0.00 0.00 0.00 0.00 0.00 0.00 0.01 0.01 0.00 0.01 0.01 0.03 0.01 0.00 0.00 0.01 0.01 0.00 0.00 0.01 0.02 0.03
0.01 0.00 0.01 0.03 0.01 0.03 0.09 0.27 0.46 0.36 0.10 0.13 0.12 0.27 0.15 0.01 0.00 0.00 0.00 0.00 0.00 0.00 0.01 0.00 0.00 0.00 0.00 0.02 0.03 0.02 0.01 0.01 0.01 0.03 0.00 0.01 0.00 0.01 0.00 0.00 0.00 0.00 0.02 0.03
0.10 0.08 0.03 0.01 0.00 0.00 0.03 0.09 0.23 0.46 0.31 0.17 0.16 0.40 0.37 0.07 0.00 0.00 0.00 0.01 0.02 0.03 0.03 0.03 0.04 0.03 0.03 0.06 0.06 0.04 0.03 0.02 0.03 0.06 0.02 0.00 0.00 0.01 0.01 0.01 0.01 0.00 0.00 0.01
0.05 0.16 0.15 0.07 0.10 0.05 0.05 0.10 0.19 0.31 0.40 0.32 0.29 0.32 0.58 0.28 0.06 0.02 0.00 0.01 0.03 0.06 0.06 0.05 0.07 0.10 0.12 0.20 0.22 0.24 0.19 0.23 0.25 0.15 0.05 0.02 0.01 0.01 0.01 0.01 0.01 0.01 0.01 0.00
0.10 0.06 0.08 0.10 0.16 0.18 0.12 0.09 0.14 0.42 0.62 0.36 0.23 0.15 0.75 0.96 0.43 0.13 0.02 0.04 0.08 0.10 0.14 0.13 0.12 0.15 0.21 0.30 0.35 0.39 0.45 0.44 0.29 0.15 0.07 0.07 0.03 0.02 0.02 0.01 0.01 0.02 0.02 0.01
0.22 0.12 0.07 0.03 0.02 0.04 0.11 0.12 0.09 0.18 0.23 0.31 0.10 0.13 0.31 0.78 0.87 0.53 0.09 0.05 0.09 0.13 0.11 0.18 0.16 0.15 0.16 0.19 0.23 0.26 0.25 0.23 0.21 0.16 0.08 0.10 0.08 0.08 0.07 0.05 0.03 0.02 0.01 0.01
0.38 0.21 0.08 0.06 0.02 0.02 0.03 0.02 0.11 0.13 0.08 0.09 0.06 0.12 0.21 0.43 0.59 0.51 0.42 0.20 0.16 0.15 0.13 0.13 0.11 0.10 0.10 0.10 0.09 0.12 0.14 0.11 0.08 0.05 0.07 0.12 0.06 0.09 0.11 0.14 0.17 0.11 0.06 0.09
0.35 0.42 0.32 0.15 0.03 0.01 0.01 0.00 0.03 0.10 0.14 0.23 0.24 0.09 0.13 0.20 0.41 0.32 0.35 0.29 0.26 0.30 0.11 0.11 0.11 0.08 0.08 0.06 0.04 0.07 0.09 0.08 0.06 0.05 0.04 0.02 0.01 0.02 0.04 0.09 0.11 0.10 0.10 0.15
0.29 0.29 0.36 0.26 0.05 0.04 0.00 0.00 0.00 0.03 0.08 0.08 0.12 0.19 0.29 0.26 0.55 0.61 0.26 0.31 0.35 0.46 0.53 0.17 0.11 0.05 0.04 0.04 0.03 0.04 0.06 0.07 0.05 0.02 0.03 0.03 0.01 0.02 0.03 0.05 0.03 0.04 0.07 0.09
0.09 0.22 0.27 0.16 0.11 0.04 0.01 0.00 0.00 0.04 0.07 0.04 0.07 0.12 0.13 0.13 0.24 0.58 0.53 0.31 0.36 0.44 0.57 0.75 0.23 0.11 0.06 0.01 0.00 0.02 0.02 0.02 0.02 0.02 0.01 0.00 0.00 0.01 0.01 0.01 0.01 0.02 0.02 0.03
0.02 0.08 0.25 0.14 0.07 0.03 0.06 0.00 0.00 0.00 0.05 0.01 0.01 0.07 0.14 0.05 0.10 0.25 0.40 0.49 0.58 0.49 0.37 0.34 0.46 0.27 0.18 0.15 0.04 0.00 0.01 0.01 0.01 0.01 0.01 0.00 0.00 0.00 0.00 0.00 0.00 0.01 0.02 0.02
0.05 0.06 0.08 0.09 0.05 0.02 0.00 0.00 0.00 0.05 0.12 0.01 0.00 0.01 0.08 0.24 0.24 0.52 0.63 0.72 0.81 0.34 0.22 0.23 0.15 0.12 0.12 0.14 0.17 0.12 0.04 0.02 0.01 0.01 0.01 0.01 0.00 0.00 0.01 0.01 0.01 0.01 0.01 0.01
0.17 0.10 0.07 0.08 0.07 0.04 0.00 0.01 0.04 0.13 0.05 0.02 0.01 0.01 0.03 0.15 0.17 0.43 0.51 0.66 0.67 0.43 0.14 0.08 0.10 0.04 0.01 0.00 0.01 0.02 0.05 0.06 0.05 0.03 0.01 0.01 0.01 0.01 0.01 0.02 0.03 0.04 0.02 0.04
0.50 0.26 0.18 0.10 0.08 0.06 0.07 0.05 0.06 0.05 0.11 0.11 0.27 0.30 0.29 0.31 0.55 0.62 0.61 0.69 0.78 0.44 0.05 0.00 0.00 0.00 0.00 0.00 0.00 0.00 0.00 0.00 0.00 0.01 0.01 0.01 0.01 0.01 0.01 0.03 0.05 0.06 0.05 0.06
0.32 0.30 0.55 0.52 0.41 0.16 0.23 0.20 0.05 0.03 0.04 0.04 0.12 0.58 0.92 1.03 0.98 1.00 0.97 0.72 0.57 0.36 0.04 0.00 0.00 0.00 0.01 0.00 0.00 0.00 0.00 0.00 0.00 0.01 0.01 0.01 0.01 0.02 0.00 0.04 0.06 0.06 0.07 0.09
0.32 0.51 0.38 0.69 0.76 0.51 0.45 0.58 0.30 0.15 0.12 0.14 0.16 0.13 0.28 0.41 0.42 0.26 0.24 0.30 0.32 0.32 0.14 0.01 0.00 0.01 0.01 0.00 0.00 0.00 0.01 0.01 0.01 0.02 0.04 0.05 0.05 0.06 0.07 0.11 0.17 0.17 0.29 0.33
0.33 0.83 0.74 0.67 0.92 1.08 1.04 0.57 0.45 0.47 0.31 0.25 0.12 0.08 0.09 0.15 0.20 0.22 0.17 0.11 0.10 0.11 0.08 0.03 0.01 0.01 0.02 0.02 0.02 0.03 0.03 0.03 0.03 0.05 0.08 0.11 0.08 0.10 0.12 0.14 0.21 0.35 0.41 0.40

GFSCGP_prec_precacc24_084.txt.gz
Total_Precipitation_Accumulation
0.00 0.00 0.00 0.00 0.00 0.00 0.00 0.00 0.00 0.00 0.00 0.00 0.00 0.00 0.00 0.00 0.00 0.00 0.00 0.00 0.00 0.00 0.00 0.00 0.00 0.00 0.00 0.00 0.00 0.00 0.02 0.04 0.02 0.02 0.03 0.04 0.05 0.11 0.09 0.17 0.36 0.68 0.88 1.60
0.00 0.00 0.00 0.00 0.00 0.00 0.00 0.00 0.00 0.00 0.00 0.00 0.00 0.00 0.00 0.00 0.00 0.00 0.00 0.00 0.00 0.00 0.00 0.00 0.00 0.00 0.00 0.00 0.00 0.00 0.01 0.02 0.01 0.01 0.01 0.02 0.02 0.07 0.11 0.19 0.29 0.36 0.53 0.94
0.01 0.00 0.00 0.00 0.00 0.00 0.00 0.00 0.00 0.00 0.00 0.00 0.00 0.00 0.00 0.00 0.00 0.00 0.00 0.00 0.00 0.00 0.00 0.00 0.00 0.00 0.00 0.00 0.00 0.00 0.01 0.01 0.02 0.01 0.02 0.02 0.03 0.06 0.11 0.27 0.50 0.33 0.35 0.71
0.04 0.00 0.00 0.00 0.00 0.00 0.00 0.00 0.00 0.00 0.00 0.00 0.00 0.00 0.00 0.00 0.00 0.00 0.00 0.00 0.00 0.00 0.00 0.00 0.00 0.00 0.00 0.00 0.00 0.00 0.00 0.01 0.01 0.01 0.02 0.02 0.02 0.03 0.03 0.04 0.24 0.44 0.24 0.41
0.01 0.02 0.02 0.00 0.00 0.00 0.00 0.00 0.00 0.00 0.00 0.00 0.00 0.00 0.00 0.00 0.00 0.00 0.00 0.00 0.00 0.00 0.00 0.00 0.00 0.00 0.00 0.00 0.00 0.00 0.00 0.01 0.01 0.02 0.01 0.01 0.01 0.01 0.02 0.03 0.06 0.30 0.41 0.23
0.00 0.00 0.01 0.01 0.00 0.01 0.00 0.01 0.00 0.00 0.00 0.01 0.00 0.00 0.00 0.00 0.00 0.00 0.00 0.00 0.00 0.00 0.00 0.00 0.00 0.00 0.00 0.00 0.00 0.00 0.01 0.02 0.01 0.01 0.01 0.00 0.01 0.01 0.02 0.03 0.04 0.09 0.27 0.50
0.00 0.00 0.00 0.00 0.00 0.01 0.02 0.07 0.06 0.04 0.02 0.01 0.00 0.01 0.00 0.00 0.00 0.00 0.00 0.00 0.00 0.00 0.00 0.00 0.00 0.00 0.00 0.00 0.00 0.00 0.00 0.01 0.01 0.01 0.01 0.01 0.01 0.01 0.02 0.02 0.02 0.03 0.06 0.20
0.00 0.00 0.00 0.00 0.00 0.01 0.01 0.05 0.08 0.06 0.02 0.01 0.05 0.04 0.01 0.00 0.01 0.00 0.00 0.00 0.00 0.00 0.01 0.00 0.00 0.00 0.00 0.00 0.00 0.00 0.00 0.00 0.01 0.01 0.00 0.00 0.01 0.01 0.01 0.02 0.03 0.03 0.02 0.02
0.00 0.00 0.00 0.00 0.00 0.02 0.09 0.10 0.07 0.17 0.09 0.04 0.00 0.00 0.09 0.05 0.00 0.00 0.00 0.00 0.00 0.00 0.01 0.01 0.00 0.00 0.00 0.00 0.00 0.00 0.00 0.01 0.01 0.02 0.00 0.01 0.00 0.01 0.01 0.01 0.02 0.04 0.04 0.03
0.00 0.00 0.00 0.00 0.00 0.00 0.08 0.20 0.46 0.49 0.27 0.10 0.01 0.06 0.16 0.13 0.03 0.00 0.00 0.00 0.00 0.00 0.00 0.01 0.02 0.01 0.01 0.03 0.07 0.05 0.00 0.02 0.03 0.05 0.01 0.01 0.00 0.01 0.01 0.01 0.01 0.01 0.03 0.04
0.02 0.02 0.01 0.04 0.02 0.03 0.09 0.27 0.47 0.40 0.12 0.17 0.15 0.45 0.38 0.10 0.03 0.00 0.00 0.00 0.00 0.00 0.01 0.02 0.04 0.04 0.09 0.07 0.15 0.15 0.03 0.04 0.02 0.06 0.01 0.01 0.00 0.01 0.01 0.01 0.01 0.01 0.02 0.03
0.14 0.12 0.05 0.01 0.00 0.00 0.04 0.09 0.24 0.50 0.33 0.20 0.19 0.43 0.39 0.07 0.00 0.00 0.00 0.01 0.02 0.03 0.04 0.04 0.05 0.05 0.12 0.19 0.14 0.08 0.04 0.05 0.05 0.07 0.04 0.01 0.01 0.01 0.02 0.01 0.01 0.01 0.01 0.01
0.07 0.19 0.16 0.07 0.09 0.05 0.05 0.11 0.20 0.35 0.41 0.28 0.32 0.36 0.59 0.28 0.06 0.02 0.00 0.01 0.03 0.06 0.06 0.06 0.09 0.12 0.16 0.24 0.26 0.26 0.23 0.26 0.26 0.18 0.09 0.04 0.03 0.01 0.01 0.01 0.02 0.02 0.01 0.00
0.12 0.06 0.09 0.10 0.16 0.22 0.16 0.12 0.15 0.45 0.61 0.34 0.23 0.16 0.75 0.97 0.45 0.13 0.02 0.04 0.08 0.10 0.14 0.14 0.15 0.18 0.24 0.33 0.37 0.45 0.51 0.48 0.30 0.18 0.08 0.08 0.05 0.03 0.02 0.01 0.02 0.02 0.02 0.01
0.24 0.12 0.05 0.04 0.02 0.08 0.16 0.16 0.12 0.21 0.25 0.31 0.10 0.12 0.31 0.80 0.93 0.53 0.09 0.05 0.09 0.13 0.12 0.20 0.19 0.19 0.20 0.23 0.27 0.33 0.33 0.29 0.23 0.19 0.14 0.14 0.09 0.08 0.08 0.06 0.03 0.02 0.02 0.02
0.48 0.24 0.09 0.06 0.03 0.03 0.03 0.03 0.14 0.20 0.14 0.11 0.05 0.14 0.23 0.52 0.64 0.51 0.42 0.20 0.16 0.17 0.15 0.15 0.16 0.14 0.15 0.14 0.13 0.17 0.22 0.18 0.12 0.06 0.09 0.13 0.07 0.10 0.12 0.14 0.17 0.11 0.07 0.09
0.41 0.50 0.30 0.13 0.05 0.04 0.02 0.00 0.03 0.11 0.16 0.24 0.27 0.14 0.15 0.21 0.42 0.32 0.35 0.29 0.27 0.33 0.17 0.15 0.16 0.14 0.14 0.11 0.09 0.13 0.15 0.13 0.12 0.09 0.06 0.05 0.04 0.04 0.06 0.10 0.11 0.11 0.11 0.16
0.30 0.31 0.36 0.24 0.11 0.16 0.01 0.00 0.00 0.03 0.10 0.12 0.13 0.19 0.29 0.26 0.55 0.61 0.27 0.32 0.38 0.47 0.59 0.27 0.17 0.14 0.11 0.10 0.08 0.10 0.12 0.14 0.12 0.07 0.07 0.06 0.06 0.08 0.07 0.08 0.08 0.09 0.11 0.11
0.09 0.25 0.31 0.32 0.32 0.13 0.01 0.00 0.00 0.05 0.18 0.05 0.07 0.12 0.13 0.13 0.24 0.58 0.54 0.33 0.37 0.47 0.63 0.91 0.42 0.22 0.19 0.09 0.06 0.08 0.11 0.13 0.14 0.16 0.10 0.07 0.04 0.07 0.09 0.07 0.05 0.07 0.10 0.12
0.03 0.11 0.30 0.20 0.38 0.24 0.16 0.01 0.00 0.00 0.12 0.02 0.01 0.07 0.14 0.05 0.10 0.25 0.42 0.53 0.61 0.55 0.45 0.45 0.70 0.61 0.43 0.32 0.12 0.05 0.09 0.09 0.14 0.10 0.11 0.08 0.09 0.04 0.02 0.02 0.02 0.02 0.03 0.06
0.05 0.06 0.11 0.16 0.26 0.27 0.11 0.02 0.00 0.05 0.11 0.01 0.00 0.01 0.08 0.24 0.24 0.54 0.66 0.75 0.87 0.41 0.30 0.33 0.28 0.39 0.58 0.60 0.58 0.35 0.13 0.09 0.06 0.12 0.10 0.10 0.12 0.11 0.04 0.02 0.01 0.01 0.01 0.02
0.20 0.13 0.09 0.12 0.16 0.10 0.00 0.01 0.03 0.09 0.04 0.02 0.01 0.01 0.03 0.15 0.18 0.45 0.55 0.71 0.73 0.48 0.21 0.17 0.21 0.17 0.16 0.16 0.22 0.43 0.48 0.36 0.22 0.13 0.11 0.09 0.05 0.10 0.13 0.05 0.03 0.04 0.03 0.04
0.51 0.32 0.41 0.20 0.19 0.08 0.07 0.04 0.04 0.05 0.11 0.10 0.27 0.30 0.30 0.31 0.56 0.64 0.64 0.73 0.84 0.50 0.09 0.03 0.05 0.02 0.01 0.01 0.02 0.02 0.05 0.15 0.21 0.23 0.23 0.17 0.12 0.07 0.04 0.05 0.05 0.06 0.06 0.07
0.29 0.30 0.58 0.52 0.41 0.15 0.21 0.18 0.05 0.03 0.04 0.04 0.12 0.58 0.93 1.04 0.99 1.02 1.01 0.76 0.63 0.45 0.10 0.01 0.00 0.00 0.01 0.00 0.00 0.00 0.00 0.00 0.00 0.00 0.00 0.01 0.02 0.03 0.03 0.04 0.05 0.06 0.08 0.10
0.25 0.39 0.34 0.66 0.71 0.45 0.29 0.52 0.32 0.16 0.12 0.14 0.16 0.14 0.30 0.43 0.46 0.30 0.28 0.35 0.40 0.43 0.25 0.07 0.03 0.02 0.01 0.00 0.00 0.00 0.00 0.00 0.00 0.00 0.00 0.01 0.02 0.03 0.04 0.08 0.12 0.12 0.22 0.22
0.32 0.78 0.70 0.63 0.85 1.02 0.86 0.57 0.46 0.49 0.33 0.27 0.12 0.09 0.10 0.16 0.24 0.27 0.22 0.16 0.15 0.19 0.17 0.12 0.09 0.06 0.02 0.01 0.01 0.01 0.01 0.00 0.00 0.00 0.01 0.02 0.02 0.03 0.05 0.07 0.13 0.20 0.26 0.25

GFSCGP_prec_precacc24_087.txt.gz
Total_Precipitation_Accumulation
0.00 0.00 0.00 0.00 0.00 0.00 0.00 0.00 0.00 0.00 0.00 0.00 0.00 0.00 0.00 0.00 0.00 0.00 0.00 0.00 0.00 0.00 0.00 0.00 0.00 0.00 0.00 0.00 0.00 0.00 0.02 0.05 0.03 0.02 0.02 0.03 0.03 0.05 0.04 0.07 0.32 0.68 0.88 1.63
0.00 0.00 0.00 0.00 0.00 0.00 0.00 0.00 0.00 0.00 0.00 0.00 0.00 0.00 0.00 0.00 0.00 0.00 0.00 0.00 0.00 0.00 0.00 0.00 0.00 0.00 0.00 0.00 0.00 0.00 0.01 0.04 0.02 0.00 0.01 0.02 0.01 0.04 0.07 0.13 0.23 0.36 0.54 0.96
0.00 0.00 0.00 0.00 0.00 0.00 0.00 0.00 0.00 0.00 0.00 0.00 0.00 0.00 0.00 0.00 0.00 0.00 0.00 0.00 0.00 0.00 0.00 0.00 0.00 0.00 0.00 0.00 0.00 0.00 0.02 0.03 0.02 0.01 0.01 0.02 0.02 0.04 0.07 0.24 0.49 0.33 0.35 0.72
0.00 0.00 0.00 0.00 0.00 0.00 0.00 0.00 0.00 0.00 0.00 0.00 0.00 0.00 0.00 0.00 0.00 0.00 0.00 0.00 0.00 0.00 0.00 0.00 0.00 0.00 0.00 0.00 0.00 0.00 0.01 0.03 0.01 0.01 0.01 0.01 0.01 0.02 0.03 0.04 0.24 0.45 0.24 0.42
0.00 0.00 0.00 0.00 0.00 0.00 0.00 0.00 0.00 0.00 0.00 0.00 0.00 0.00 0.00 0.00 0.00 0.00 0.01 0.00 0.00 0.00 0.00 0.00 0.00 0.00 0.00 0.00 0.00 0.00 0.05 0.04 0.01 0.02 0.01 0.01 0.01 0.01 0.02 0.03 0.06 0.31 0.42 0.24
0.00 0.00 0.00 0.00 0.00 0.01 0.00 0.00 0.00 0.00 0.00 0.01 0.00 0.00 0.00 0.00 0.00 0.01 0.04 0.03 0.01 0.00 0.00 0.00 0.00 0.00 0.00 0.00 0.00 0.00 0.03 0.03 0.01 0.01 0.01 0.00 0.01 0.01 0.02 0.03 0.04 0.09 0.28 0.50
0.00 0.00 0.00 0.00 0.00 0.01 0.01 0.06 0.05 0.04 0.02 0.01 0.00 0.01 0.01 0.05 0.07 0.04 0.07 0.05 0.03 0.01 0.00 0.00 0.00 0.00 0.00 0.02 0.02 0.00 0.02 0.02 0.00 0.01 0.01 0.01 0.01 0.01 0.02 0.02 0.02 0.03 0.06 0.20
0.00 0.00 0.00 0.00 0.00 0.01 0.01 0.05 0.08 0.06 0.02 0.01 0.05 0.05 0.24 0.46 0.09 0.05 0.02 0.02 0.03 0.02 0.01 0.00 0.00 0.00 0.00 0.00 0.02 0.02 0.05 0.04 0.02 0.02 0.00 0.01 0.01 0.01 0.01 0.02 0.03 0.03 0.02 0.02
0.00 0.00 0.00 0.00 0.00 0.02 0.08 0.10 0.07 0.16 0.07 0.04 0.00 0.01 0.23 0.38 0.12 0.05 0.03 0.01 0.00 0.00 0.02 0.02 0.00 0.00 0.01 0.04 0.07 0.05 0.06 0.07 0.06 0.06 0.02 0.02 0.01 0.01 0.01 0.01 0.02 0.04 0.04 0.03
0.00 0.00 0.00 0.00 0.01 0.00 0.08 0.20 0.43 0.47 0.30 0.11 0.01 0.08 0.21 0.21 0.09 0.05 0.01 0.00 0.00 0.00 0.00 0.02 0.03 0.05 0.10 0.43 0.63 0.53 0.29 0.16 0.08 0.09 0.04 0.02 0.02 0.01 0.01 0.01 0.02 0.02 0.03 0.04
0.02 0.03 0.01 0.04 0.02 0.04 0.10 0.26 0.39 0.39 0.16 0.19 0.15 0.47 0.53 0.17 0.05 0.05 0.03 0.00 0.00 0.00 0.01 0.02 0.07 0.10 0.22 0.31 0.41 0.43 0.34 0.24 0.05 0.09 0.05 0.04 0.03 0.02 0.01 0.02 0.01 0.01 0.02 0.03
0.14 0.12 0.05 0.01 0.00 0.00 0.06 0.12 0.25 0.48 0.31 0.21 0.21 0.44 0.42 0.10 0.01 0.00 0.00 0.01 0.02 0.03 0.04 0.04 0.05 0.06 0.19 0.32 0.34 0.29 0.24 0.23 0.13 0.09 0.11 0.12 0.05 0.02 0.03 0.02 0.02 0.01 0.01 0.02
0.07 0.19 0.17 0.07 0.08 0.07 0.08 0.16 0.24 0.40 0.45 0.28 0.35 0.39 0.61 0.29 0.07 0.02 0.00 0.01 0.03 0.06 0.06 0.07 0.09 0.12 0.17 0.22 0.28 0.29 0.27 0.33 0.34 0.22 0.17 0.13 0.11 0.02 0.02 0.02 0.02 0.02 0.01 0.00
0.12 0.07 0.10 0.11 0.16 0.20 0.16 0.14 0.19 0.56 0.68 0.40 0.18 0.15 0.70 1.00 0.54 0.15 0.02 0.04 0.08 0.10 0.14 0.15 0.16 0.18 0.24 0.32 0.33 0.42 0.52 0.52 0.31 0.21 0.18 0.16 0.11 0.05 0.03 0.02 0.03 0.03 0.02 0.02
0.26 0.12 0.05 0.04 0.02 0.07 0.15 0.16 0.16 0.24 0.28 0.32 0.09 0.06 0.25 0.79 1.01 0.57 0.09 0.05 0.09 0.13 0.12 0.20 0.20 0.20 0.21 0.25 0.28 0.34 0.34 0.31 0.24 0.20 0.24 0.24 0.15 0.11 0.09 0.06 0.04 0.03 0.02 0.02
0.48 0.26 0.12 0.07 0.03 0.02 0.03 0.03 0.14 0.19 0.15 0.16 0.06 0.16 0.19 0.45 0.66 0.51 0.42 0.20 0.16 0.17 0.15 0.16 0.16 0.15 0.17 0.16 0.15 0.20 0.25 0.22 0.15 0.08 0.12 0.13 0.09 0.11 0.13 0.16 0.19 0.12 0.08 0.11
0.40 0.51 0.34 0.16 0.06 0.05 0.02 0.00 0.02 0.06 0.16 0.29 0.35 0.29 0.17 0.20 0.41 0.31 0.35 0.29 0.27 0.33 0.17 0.15 0.16 0.15 0.16 0.14 0.11 0.14 0.19 0.18 0.20 0.15 0.08 0.06 0.05 0.04 0.07 0.12 0.13 0.12 0.12 0.17
0.30 0.31 0.37 0.25 0.12 0.15 0.01 0.00 0.01 0.09 0.16 0.23 0.28 0.24 0.29 0.26 0.55 0.61 0.27 0.32 0.38 0.48 0.59 0.29 0.22 0.18 0.15 0.14 0.14 0.15 0.15 0.20 0.19 0.15 0.15 0.09 0.08 0.08 0.07 0.08 0.09 0.11 0.11 0.11
0.10 0.26 0.33 0.35 0.31 0.13 0.07 0.07 0.06 0.08 0.20 0.06 0.08 0.12 0.13 0.13 0.24 0.58 0.54 0.35 0.42 0.49 0.64 0.92 0.45 0.26 0.26 0.17 0.14 0.16 0.18 0.20 0.23 0.27 0.22 0.16 0.12 0.10 0.13 0.11 0.09 0.11 0.13 0.14
0.04 0.13 0.32 0.23 0.42 0.41 0.63 0.21 0.04 0.04 0.15 0.03 0.01 0.07 0.14 0.05 0.10 0.25 0.43 0.55 0.64 0.58 0.48 0.47 0.73 0.65 0.50 0.50 0.30 0.18 0.19 0.19 0.26 0.29 0.26 0.22 0.24 0.17 0.11 0.11 0.13 0.12 0.12 0.12
0.05 0.06 0.10 0.16 0.32 0.47 0.36 0.11 0.01 0.06 0.16 0.02 0.00 0.01 0.08 0.24 0.25 0.55 0.68 0.78 0.90 0.44 0.31 0.35 0.29 0.42 0.63 0.69 0.77 0.57 0.33 0.27 0.27 0.33 0.40 0.39 0.35 0.31 0.25 0.14 0.09 0.08 0.06 0.05
0.17 0.13 0.11 0.18 0.38 0.41 0.02 0.01 0.03 0.13 0.05 0.02 0.01 0.01 0.03 0.16 0.19 0.46 0.57 0.74 0.77 0.51 0.23 0.19 0.22 0.20 0.20 0.21 0.30 0.60 0.73 0.62 0.49 0.39 0.35 0.43 0.41 0.44 0.46 0.40 0.31 0.17 0.08 0.03
0.73 0.49 0.65 0.41 0.40 0.16 0.05 0.03 0.03 0.04 0.10 0.10 0.27 0.30 0.30 0.31 0.57 0.65 0.65 0.75 0.86 0.54 0.12 0.05 0.07 0.04 0.02 0.03 0.05 0.09 0.17 0.36 0.43 0.46 0.49 0.43 0.41 0.38 0.30 0.26 0.31 0.34 0.29 0.18
0.33 0.28 0.62 0.57 0.39 0.10 0.08 0.09 0.05 0.04 0.04 0.04 0.12 0.58 0.93 1.05 1.00 1.03 1.02 0.78 0.66 0.48 0.14 0.04 0.01 0.00 0.01 0.01 0.01 0.01 0.01 0.01 0.04 0.06 0.07 0.09 0.12 0.13 0.14 0.16 0.15 0.14 0.16 0.17
0.19 0.15 0.26 0.60 0.60 0.39 0.20 0.26 0.24 0.16 0.13 0.15 0.17 0.15 0.30 0.44 0.47 0.31 0.30 0.38 0.43 0.46 0.29 0.10 0.06 0.05 0.05 0.01 0.01 0.00 0.00 0.00 0.00 0.00 0.00 0.00 0.00 0.01 0.03 0.06 0.07 0.08 0.13 0.09
0.25 0.31 0.46 0.51 0.51 0.79 0.63 0.41 0.34 0.45 0.34 0.29 0.14 0.10 0.12 0.17 0.25 0.29 0.25 0.19 0.18 0.22 0.20 0.16 0.13 0.10 0.05 0.02 0.02 0.01 0.00 0.00 0.00 0.00 0.00 0.00 0.00 0.00 0.01 0.02 0.05 0.08 0.11 0.09

GFSCGP_prec_precacc24_090.txt.gz
Total_Precipitation_Accumulation
0.00 0.00 0.00 0.00 0.00 0.00 0.00 0.00 0.00 0.00 0.00 0.00 0.00 0.00 0.00 0.00 0.00 0.00 0.00 0.00 0.00 0.00 0.00 0.00 0.00 0.00 0.00 0.00 0.00 0.00 0.02 0.06 0.07 0.05 0.06 0.06 0.02 0.03 0.02 0.04 0.30 0.67 0.88 1.63
0.00 0.00 0.00 0.00 0.00 0.00 0.00 0.00 0.00 0.00 0.00 0.00 0.00 0.00 0.00 0.00 0.00 0.00 0.00 0.00 0.00 0.00 0.00 0.00 0.00 0.00 0.00 0.00 0.00 0.00 0.01 0.03 0.02 0.02 0.04 0.02 0.02 0.03 0.03 0.06 0.13 0.30 0.53 0.96
0.00 0.00 0.00 0.00 0.00 0.00 0.00 0.00 0.00 0.00 0.00 0.00 0.00 0.00 0.00 0.00 0.00 0.00 0.00 0.00 0.00 0.00 0.00 0.00 0.00 0.00 0.00 0.00 0.00 0.00 0.01 0.02 0.02 0.02 0.04 0.03 0.03 0.03 0.05 0.13 0.27 0.18 0.33 0.72
0.00 0.00 0.00 0.00 0.00 0.00 0.00 0.00 0.00 0.00 0.00 0.00 0.00 0.00 0.00 0.00 0.00 0.00 0.00 0.00 0.00 0.00 0.00 0.00 0.00 0.00 0.00 0.00 0.00 0.00 0.01 0.02 0.02 0.03 0.03 0.01 0.01 0.02 0.03 0.03 0.16 0.30 0.21 0.41
0.00 0.00 0.00 0.00 0.00 0.00 0.00 0.00 0.00 0.00 0.00 0.00 0.00 0.00 0.00 0.00 0.00 0.00 0.01 0.01 0.00 0.00 0.00 0.00 0.00 0.00 0.00 0.00 0.00 0.00 0.05 0.04 0.01 0.04 0.02 0.01 0.01 0.01 0.02 0.02 0.04 0.25 0.38 0.23
0.00 0.00 0.00 0.00 0.00 0.00 0.00 0.00 0.00 0.00 0.00 0.01 0.00 0.00 0.00 0.01 0.05 0.05 0.06 0.05 0.05 0.01 0.00 0.00 0.00 0.00 0.00 0.08 0.04 0.00 0.03 0.04 0.05 0.03 0.02 0.01 0.01 0.01 0.02 0.03 0.03 0.07 0.27 0.50
0.00 0.00 0.00 0.00 0.00 0.00 0.01 0.04 0.04 0.02 0.02 0.01 0.00 0.01 0.01 0.09 0.18 0.13 0.14 0.10 0.08 0.05 0.02 0.00 0.00 0.00 0.00 0.05 0.17 0.12 0.10 0.04 0.02 0.02 0.02 0.01 0.01 0.01 0.02 0.02 0.02 0.03 0.07 0.21
0.00 0.00 0.00 0.00 0.00 0.00 0.00 0.03 0.06 0.04 0.02 0.01 0.05 0.05 0.24 0.53 0.21 0.12 0.10 0.10 0.17 0.11 0.03 0.02 0.01 0.00 0.00 0.00 0.07 0.14 0.27 0.14 0.07 0.05 0.02 0.02 0.01 0.01 0.01 0.02 0.03 0.04 0.02 0.02
0.00 0.00 0.00 0.00 0.00 0.01 0.06 0.06 0.06 0.14 0.06 0.03 0.00 0.01 0.24 0.41 0.19 0.17 0.19 0.12 0.06 0.05 0.05 0.03 0.01 0.00 0.01 0.04 0.20 0.16 0.13 0.12 0.13 0.11 0.05 0.03 0.02 0.01 0.01 0.01 0.02 0.04 0.04 0.03
0.00 0.00 0.00 0.00 0.01 0.01 0.08 0.19 0.33 0.40 0.27 0.10 0.01 0.10 0.25 0.22 0.10 0.07 0.10 0.07 0.00 0.00 0.00 0.02 0.03 0.08 0.14 0.47 0.74 0.74 0.62 0.40 0.29 0.23 0.09 0.05 0.03 0.01 0.02 0.01 0.02 0.02 0.03 0.04
0.02 0.03 0.01 0.04 0.02 0.04 0.10 0.17 0.32 0.35 0.16 0.19 0.15 0.46 0.53 0.17 0.05 0.05 0.04 0.03 0.00 0.00 0.01 0.02 0.07 0.14 0.30 0.42 0.64 0.77 0.77 0.67 0.46 0.39 0.19 0.07 0.04 0.04 0.03 0.03 0.02 0.02 0.02 0.03
0.14 0.12 0.05 0.01 0.00 0.00 0.05 0.14 0.30 0.50 0.33 0.22 0.21 0.39 0.39 0.10 0.01 0.00 0.00 0.01 0.02 0.03 0.04 0.04 0.05 0.07 0.23 0.41 0.56 0.65 0.82 1.09 0.70 0.36 0.23 0.16 0.07 0.09 0.05 0.03 0.03 0.02 0.01 0.02
0.07 0.19 0.16 0.07 0.08 0.06 0.09 0.16 0.28 0.43 0.44 0.30 0.38 0.39 0.55 0.28 0.07 0.02 0.00 0.01 0.03 0.06 0.06 0.07 0.09 0.11 0.17 0.21 0.30 0.39 0.61 0.74 0.78 0.61 0.31 0.17 0.16 0.09 0.04 0.03 0.03 0.04 0.03 0.02
0.12 0.07 0.10 0.10 0.15 0.19 0.16 0.13 0.20 0.65 0.77 0.48 0.29 0.24 0.69 0.87 0.48 0.24 0.06 0.04 0.08 0.10 0.14 0.15 0.15 0.18 0.24 0.31 0.31 0.34 0.49 0.52 0.39 0.50 0.34 0.24 0.16 0.08 0.04 0.02 0.04 0.03 0.03 0.02
0.26 0.12 0.05 0.03 0.02 0.07 0.13 0.12 0.13 0.22 0.31 0.41 0.16 0.20 0.35 0.64 0.75 0.60 0.16 0.05 0.09 0.13 0.12 0.20 0.20 0.20 0.21 0.25 0.27 0.34 0.36 0.41 0.31 0.36 0.42 0.25 0.13 0.11 0.08 0.07 0.05 0.04 0.03 0.02
0.48 0.26 0.12 0.07 0.03 0.02 0.02 0.03 0.10 0.15 0.14 0.16 0.07 0.24 0.48 0.41 0.49 0.49 0.41 0.20 0.16 0.17 0.15 0.16 0.16 0.15 0.17 0.17 0.16 0.21 0.28 0.27 0.24 0.15 0.16 0.15 0.11 0.09 0.08 0.09 0.13 0.10 0.08 0.11
0.39 0.50 0.34 0.16 0.06 0.06 0.03 0.01 0.01 0.04 0.15 0.23 0.27 0.31 0.21 0.17 0.18 0.26 0.35 0.29 0.27 0.33 0.17 0.15 0.17 0.16 0.17 0.16 0.13 0.16 0.21 0.23 0.28 0.26 0.16 0.11 0.10 0.09 0.05 0.06 0.09 0.11 0.12 0.14
0.30 0.31 0.37 0.25 0.12 0.16 0.04 0.06 0.05 0.11 0.28 0.35 0.40 0.25 0.26 0.24 0.51 0.57 0.27 0.33 0.38 0.48 0.59 0.29 0.22 0.19 0.16 0.19 0.18 0.18 0.18 0.24 0.27 0.24 0.26 0.16 0.10 0.12 0.09 0.08 0.11 0.13 0.10 0.10
0.10 0.26 0.35 0.36 0.33 0.15 0.10 0.14 0.28 0.28 0.31 0.16 0.10 0.07 0.12 0.12 0.23 0.58 0.54 0.36 0.43 0.50 0.65 0.93 0.46 0.27 0.29 0.24 0.22 0.20 0.23 0.23 0.28 0.38 0.33 0.35 0.32 0.24 0.19 0.14 0.11 0.11 0.14 0.15
0.05 0.14 0.34 0.24 0.49 0.42 0.66 0.25 0.16 0.35 0.31 0.11 0.03 0.06 0.14 0.06 0.11 0.26 0.44 0.56 0.66 0.58 0.48 0.47 0.73 0.66 0.51 0.55 0.38 0.27 0.27 0.26 0.31 0.34 0.38 0.41 0.47 0.44 0.35 0.28 0.22 0.16 0.14 0.13
0.05 0.07 0.12 0.17 0.34 0.49 0.42 0.21 0.17 0.24 0.28 0.03 0.00 0.01 0.08 0.25 0.25 0.56 0.69 0.79 0.91 0.45 0.32 0.35 0.30 0.43 0.65 0.71 0.81 0.66 0.47 0.40 0.40 0.42 0.49 0.53 0.57 0.60 0.52 0.34 0.25 0.23 0.18 0.17
0.22 0.17 0.14 0.25 0.49 0.50 0.05 0.14 0.20 0.24 0.09 0.01 0.01 0.01 0.03 0.16 0.20 0.47 0.58 0.76 0.78 0.52 0.24 0.19 0.23 0.21 0.22 0.22 0.32 0.63 0.79 0.75 0.63 0.53 0.45 0.54 0.57 0.64 0.74 0.74 0.60 0.38 0.25 0.19
0.80 0.71 0.80 0.53 0.50 0.25 0.08 0.09 0.11 0.07 0.10 0.09 0.26 0.30 0.30 0.32 0.57 0.65 0.66 0.76 0.88 0.55 0.12 0.05 0.08 0.05 0.03 0.06 0.08 0.13 0.24 0.43 0.50 0.54 0.58 0.52 0.49 0.51 0.48 0.50 0.60 0.66 0.61 0.45
0.32 0.32 0.66 0.58 0.41 0.11 0.09 0.06 0.07 0.05 0.05 0.04 0.11 0.58 0.93 1.05 1.00 1.04 1.03 0.79 0.66 0.49 0.16 0.05 0.02 0.01 0.02 0.04 0.05 0.03 0.02 0.03 0.06 0.09 0.11 0.16 0.20 0.22 0.23 0.26 0.29 0.31 0.36 0.40
0.17 0.15 0.23 0.53 0.52 0.34 0.19 0.16 0.15 0.15 0.13 0.16 0.18 0.15 0.31 0.44 0.48 0.31 0.30 0.38 0.44 0.47 0.31 0.12 0.08 0.07 0.07 0.03 0.03 0.03 0.03 0.01 0.01 0.01 0.02 0.03 0.05 0.08 0.10 0.12 0.12 0.14 0.18 0.14
0.23 0.17 0.15 0.38 0.42 0.44 0.57 0.38 0.24 0.37 0.33 0.29 0.14 0.11 0.12 0.17 0.25 0.29 0.26 0.20 0.19 0.23 0.22 0.17 0.15 0.13 0.08 0.04 0.04 0.04 0.01 0.00 0.00 0.00 0.00 0.00 0.00 0.00 0.00 0.01 0.02 0.03 0.04 0.03

GFSCGP_prec_precacc24_093.txt.gz
Total_Precipitation_Accumulation
0.00 0.00 0.00 0.00 0.00 0.00 0.00 0.00 0.00 0.00 0.00 0.00 0.00 0.00 0.00 0.00 0.00 0.00 0.00 0.00 0.00 0.00 0.00 0.00 0.00 0.00 0.00 0.00 0.00 0.00 0.02 0.06 0.07 0.06 0.07 0.08 0.02 0.04 0.04 0.04 0.30 0.65 0.85 1.62
0.00 0.00 0.00 0.00 0.00 0.00 0.00 0.00 0.00 0.00 0.00 0.00 0.00 0.00 0.00 0.00 0.00 0.00 0.00 0.00 0.00 0.00 0.00 0.00 0.00 0.00 0.00 0.00 0.00 0.00 0.01 0.03 0.02 0.02 0.06 0.08 0.11 0.13 0.11 0.06 0.10 0.30 0.51 0.94
0.00 0.00 0.00 0.00 0.00 0.00 0.00 0.00 0.00 0.00 0.00 0.00 0.00 0.00 0.00 0.00 0.00 0.00 0.00 0.00 0.00 0.00 0.00 0.00 0.00 0.00 0.00 0.00 0.00 0.00 0.01 0.02 0.02 0.02 0.04 0.07 0.11 0.10 0.15 0.08 0.08 0.14 0.31 0.67
0.00 0.00 0.00 0.00 0.00 0.00 0.00 0.00 0.00 0.00 0.00 0.00 0.00 0.00 0.00 0.00 0.00 0.00 0.00 0.00 0.00 0.00 0.00 0.00 0.00 0.00 0.00 0.00 0.00 0.00 0.01 0.02 0.02 0.03 0.03 0.03 0.02 0.01 0.02 0.02 0.05 0.13 0.13 0.38
0.00 0.00 0.00 0.00 0.00 0.00 0.00 0.00 0.00 0.00 0.00 0.00 0.00 0.00 0.00 0.00 0.00 0.00 0.01 0.01 0.01 0.00 0.00 0.00 0.00 0.00 0.00 0.00 0.00 0.00 0.05 0.04 0.01 0.04 0.02 0.04 0.03 0.05 0.08 0.06 0.03 0.10 0.24 0.17
0.00 0.00 0.00 0.00 0.00 0.00 0.00 0.00 0.00 0.00 0.00 0.01 0.00 0.00 0.00 0.01 0.05 0.05 0.06 0.05 0.05 0.02 0.01 0.00 0.00 0.00 0.00 0.08 0.04 0.00 0.03 0.04 0.05 0.04 0.05 0.04 0.03 0.06 0.06 0.04 0.04 0.05 0.18 0.42
0.00 0.00 0.00 0.00 0.00 0.00 0.00 0.02 0.02 0.02 0.02 0.01 0.00 0.01 0.01 0.09 0.18 0.13 0.14 0.12 0.09 0.06 0.02 0.01 0.01 0.01 0.00 0.05 0.19 0.13 0.13 0.05 0.03 0.03 0.05 0.06 0.08 0.05 0.06 0.04 0.02 0.03 0.05 0.16
0.00 0.00 0.00 0.00 0.00 0.00 0.00 0.01 0.03 0.03 0.02 0.01 0.05 0.05 0.24 0.53 0.21 0.12 0.13 0.16 0.20 0.16 0.04 0.02 0.02 0.03 0.01 0.00 0.10 0.22 0.32 0.25 0.18 0.16 0.15 0.13 0.07 0.03 0.03 0.03 0.03 0.04 0.02 0.02
0.00 0.00 0.00 0.00 0.00 0.00 0.02 0.03 0.03 0.12 0.04 0.03 0.00 0.01 0.24 0.41 0.19 0.17 0.21 0.18 0.14 0.12 0.10 0.04 0.03 0.05 0.04 0.05 0.24 0.25 0.21 0.14 0.21 0.28 0.21 0.17 0.09 0.03 0.02 0.01 0.02 0.04 0.04 0.03
0.00 0.00 0.00 0.00 0.00 0.00 0.03 0.11 0.26 0.36 0.22 0.09 0.01 0.10 0.25 0.22 0.10 0.07 0.10 0.19 0.09 0.02 0.01 0.02 0.04 0.12 0.19 0.51 0.81 0.86 0.75 0.54 0.39 0.36 0.28 0.23 0.14 0.09 0.04 0.01 0.02 0.02 0.03 0.04
0.02 0.03 0.01 0.04 0.02 0.03 0.05 0.10 0.23 0.31 0.16 0.20 0.14 0.42 0.53 0.17 0.05 0.05 0.05 0.08 0.06 0.01 0.01 0.02 0.07 0.15 0.35 0.47 0.71 0.85 0.95 1.03 0.74 0.61 0.43 0.32 0.18 0.13 0.08 0.03 0.02 0.02 0.02 0.03
0.14 0.12 0.05 0.01 0.00 0.00 0.05 0.12 0.26 0.48 0.31 0.22 0.20 0.33 0.39 0.10 0.01 0.00 0.01 0.02 0.03 0.03 0.04 0.04 0.05 0.07 0.28 0.47 0.62 0.71 0.90 1.28 1.01 0.64 0.50 0.39 0.20 0.16 0.07 0.04 0.03 0.02 0.01 0.02
0.07 0.19 0.16 0.07 0.08 0.06 0.08 0.15 0.26 0.40 0.42 0.31 0.40 0.34 0.49 0.27 0.07 0.02 0.01 0.04 0.04 0.06 0.06 0.06 0.08 0.10 0.15 0.18 0.31 0.40 0.67 0.99 0.99 0.96 0.63 0.43 0.27 0.12 0.05 0.03 0.04 0.04 0.03 0.02
0.12 0.07 0.10 0.10 0.14 0.19 0.14 0.10 0.18 0.59 0.71 0.47 0.30 0.22 0.50 0.66 0.46 0.26 0.06 0.04 0.07 0.09 0.12 0.12 0.12 0.14 0.18 0.23 0.26 0.36 0.76 0.80 0.47 0.79 0.87 0.62 0.27 0.10 0.05 0.02 0.04 0.03 0.04 0.03
0.26 0.12 0.05 0.03 0.02 0.07 0.12 0.10 0.10 0.19 0.29 0.41 0.16 0.21 0.38 0.62 0.59 0.54 0.15 0.05 0.09 0.13 0.11 0.19 0.19 0.19 0.20 0.23 0.25 0.33 0.37 0.63 0.55 0.60 1.09 1.05 0.42 0.13 0.06 0.06 0.04 0.03 0.03 0.02
0.48 0.26 0.12 0.07 0.03 0.02 0.02 0.03 0.09 0.10 0.11 0.14 0.07 0.24 0.46 0.44 0.46 0.37 0.26 0.17 0.16 0.17 0.15 0.16 0.16 0.15 0.17 0.17 0.16 0.21 0.28 0.30 0.38 0.36 0.68 0.93 0.75 0.15 0.07 0.06 0.06 0.05 0.07 0.08
0.38 0.49 0.34 0.16 0.06 0.06 0.03 0.04 0.03 0.02 0.09 0.12 0.20 0.29 0.22 0.26 0.20 0.19 0.15 0.15 0.22 0.32 0.17 0.16 0.17 0.16 0.17 0.16 0.14 0.16 0.21 0.24 0.34 0.36 0.41 0.36 0.50 0.33 0.12 0.07 0.07 0.09 0.09 0.09
0.30 0.31 0.37 0.25 0.12 0.16 0.06 0.16 0.22 0.14 0.29 0.40 0.42 0.26 0.18 0.24 0.47 0.41 0.22 0.16 0.28 0.45 0.59 0.29 0.22 0.19 0.17 0.19 0.20 0.19 0.21 0.25 0.32 0.38 0.41 0.45 0.35 0.35 0.15 0.12 0.12 0.14 0.09 0.09
0.10 0.26 0.36 0.36 0.33 0.15 0.11 0.26 0.47 0.39 0.40 0.30 0.22 0.10 0.09 0.07 0.20 0.48 0.52 0.33 0.38 0.48 0.66 0.94 0.47 0.27 0.29 0.24 0.23 0.24 0.25 0.26 0.30 0.42 0.53 0.56 0.49 0.41 0.27 0.21 0.16 0.14 0.15 0.14
0.05 0.14 0.37 0.27 0.50 0.43 0.67 0.25 0.20 0.49 0.41 0.19 0.10 0.04 0.04 0.05 0.10 0.22 0.38 0.50 0.63 0.59 0.49 0.48 0.74 0.67 0.52 0.56 0.39 0.29 0.29 0.28 0.37 0.40 0.46 0.53 0.62 0.62 0.64 0.51 0.33 0.23 0.20 0.17
0.05 0.09 0.14 0.17 0.35 0.50 0.44 0.25 0.30 0.43 0.38 0.08 0.01 0.01 0.05 0.24 0.26 0.57 0.69 0.78 0.90 0.45 0.32 0.35 0.30 0.44 0.65 0.72 0.81 0.67 0.51 0.45 0.47 0.52 0.55 0.59 0.66 0.75 0.69 0.58 0.51 0.45 0.34 0.28
0.31 0.22 0.19 0.31 0.57 0.55 0.08 0.19 0.34 0.38 0.18 0.03 0.01 0.01 0.02 0.15 0.20 0.48 0.59 0.77 0.79 0.53 0.24 0.19 0.23 0.22 0.23 0.23 0.32 0.64 0.81 0.79 0.69 0.61 0.54 0.62 0.62 0.70 0.84 0.89 0.79 0.60 0.49 0.41
0.84 0.77 0.90 0.60 0.57 0.34 0.15 0.17 0.23 0.17 0.09 0.07 0.10 0.17 0.20 0.22 0.50 0.64 0.66 0.77 0.89 0.55 0.12 0.05 0.08 0.05 0.04 0.06 0.08 0.14 0.25 0.44 0.53 0.58 0.64 0.59 0.57 0.57 0.53 0.55 0.67 0.77 0.75 0.61
0.29 0.27 0.57 0.56 0.42 0.17 0.19 0.12 0.09 0.08 0.07 0.06 0.07 0.39 0.82 0.95 0.96 1.03 1.03 0.80 0.67 0.50 0.16 0.05 0.02 0.01 0.03 0.05 0.06 0.04 0.02 0.03 0.07 0.11 0.15 0.20 0.25 0.27 0.28 0.30 0.33 0.35 0.43 0.49
0.10 0.13 0.23 0.44 0.48 0.35 0.20 0.20 0.15 0.15 0.14 0.16 0.19 0.16 0.31 0.44 0.49 0.32 0.31 0.39 0.44 0.47 0.31 0.12 0.08 0.07 0.08 0.04 0.03 0.05 0.04 0.01 0.01 0.03 0.05 0.07 0.09 0.12 0.15 0.16 0.16 0.17 0.21 0.18
0.20 0.16 0.12 0.30 0.28 0.35 0.39 0.32 0.22 0.21 0.26 0.29 0.15 0.11 0.13 0.18 0.26 0.29 0.26 0.21 0.19 0.23 0.22 0.17 0.15 0.13 0.08 0.04 0.04 0.04 0.02 0.02 0.01 0.01 0.01 0.01 0.01 0.01 0.03 0.04 0.06 0.06 0.06 0.04

GFSCGP_prec_precacc24_096.txt.gz
Total_Precipitation_Accumulation
0.00 0.00 0.00 0.00 0.00 0.00 0.00 0.00 0.00 0.00 0.00 0.00 0.00 0.00 0.00 0.00 0.00 0.00 0.00 0.00 0.00 0.00 0.00 0.00 0.00 0.00 0.00 0.00 0.00 0.00 0.01 0.06 0.08 0.08 0.08 0.09 0.02 0.03 0.06 0.05 0.12 0.21 0.56 1.43
0.00 0.00 0.00 0.00 0.00 0.00 0.00 0.00 0.00 0.00 0.00 0.00 0.00 0.00 0.00 0.00 0.00 0.00 0.00 0.00 0.00 0.00 0.00 0.00 0.00 0.00 0.00 0.00 0.00 0.00 0.00 0.03 0.01 0.02 0.06 0.08 0.11 0.13 0.17 0.18 0.23 0.27 0.36 0.78
0.00 0.00 0.00 0.00 0.00 0.00 0.00 0.00 0.00 0.00 0.00 0.00 0.00 0.00 0.00 0.00 0.00 0.00 0.00 0.00 0.00 0.00 0.00 0.00 0.00 0.00 0.00 0.00 0.00 0.00 0.01 0.02 0.01 0.02 0.04 0.08 0.15 0.18 0.31 0.34 0.31 0.26 0.33 0.62
0.00 0.00 0.00 0.00 0.00 0.00 0.00 0.00 0.00 0.00 0.00 0.00 0.00 0.00 0.00 0.00 0.00 0.00 0.00 0.00 0.00 0.00 0.00 0.00 0.00 0.00 0.00 0.00 0.00 0.00 0.01 0.02 0.01 0.02 0.03 0.03 0.02 0.01 0.02 0.05 0.19 0.25 0.22 0.40
0.00 0.00 0.00 0.00 0.00 0.00 0.00 0.00 0.00 0.00 0.00 0.00 0.00 0.00 0.00 0.00 0.00 0.00 0.01 0.01 0.01 0.00 0.00 0.00 0.00 0.00 0.00 0.00 0.00 0.00 0.05 0.04 0.01 0.03 0.02 0.04 0.03 0.04 0.07 0.06 0.06 0.12 0.15 0.17
0.00 0.00 0.00 0.00 0.00 0.00 0.00 0.00 0.00 0.00 0.00 0.01 0.00 0.00 0.00 0.01 0.05 0.05 0.06 0.05 0.05 0.02 0.01 0.00 0.00 0.00 0.00 0.08 0.04 0.00 0.03 0.04 0.05 0.03 0.04 0.04 0.03 0.06 0.06 0.04 0.04 0.04 0.12 0.34
0.00 0.00 0.00 0.00 0.00 0.00 0.00 0.00 0.00 0.00 0.02 0.01 0.00 0.01 0.01 0.09 0.18 0.13 0.14 0.12 0.09 0.06 0.02 0.01 0.01 0.01 0.00 0.05 0.19 0.13 0.13 0.06 0.03 0.03 0.04 0.06 0.08 0.06 0.06 0.04 0.02 0.02 0.03 0.12
0.00 0.00 0.00 0.00 0.00 0.00 0.00 0.00 0.01 0.01 0.01 0.01 0.05 0.05 0.24 0.53 0.21 0.12 0.13 0.16 0.20 0.16 0.05 0.02 0.03 0.03 0.01 0.02 0.11 0.24 0.35 0.27 0.19 0.17 0.16 0.16 0.16 0.15 0.14 0.11 0.06 0.03 0.02 0.02
0.00 0.00 0.00 0.00 0.00 0.00 0.02 0.01 0.01 0.06 0.02 0.02 0.00 0.01 0.24 0.41 0.19 0.17 0.21 0.18 0.14 0.12 0.10 0.06 0.06 0.06 0.05 0.07 0.26 0.29 0.26 0.20 0.26 0.34 0.24 0.22 0.19 0.18 0.18 0.17 0.16 0.08 0.03 0.03
0.00 0.01 0.00 0.00 0.00 0.00 0.02 0.06 0.21 0.26 0.14 0.07 0.01 0.10 0.25 0.22 0.10 0.07 0.10 0.19 0.09 0.03 0.02 0.04 0.06 0.13 0.19 0.52 0.85 0.96 0.84 0.62 0.50 0.47 0.37 0.33 0.26 0.20 0.19 0.15 0.09 0.05 0.04 0.04
0.02 0.03 0.01 0.04 0.02 0.03 0.05 0.05 0.13 0.24 0.14 0.18 0.12 0.39 0.52 0.17 0.05 0.05 0.05 0.08 0.07 0.01 0.02 0.02 0.08 0.16 0.35 0.47 0.72 0.91 1.07 1.17 0.88 0.70 0.60 0.48 0.29 0.25 0.20 0.18 0.12 0.07 0.04 0.04
0.14 0.11 0.04 0.01 0.00 0.00 0.05 0.11 0.19 0.31 0.25 0.25 0.21 0.30 0.37 0.10 0.01 0.00 0.01 0.02 0.04 0.03 0.04 0.04 0.05 0.08 0.28 0.48 0.62 0.75 0.99 1.44 1.07 0.69 0.59 0.49 0.29 0.30 0.18 0.15 0.10 0.05 0.02 0.02
0.06 0.18 0.16 0.07 0.08 0.06 0.07 0.13 0.22 0.28 0.29 0.27 0.38 0.32 0.47 0.26 0.07 0.02 0.01 0.04 0.04 0.06 0.06 0.06 0.07 0.09 0.14 0.22 0.34 0.41 0.67 1.05 1.06 1.04 0.73 0.61 0.46 0.28 0.13 0.09 0.05 0.04 0.03 0.02
0.12 0.07 0.10 0.10 0.14 0.19 0.14 0.10 0.13 0.39 0.55 0.45 0.30 0.20 0.37 0.54 0.44 0.29 0.12 0.08 0.08 0.07 0.10 0.10 0.10 0.10 0.12 0.17 0.20 0.32 0.76 0.81 0.52 0.89 0.97 0.76 0.63 0.41 0.14 0.05 0.04 0.04 0.04 0.03
0.26 0.12 0.05 0.03 0.02 0.07 0.12 0.10 0.09 0.11 0.14 0.26 0.15 0.20 0.33 0.49 0.47 0.48 0.22 0.10 0.11 0.12 0.11 0.16 0.16 0.15 0.15 0.18 0.20 0.31 0.39 0.70 0.61 0.66 1.17 1.25 0.84 0.59 0.45 0.12 0.04 0.03 0.03 0.02
0.47 0.26 0.12 0.07 0.03 0.02 0.02 0.03 0.09 0.09 0.10 0.11 0.06 0.24 0.44 0.40 0.38 0.28 0.24 0.20 0.18 0.17 0.15 0.16 0.16 0.15 0.16 0.16 0.16 0.21 0.27 0.30 0.42 0.42 0.78 1.16 1.62 0.80 0.64 0.46 0.08 0.05 0.06 0.05
0.37 0.49 0.34 0.16 0.06 0.06 0.03 0.05 0.05 0.04 0.09 0.12 0.20 0.29 0.22 0.25 0.19 0.16 0.14 0.10 0.18 0.32 0.17 0.16 0.17 0.16 0.17 0.17 0.15 0.18 0.22 0.25 0.37 0.44 0.71 0.81 0.89 1.29 0.83 0.58 0.14 0.09 0.07 0.07
0.29 0.31 0.37 0.25 0.12 0.16 0.06 0.16 0.25 0.24 0.35 0.41 0.43 0.26 0.14 0.15 0.38 0.39 0.23 0.14 0.20 0.37 0.55 0.27 0.21 0.19 0.17 0.19 0.20 0.21 0.23 0.27 0.33 0.42 0.53 0.64 0.51 0.86 0.98 0.51 0.21 0.16 0.10 0.08
0.10 0.26 0.36 0.36 0.33 0.15 0.12 0.27 0.52 0.55 0.53 0.37 0.29 0.17 0.13 0.10 0.13 0.40 0.47 0.27 0.31 0.43 0.60 0.91 0.47 0.28 0.30 0.24 0.23 0.25 0.27 0.30 0.32 0.47 0.62 0.74 0.78 0.80 0.74 0.64 0.36 0.23 0.19 0.15
0.05 0.14 0.37 0.29 0.51 0.43 0.67 0.26 0.20 0.55 0.51 0.27 0.25 0.15 0.11 0.10 0.13 0.13 0.26 0.35 0.50 0.53 0.46 0.48 0.75 0.67 0.52 0.56 0.39 0.29 0.30 0.30 0.39 0.44 0.49 0.58 0.77 0.90 0.90 0.80 0.63 0.39 0.29 0.23
0.06 0.10 0.15 0.18 0.36 0.50 0.45 0.25 0.32 0.52 0.47 0.17 0.20 0.15 0.10 0.11 0.17 0.42 0.55 0.59 0.74 0.43 0.34 0.36 0.31 0.44 0.66 0.72 0.81 0.67 0.51 0.46 0.50 0.54 0.57 0.60 0.68 0.81 0.83 0.73 0.69 0.60 0.49 0.37
0.34 0.24 0.23 0.33 0.60 0.56 0.09 0.21 0.42 0.50 0.28 0.13 0.14 0.08 0.04 0.09 0.18 0.43 0.59 0.76 0.78 0.53 0.25 0.21 0.24 0.23 0.23 0.23 0.32 0.64 0.81 0.80 0.70 0.61 0.55 0.62 0.62 0.71 0.87 0.94 0.87 0.70 0.62 0.54
0.85 0.79 0.93 0.64 0.62 0.39 0.18 0.26 0.32 0.28 0.17 0.13 0.07 0.09 0.12 0.20 0.41 0.48 0.56 0.70 0.86 0.57 0.14 0.06 0.09 0.06 0.04 0.06 0.08 0.14 0.26 0.44 0.53 0.58 0.64 0.59 0.57 0.57 0.54 0.56 0.69 0.79 0.81 0.70
0.29 0.20 0.41 0.46 0.41 0.22 0.24 0.17 0.15 0.14 0.11 0.09 0.05 0.03 0.22 0.50 0.57 0.66 0.80 0.73 0.67 0.50 0.17 0.06 0.02 0.01 0.03 0.05 0.06 0.04 0.02 0.03 0.07 0.11 0.15 0.20 0.25 0.28 0.29 0.30 0.34 0.37 0.46 0.53
0.04 0.06 0.21 0.42 0.41 0.32 0.22 0.26 0.19 0.17 0.13 0.16 0.19 0.14 0.19 0.35 0.43 0.29 0.30 0.39 0.44 0.48 0.31 0.12 0.08 0.07 0.08 0.04 0.04 0.05 0.05 0.01 0.01 0.03 0.05 0.07 0.10 0.12 0.15 0.16 0.17 0.18 0.23 0.21
0.08 0.14 0.12 0.27 0.20 0.24 0.31 0.29 0.20 0.16 0.18 0.26 0.14 0.12 0.13 0.18 0.25 0.28 0.26 0.21 0.19 0.23 0.23 0.17 0.15 0.13 0.08 0.04 0.04 0.04 0.03 0.02 0.01 0.01 0.01 0.01 0.01 0.02 0.03 0.04 0.06 0.07 0.08 0.06

GFSCGP_prec_precacc24_102.txt.gz
Total_Precipitation_Accumulation
0.00 0.00 0.00 0.00 0.00 0.00 0.00 0.00 0.00 0.00 0.00 0.00 0.00 0.00 0.00 0.00 0.00 0.00 0.00 0.00 0.00 0.00 0.00 0.00 0.00 0.00 0.00 0.00 0.00 0.00 0.01 0.05 0.07 0.07 0.07 0.08 0.02 0.04 0.06 0.04 0.10 0.04 0.06 0.32
0.01 0.00 0.00 0.00 0.00 0.00 0.00 0.00 0.00 0.00 0.00 0.00 0.00 0.00 0.00 0.00 0.00 0.00 0.00 0.00 0.00 0.00 0.00 0.00 0.00 0.00 0.00 0.00 0.00 0.00 0.00 0.02 0.01 0.02 0.05 0.06 0.11 0.13 0.24 0.22 0.22 0.16 0.05 0.12
0.01 0.00 0.00 0.00 0.00 0.00 0.00 0.00 0.00 0.00 0.00 0.00 0.00 0.00 0.00 0.00 0.00 0.00 0.00 0.00 0.00 0.00 0.00 0.00 0.00 0.00 0.00 0.00 0.00 0.00 0.01 0.02 0.01 0.01 0.03 0.07 0.17 0.22 0.38 0.34 0.28 0.24 0.26 0.23
0.06 0.02 0.01 0.00 0.00 0.00 0.00 0.00 0.00 0.00 0.00 0.00 0.00 0.00 0.00 0.00 0.00 0.00 0.00 0.00 0.00 0.00 0.00 0.00 0.00 0.00 0.00 0.00 0.00 0.00 0.01 0.02 0.01 0.02 0.02 0.02 0.02 0.01 0.01 0.05 0.19 0.28 0.55 0.71
0.03 0.01 0.03 0.03 0.00 0.00 0.00 0.00 0.00 0.00 0.00 0.00 0.00 0.00 0.00 0.00 0.00 0.00 0.01 0.01 0.01 0.00 0.00 0.00 0.00 0.00 0.00 0.00 0.00 0.00 0.05 0.04 0.01 0.03 0.02 0.04 0.03 0.04 0.07 0.05 0.06 0.10 0.22 0.27
0.02 0.02 0.02 0.02 0.01 0.00 0.00 0.00 0.00 0.00 0.00 0.00 0.00 0.00 0.00 0.01 0.05 0.05 0.06 0.05 0.05 0.02 0.01 0.00 0.00 0.00 0.00 0.08 0.04 0.00 0.03 0.04 0.05 0.04 0.04 0.05 0.03 0.05 0.05 0.03 0.04 0.05 0.05 0.08
0.00 0.00 0.00 0.00 0.00 0.00 0.00 0.00 0.01 0.00 0.00 0.00 0.00 0.01 0.01 0.09 0.18 0.13 0.14 0.12 0.09 0.06 0.02 0.01 0.01 0.01 0.00 0.05 0.19 0.13 0.14 0.05 0.03 0.03 0.05 0.06 0.08 0.06 0.07 0.05 0.04 0.06 0.04 0.04
0.00 0.00 0.00 0.00 0.00 0.00 0.00 0.00 0.01 0.01 0.01 0.01 0.05 0.05 0.24 0.53 0.21 0.12 0.13 0.16 0.20 0.16 0.05 0.02 0.03 0.03 0.02 0.02 0.11 0.24 0.36 0.28 0.21 0.20 0.20 0.21 0.20 0.18 0.17 0.15 0.16 0.09 0.03 0.04
0.00 0.00 0.00 0.00 0.00 0.00 0.02 0.00 0.00 0.02 0.00 0.00 0.00 0.01 0.24 0.41 0.19 0.17 0.21 0.18 0.14 0.12 0.10 0.06 0.06 0.08 0.07 0.08 0.27 0.30 0.27 0.21 0.31 0.44 0.33 0.31 0.30 0.31 0.32 0.28 0.34 0.32 0.17 0.13
0.01 0.01 0.00 0.00 0.00 0.00 0.02 0.04 0.13 0.21 0.11 0.04 0.01 0.09 0.24 0.22 0.10 0.07 0.10 0.19 0.09 0.03 0.02 0.04 0.06 0.14 0.22 0.56 0.87 0.98 0.87 0.67 0.58 0.62 0.55 0.48 0.39 0.27 0.26 0.26 0.34 0.35 0.32 0.21
0.03 0.04 0.01 0.03 0.02 0.02 0.04 0.03 0.07 0.14 0.13 0.14 0.07 0.26 0.40 0.16 0.05 0.05 0.05 0.08 0.06 0.01 0.01 0.02 0.08 0.15 0.35 0.48 0.75 0.94 1.11 1.28 1.05 0.93 0.88 0.70 0.47 0.36 0.27 0.27 0.21 0.28 0.21 0.23
0.12 0.09 0.04 0.01 0.00 0.00 0.04 0.08 0.16 0.26 0.18 0.16 0.15 0.14 0.07 0.03 0.00 0.00 0.00 0.01 0.02 0.01 0.02 0.02 0.03 0.06 0.26 0.47 0.62 0.76 1.02 1.57 1.30 0.86 0.86 0.73 0.56 0.58 0.37 0.27 0.23 0.18 0.14 0.10
0.04 0.09 0.08 0.03 0.03 0.04 0.04 0.08 0.13 0.19 0.21 0.18 0.24 0.22 0.15 0.07 0.03 0.01 0.01 0.02 0.01 0.01 0.03 0.04 0.04 0.04 0.09 0.18 0.33 0.43 0.73 1.06 1.10 1.15 0.96 0.76 0.58 0.53 0.44 0.36 0.26 0.22 0.07 0.03
0.07 0.05 0.05 0.03 0.10 0.17 0.13 0.09 0.11 0.30 0.39 0.27 0.20 0.13 0.13 0.14 0.18 0.20 0.11 0.04 0.03 0.02 0.04 0.06 0.07 0.07 0.07 0.10 0.14 0.30 0.76 0.82 0.65 0.98 1.05 0.98 0.88 0.72 0.43 0.34 0.25 0.16 0.10 0.03
0.08 0.07 0.03 0.02 0.01 0.06 0.12 0.10 0.09 0.11 0.12 0.21 0.11 0.18 0.30 0.34 0.30 0.21 0.16 0.07 0.05 0.05 0.06 0.07 0.08 0.08 0.09 0.10 0.10 0.19 0.31 0.75 0.85 1.09 1.41 1.32 1.02 0.84 0.81 0.64 0.42 0.19 0.07 0.03
0.17 0.14 0.10 0.06 0.02 0.02 0.02 0.03 0.09 0.09 0.10 0.11 0.06 0.24 0.44 0.39 0.33 0.16 0.12 0.09 0.11 0.09 0.10 0.10 0.09 0.10 0.11 0.10 0.12 0.17 0.24 0.28 0.49 0.60 0.96 1.32 1.73 0.99 0.94 1.09 1.06 0.66 0.22 0.11
0.12 0.24 0.31 0.15 0.06 0.06 0.03 0.05 0.05 0.04 0.10 0.12 0.21 0.28 0.21 0.24 0.17 0.12 0.09 0.07 0.15 0.20 0.15 0.13 0.15 0.14 0.15 0.16 0.15 0.19 0.28 0.28 0.35 0.45 0.86 1.00 1.16 1.51 1.09 1.22 1.34 1.46 1.01 0.52
0.09 0.16 0.34 0.25 0.12 0.16 0.06 0.16 0.25 0.24 0.35 0.43 0.44 0.26 0.10 0.07 0.11 0.16 0.21 0.18 0.21 0.26 0.35 0.22 0.20 0.19 0.18 0.20 0.21 0.22 0.26 0.31 0.36 0.44 0.58 0.73 0.62 1.04 1.32 0.97 0.98 1.05 1.03 0.87
0.05 0.16 0.32 0.36 0.33 0.15 0.12 0.27 0.53 0.57 0.56 0.40 0.32 0.21 0.16 0.15 0.11 0.15 0.29 0.25 0.28 0.33 0.39 0.71 0.42 0.24 0.29 0.24 0.24 0.25 0.27 0.32 0.36 0.53 0.68 0.81 0.89 0.91 1.03 1.26 1.08 1.06 0.91 0.77
0.04 0.11 0.34 0.29 0.51 0.43 0.68 0.26 0.21 0.58 0.58 0.30 0.28 0.24 0.21 0.26 0.25 0.18 0.18 0.20 0.29 0.37 0.35 0.42 0.74 0.67 0.50 0.54 0.39 0.29 0.30 0.30 0.39 0.47 0.56 0.67 0.85 1.00 1.17 1.35 1.43 1.33 1.19 0.94
0.05 0.08 0.14 0.17 0.36 0.51 0.45 0.25 0.33 0.58 0.52 0.23 0.32 0.34 0.33 0.33 0.29 0.26 0.22 0.27 0.30 0.29 0.32 0.36 0.30 0.44 0.67 0.71 0.80 0.67 0.51 0.48 0.52 0.56 0.58 0.61 0.69 0.85 0.96 1.04 1.21 1.40 1.47 1.32
0.31 0.22 0.24 0.33 0.60 0.57 0.09 0.22 0.44 0.55 0.36 0.26 0.35 0.34 0.32 0.27 0.22 0.19 0.21 0.29 0.33 0.30 0.24 0.21 0.25 0.23 0.24 0.23 0.32 0.64 0.83 0.83 0.70 0.62 0.55 0.62 0.62 0.72 0.88 0.96 0.97 0.93 1.00 1.21
0.83 0.78 0.91 0.65 0.63 0.41 0.20 0.29 0.37 0.33 0.28 0.31 0.29 0.28 0.20 0.18 0.20 0.19 0.23 0.27 0.32 0.31 0.14 0.07 0.09 0.06 0.05 0.07 0.08 0.14 0.28 0.45 0.53 0.58 0.64 0.59 0.57 0.58 0.54 0.56 0.69 0.80 0.83 0.75
0.27 0.21 0.34 0.26 0.22 0.19 0.28 0.22 0.19 0.20 0.21 0.22 0.17 0.13 0.10 0.12 0.13 0.16 0.20 0.23 0.26 0.29 0.16 0.06 0.02 0.01 0.03 0.05 0.06 0.05 0.02 0.03 0.07 0.11 0.15 0.20 0.25 0.28 0.29 0.30 0.34 0.37 0.46 0.53
0.03 0.02 0.10 0.13 0.15 0.16 0.19 0.26 0.21 0.20 0.15 0.14 0.15 0.10 0.11 0.13 0.16 0.13 0.15 0.19 0.25 0.30 0.27 0.12 0.08 0.07 0.09 0.05 0.04 0.06 0.05 0.01 0.01 0.03 0.05 0.07 0.10 0.12 0.15 0.16 0.18 0.18 0.24 0.21
0.02 0.03 0.04 0.11 0.08 0.13 0.25 0.25 0.18 0.17 0.17 0.16 0.08 0.07 0.07 0.08 0.13 0.15 0.16 0.15 0.16 0.21 0.23 0.17 0.15 0.13 0.08 0.04 0.04 0.04 0.03 0.02 0.01 0.01 0.01 0.01 0.01 0.02 0.03 0.03 0.06 0.07 0.09 0.06